     2              OBSERVATION DATA    GPS                 RINEX VERSION / TYPE
teqc 2000Feb29 simon 20000627 21:01:40UTC                   PGM / RUN BY / DATE
                                                            COMMENT
L2: 1 -> 1; 150 -> 5; 250 -> 9                              COMMENT
L2: 1 -> 1; 150 -> 5; 250 -> 9                              COMMENT
L2: 1 -> 1; 150 -> 5; 250 -> 9                              COMMENT
L2: 1 -> 1; 150 -> 5; 250 -> 9                              COMMENT
L2: 1 -> 1; 150 -> 5; 250 -> 9                              COMMENT
Original Marker Name: GS10                                  COMMENT
Campaign Name: China Lake April 2000                        COMMENT
4-Character Station Name: GS10                              COMMENT
6-Character Antenna Code: ASHGD3                            COMMENT
Vertical Measurement Point: TGP                             COMMENT
Vertical Offset to Rinex Ref. Point: 0.0640                 COMMENT
Radial Measurement Point: OOH                               COMMENT
Radial Offset to Rinex Ref. Point: 0.1737                   COMMENT
Antenna Height from Field Measurement: 1.2530 m             COMMENT
Additional Antenna Identification Info.:                    COMMENT
The Whopper (700718AB)                                      COMMENT
Original XYZ: -2421117.4800 -4612933.2700 3668764.5200      COMMENT
New XYZ position is based on association with SCEC monument COMMENT
E1F4A4F3+0011. Position of that monument is believed to be  COMMENT
valid to within 1 m horizontally; vertical accuracy         COMMENT
should be no worse than 3-times this value.                 COMMENT
                                                            COMMENT
Revised Rinex header created by UCSD GPS archive for        COMMENT
GSAC on 14-Sep-2001 (2001:257) 19:47:32 GMT                 COMMENT
For assistance contact dagnew@ucsd.edu                      COMMENT
or anderson@python.ucsd.edu                                 COMMENT
                                                            COMMENT
JOBURG NCER 1973 RESET 1977                                 MARKER NAME
jobu                                                        MARKER NUMBER
HEM US NATIONAL IMAGERY MAPPING AGENCY                      OBSERVER / AGENCY
500 ASHTECH Z-XII3 4J30                                     REC # / TYPE / VERS
113 ASHTECH GEODETIC III                                    ANT # / TYPE
 -2421207.8124 -4613274.3278  3669248.3214                  APPROX POSITION XYZ
        1.1769        0.0000        0.0000                  ANTENNA: DELTA H/E/N
     1     1     0                                          WAVELENGTH FACT L1/2
     7    L1    L2    C1    P1    P2    S1    S2            # / TYPES OF OBSERV
    30                                                      INTERVAL
  2000     4    19    15    11   30.000000                  TIME OF FIRST OBS
  2000     4    19    21    29   60.000000                  TIME OF LAST OBS
                                                            END OF HEADER
 00  4 19 15 11 30.0000000  0  7G27G 2G26G 7G 8G11G13
     43978.94559     27395.38557  17885605.053    17885604.283    17885617.814
       228.000         188.000
    -26103.69459    -14281.45357  16841462.780    16841462.336    16841473.406
       239.000         206.000
    -23973.91059    -14387.73657  18115384.966    18115385.372    18115397.668
       233.000         192.000
    -11539.27657                  16255925.117                    16255936.176
       235.000         206.000
     36707.71959     21639.13557  17092945.911    17092944.748    17092957.280
       236.000         201.000
      1398.67655                  19637445.419                    19637461.038
       219.000         160.000
     14300.69253                  19717979.622
       220.000          74.000
 00  4 19 15 12  0.0000000  0  8G27G 2G26G 7G 8G 9G11G13
     97213.84949     68876.90447  17895735.068    17895734.558    17895748.257
       229.000         188.000
    -53757.89649    -35830.22447  16836200.563    16836199.940    16836210.978
       239.000         206.000
    -51504.31549    -35840.08347  18110146.549    18110146.585    18110158.882
       233.000         193.000
    -83702.36859    -55300.10957  16245238.729    16245238.406    16245249.485
       235.000         206.000
     78809.77449     54445.80047  17100957.323    17100956.499    17100969.135
       236.000         201.000
    -69470.81853                  20582691.330
       210.000          74.000
      4522.16659      3260.31755  19637900.150    19637899.933    19637914.735
       217.000         162.000
    102720.82149     68780.05745  19731282.765    19731282.393    19731298.776
       221.000         161.000
 00  4 19 15 12 29.9990000  0  7G27G 2G26G 7G 8G11G13
    150727.62249    110575.72346  22103012.960    22103012.423    22103026.128
       227.000         187.000
    -81300.38449    -57291.94647  21028053.878    21028053.181    21028064.183
       239.000         206.000
    -78500.08549    -56875.82547  22302103.923    22302103.864    22302116.069
       234.000         193.000
   -139430.49049    -98724.63147  20431728.774    20431728.200    20431739.247
       235.000         206.000
    121231.04049     87501.20147  21306124.255    21306123.468    21306136.098
       236.000         200.000
      7351.81749      5465.07845  23835532.910    23835532.244    23835547.981
       217.000         162.000
    172621.86959    123248.08155  23941678.922    23941678.741    23941694.835
       221.000         162.000
 00  4 19 15 12 59.9990000  0  8G27G 2G26G 7G 8G 9G11G13
    204615.61949    152566.14246  22113267.597    22113267.049    22113280.817
       228.000         187.000
   -108726.69749    -78663.15347  21022834.891    21022834.153    21022845.145
       239.000         206.000
   -104943.94749    -77481.50647  22297071.950    22297071.852    22297083.965
       234.000         193.000
   -194734.22449   -141818.45847  20421204.977    20421204.272    20421215.302
       235.000         206.000
    164049.97549    120866.47247  21314272.466    21314271.697    21314284.326
       236.000         200.000
   -393937.02649   -279325.64245  24728537.415    24728538.758    24728550.183
       211.000         147.000
     10663.04449      8045.06445  23836162.829    23836162.053    23836178.185
       217.000         160.000
    242612.20149    177785.67245  23954997.711    23954997.567    23955013.652
       219.000         159.000
 00  4 19 15 13 29.9990000  0  8G27G 2G26G 7G 8G 9G11G13
    258875.13149    194846.05846  22123592.964    22123592.397    22123606.181
       228.000         187.000
   -135991.99149    -99908.88747  21017646.556    21017645.790    21017656.776
       239.000         206.000
   -130796.26149    -97626.23747  22292152.477    22292152.350    22292164.560
       233.000         193.000
   -249576.97749   -184553.08147  20410768.803    20410768.037    20410779.089
       235.000         206.000
    207247.21849    154526.53447  21322492.713    21322491.924    21322504.541
       236.000         199.000
   -528555.61749   -384223.38545  24702920.401    24702919.566    24702933.190
       210.000         150.000
     14483.76849     11022.15945  23836890.333    23836889.571    23836904.786
       222.000         161.000
    312660.81149    232368.67745  23968327.671    23968327.650    23968343.533
       220.000         160.000
 00  4 19 15 13 59.9990000  0  9G27G 2G26G 4G 7G 8G 9G11G13
    313532.33949    237435.85846  22133994.016    22133993.399    22134007.220
       227.000         186.000
   -163064.58949   -121004.44547  21012494.857    21012494.061    21012505.036
       239.000         206.000
   -156033.56849   -117291.74247  22287349.996    22287349.854    22287362.123
       234.000         193.000
   -219346.09455                  24348768.896
       204.000         137.000
   -303931.04749   -226906.90947  20400425.617    20400424.790    20400435.854
       235.000         206.000
    250840.00249    188494.80447  21330788.247    21330787.421    21330800.058
       235.000         199.000
   -663083.04559   -489050.09355  24677320.761    24677320.887    24677334.133
       212.000         150.000
     18851.37849     14425.33245  23837721.536    23837720.721    23837736.094
       214.000         162.000
    382787.44449    287012.49445  23981672.550    23981672.522    23981688.192
       218.000         159.000
 00  4 19 15 14 29.9990000  0  9G27G 2G26G 4G 7G 8G 9G11G13
    368580.84149    280330.56546  22144469.556    22144468.867    22144482.700
       227.000         186.000
   -189940.93049   -141947.08147  21007380.559    21007379.700    21007390.663
       239.000         206.000
   -180680.44949   -136497.16547  22282660.005    22282659.768    22282672.018
       234.000         193.000
   -438960.69849   -325807.83645  24322769.758    24322768.439    24322790.676
       204.000         139.000
   -357792.87149   -268877.16647  20390176.132    20390175.252    20390186.342
       235.000         206.000
    294821.96049    222766.33547  21339157.823    21339156.982    21339169.635
       235.000         199.000
   -797530.00849   -593814.14345  24651736.448    24651736.208    24651749.556
       210.000         149.000
     23772.03749     18259.38946  23838657.856    23838657.029    23838672.891
       221.000         166.000
    452954.88249    341688.08945  23995025.208    23995025.077    23995040.662
       219.000         159.000
 00  4 19 15 14 59.9990000  0  9G27G 2G26G 4G 7G 8G 9G11G13
    423998.33649    323512.79746  22155015.290    22155014.554    22155028.406
       227.000         185.000
   -216636.32149   -162748.71747  21002300.705    21002299.786    21002310.741
       240.000         206.000
   -204775.47949   -155272.57447  22278074.966    22278074.687    22278086.951
       235.000         194.000
   -575647.56749   -432317.01045  24296759.120    24296758.997    24296780.220
       201.000         138.000
   -411162.95949   -310464.25747  20380020.182    20380019.274    20380030.380
       236.000         206.000
    339182.83549    257333.12247  21347599.567    21347598.660    21347611.332
       235.000         199.000
   -931904.59849   -698521.78345  24626165.907    24626165.567    24626178.674
       212.000         149.000
     29221.97249     22506.00945  23839695.346    23839694.385    23839709.918
       219.000         157.000
    523133.25749    396372.21545  24008379.944    24008379.724    24008395.220
       219.000         157.000
 00  4 19 15 15 29.9990000  0  9G27G 2G26G 4G 7G 8G 9G11G13
    479786.69449    366984.02046  22165631.606    22165630.809    22165644.689
       226.000         185.000
   -243146.67049   -183406.16547  20997256.080    20997255.104    20997266.054
       240.000         207.000
   -228318.28449   -173617.67447  22273595.080    22273594.719    22273606.956
       235.000         193.000
   -712384.39159   -538865.09155  24270738.955    24270738.779    24270760.542
       200.000         140.000
   -464038.56549   -351666.03647  20369958.349    20369957.402    20369968.502
       237.000         206.000
    383932.43049    292202.79847  21356115.285    21356114.311    21356126.971
       235.000         199.000
  -1066200.53049   -803168.13045  24600610.388    24600610.101    24600622.963
       211.000         149.000
     35192.19249     27158.00545  23840831.311    23840830.454    23840845.882
       215.000         158.000
    593326.08749    451067.60445  24021737.451    24021737.144    24021752.638
       217.000         158.000
 00  4 19 15 15 59.9990000  0  9G27G 2G26G 4G 7G 8G 9G11G13
    535933.76049    410734.74246  22176316.203    22176315.348    22176329.276
       227.000         184.000
   -269483.10149   -203928.08147  20992244.468    20992243.478    20992254.462
       239.000         207.000
   -251324.78549   -191544.87947  22269217.191    22269216.801    22269228.990
       234.000         193.000
   -849179.61749   -645458.67545  24244707.584    24244707.457    24244729.114
       205.000         140.000
   -516415.18549   -392478.99547  20359991.512    20359990.508    20360001.577
       237.000         206.000
    429080.75149    327383.16147  21364706.847    21364705.827    21364718.493
       235.000         199.000
  -1200420.82749   -907755.51945  24575069.176    24575068.843    24575081.750
       214.000         150.000
     41664.81349     32201.43246  23842063.208    23842062.277    23842077.873
       220.000         167.000
    663539.24649    505778.82945  24035098.786    24035098.421    24035113.897
       217.000         157.000
 00  4 19 15 16 29.9990000  0  9G27G 2G26G 4G 7G 8G 9G11G13
    592411.42949    454743.07946  22187063.768    22187062.821    22187076.813
       226.000         184.000
   -295663.84949   -224328.69047  20987262.437    20987261.451    20987272.479
       239.000         207.000
   -273824.65349   -209077.29347  22264935.614    22264935.221    22264947.444
       234.000         193.000
   -986063.06249   -752120.98545  24218659.476    24218659.311    24218680.633
       202.000         140.000
   -568312.02449   -432918.09247  20350115.953    20350114.909    20350125.950
       236.000         205.000
    474609.54849    362860.00947  21373370.848    21373369.773    21373382.440
       235.000         199.000
  -1334593.18149  -1012305.53345  24549537.027    24549536.615    24549549.698
       211.000         148.000
     48609.58849     37612.79145  23843385.034    23843383.984    23843399.614
       218.000         158.000
    733770.26749    560503.98945  24048463.537    24048463.061    24048478.560
       217.000         154.000
 00  4 19 15 16 59.9990000  0  9G27G 2G26G 4G 7G 8G 9G11G13
    649209.49649    499001.06846  22197872.280    22197871.271    22197885.329
       225.000         183.000
   -321702.33749   -244618.45947  20982307.515    20982306.528    20982317.578
       239.000         207.000
   -295801.81849   -226202.41947  22260753.501    22260753.151    22260765.361
       234.000         193.000
  -1123031.87049   -858849.78845  24192595.160    24192594.926    24192616.182
       204.000         140.000
   -619745.12149   -472995.84347  20340328.580    20340327.515    20340338.563
       236.000         205.000
    520511.85749    398627.89847  21382105.903    21382104.791    21382117.474
       235.000         198.000
  -1468729.88749  -1116827.77745  24524011.460    24524011.228    24524024.409
       210.000         148.000
     56011.21649     43380.19745  23844793.470    23844792.533    23844807.951
       218.000         158.000
    804047.35049    615265.01245  24061837.112    24061836.528    24061852.049
       216.000         155.000
 00  4 19 15 17 29.9990000  0  9G27G 2G26G 4G 7G 8G 9G11G13
    706333.02149    543512.66346  22208742.721    22208741.673    22208755.768
       226.000         184.000
   -347584.45649   -264786.37847  20977382.365    20977381.356    20977392.462
       240.000         207.000
   -317243.83049   -242910.54647  22256673.286    22256672.903    22256685.077
       234.000         193.000
  -1260076.65349   -965637.80145  24166516.382    24166516.080    24166537.337
       200.000         139.000
   -670720.07249   -512716.59547  20330628.358    20330627.297    20330638.392
       235.000         205.000
    566788.76549    434687.68447  21390912.184    21390911.092    21390923.784
       235.000         198.000
  -1602826.35649  -1221318.65045  24498493.814    24498493.482    24498506.816
       211.000         149.000
     63895.52449     49523.67745  23846294.002    23846292.985    23846308.389
       217.000         162.000
    874393.74549    670080.04345  24075223.834    24075223.189    24075238.721
       219.000         154.000
 00  4 19 15 17 59.9990000  0  9G27G 2G26G 4G 7G 8G 9G11G13
    763768.07649    588266.99746  22219672.502    22219671.359    22219685.505
       227.000         183.000
   -373322.21349   -284841.81747  20972484.689    20972483.672    20972494.810
       239.000         208.000
   -338166.96249   -259214.35647  22252691.855    22252691.417    22252703.555
       234.000         193.000
  -1397209.71749  -1072494.56945  24140420.799    24140420.533    24140441.630
       204.000         141.000
   -721243.74949   -552085.70147  20321014.009    20321012.968    20321024.116
       235.000         205.000
    613416.62449    471020.93147  21399785.304    21399784.174    21399796.888
       235.000         199.000
  -1736886.28049  -1325781.03945  24472983.350    24472982.793    24472996.192
       209.000         149.000
     72263.65049     56044.15445  23847886.604    23847885.545    23847901.039
       219.000         162.000
    944795.26549    724938.04845  24088621.063    24088620.321    24088635.861
       217.000         154.000
 00  4 19 15 18 29.9990000  0  9G27G 2G26G 4G 7G 8G 9G11G13
    821522.10749    633269.89746  22230662.967    22230661.753    22230675.968
       226.000         183.000
   -398902.46449   -304774.52547  20967617.033    20967615.971    20967627.115
       239.000         207.000
   -358548.85249   -275096.41747  22248813.427    22248812.938    22248825.068
       234.000         194.000
  -1534405.49949  -1179400.19245  24114313.227    24114313.052    24114334.121
       208.000         141.000
   -771305.35249   -591094.74947  20311487.666    20311486.603    20311497.752
       236.000         205.000
    660407.21649    507636.82947  21408727.448    21408726.287    21408739.007
       234.000         198.000
  -1870902.18149  -1430209.07845  24447481.203    24447480.534    24447493.935
       211.000         149.000
     81139.60549     62960.37245  23849575.789    23849574.691    23849590.240
       217.000         160.000
   1015244.72749    779833.41445  24102027.466    24102026.641    24102042.110
       216.000         153.000
 00  4 19 15 18 59.9990000  0  9G27G 2G26G 4G 7G 8G 9G11G13
    879624.31549    678544.09746  22241719.657    22241718.426    22241732.673
       226.000         182.000
   -424305.65949   -324569.27147  20962783.029    20962781.961    20962793.123
       240.000         208.000
   -378361.63249   -290535.01847  22245043.264    22245042.759    22245054.953
       233.000         194.000
  -1671635.71249  -1286332.62545  24088199.178    24088198.998    24088220.040
       205.000         142.000
   -820898.99049   -629739.14547  20302050.367    20302049.278    20302060.389
       234.000         205.000
    707774.98849    544546.62847  21417741.382    21417740.191    21417752.932
       235.000         198.000
  -2004840.81149  -1534576.94745  24421993.731    24421993.019    24422006.381
       214.000         150.000
     90549.91749     70292.92845  23851366.638    23851365.503    23851381.057
       218.000         158.000
   1085734.40749    834760.10045  24115441.403    24115440.544    24115456.088
       216.000         153.000
 00  4 19 15 19 29.9990000  0  9G27G 2G26G 4G 7G 8G 9G11G13
    938124.71749    724128.58246  22252852.083    22252850.865    22252865.186
       226.000         182.000
   -449484.18249   -344188.95147  20957991.790    20957990.714    20958001.860
       240.000         207.000
   -397581.54349   -305511.65447  22241385.922    22241385.395    22241397.645
       234.000         194.000
  -1808859.18449  -1393259.77145  24062086.376    24062086.201    24062107.211
       206.000         143.000
   -869976.00949   -667980.98947  20292711.323    20292710.237    20292721.349
       235.000         204.000
    755554.66949    581777.39747  21426833.716    21426832.501    21426845.277
       234.000         198.000
  -2138647.37649  -1638841.90645  24396531.429    24396530.564    24396543.953
       210.000         150.000
    100532.40749     78071.39445  23853266.447    23853265.241    23853280.697
       217.000         159.000
   1156279.16949    889729.69645  24128865.851    24128864.980    24128880.581
       214.000         149.000
 00  4 19 15 19 59.9990000  0  9G27G 2G26G 4G 7G 8G 9G11G13
    997042.71649    770038.47346  22264064.061    22264062.764    22264077.133
       226.000         181.000
   -474431.21349   -363628.23147  20953244.623    20953243.514    20953254.670
       240.000         207.000
   -416192.16849   -320013.50347  22237844.490    22237843.957    22237856.239
       233.000         193.000
  -1946052.33049  -1500163.27445  24035979.295    24035979.172    24036000.151
       204.000         142.000
   -918512.33949   -705801.51147  20283475.160    20283474.073    20283485.209
       235.000         204.000
    803766.88149    619345.20547  21436008.348    21436007.109    21436019.926
       235.000         198.000
  -2272305.34249  -1742991.07945  24371097.318    24371096.446    24371109.837
       214.000         149.000
    111087.02149     86295.61445  23855274.793    23855273.717    23855289.361
       213.000         159.000
   1226875.07849    944739.15845  24142299.991    24142299.114    24142314.822
       215.000         151.000
 00  4 19 15 20 29.9990000  0  9G27G 2G26G 4G 7G 8G 9G11G13
   1056390.76549    816283.47146  22275357.843    22275356.516    22275370.920
       226.000         180.000
   -499138.60849   -382880.78147  20948543.024    20948541.900    20948553.059
       240.000         207.000
   -434177.51149   -334028.12747  22234422.081    22234421.538    22234433.811
       234.000         193.000
  -2083198.75649  -1607030.35945  24009881.116    24009880.981    24009901.870
       209.000         143.000
   -966514.45149   -743205.76447  20274340.650    20274339.594    20274350.741
       235.000         204.000
    852430.25549    657264.56347  21445268.861    21445267.588    21445280.421
       234.000         198.000
  -2405814.32249  -1847024.15845  24345691.468    24345690.548    24345703.983
       213.000         151.000
    122216.38349     94967.66845  23857392.774    23857391.703    23857407.462
       218.000         160.000
   1297540.45049    999802.74045  24155747.347    24155746.523    24155762.295
       213.000         150.000
 00  4 19 15 20 59.9990000  0  9G27G 2G26G 4G 7G 8G 9G11G13
   1116181.79649    862873.63646  22286735.892    22286734.569    22286749.017
       226.000         181.000
   -523596.74349   -401939.10147  20943888.849    20943887.707    20943898.900
       240.000         207.000
   -451534.20549   -347552.89647  22231119.350    22231118.738    22231131.010
       234.000         193.000
  -2220280.37649  -1713846.94045  23983795.156    23983795.138    23983816.017
       208.000         143.000
  -1013977.09949   -780189.65447  20265308.871    20265307.772    20265318.938
       235.000         204.000
    901540.67849    695532.26747  21454614.415    21454613.112    21454625.968
       234.000         198.000
  -2539164.14749  -1950933.24045  24320315.953    24320315.027    24320328.496
       211.000         151.000
    133912.23649    104081.22545  23859618.607    23859617.489    23859633.063
       216.000         155.000
   1368302.29549   1054941.48745  24169213.100    24169212.269    24169228.154
       214.000         150.000
 00  4 19 15 21 29.9990000  0  9G27G 2G26G 4G 7G 8G 9G11G13
   1176406.22149    909801.50446  22298196.474    22298195.104    22298209.589
       224.000         180.000
   -547808.21149   -420805.21447  20939281.588    20939280.456    20939291.676
       240.000         207.000
   -468270.14849   -360593.96047  22227934.669    22227934.062    22227946.373
       234.000         194.000
  -2357298.27549  -1820613.84845  23957721.324    23957721.354    23957742.199
       207.000         144.000
  -1060893.00149   -816747.51047  20256381.142    20256380.011    20256391.177
       235.000         204.000
    951101.99949    734151.32047  21464045.713    21464044.430    21464057.330
       234.000         197.000
  -2672355.85749  -2054719.09945  24294970.572    24294969.581    24294983.053
       211.000         152.000
    146171.95949    113634.12045  23861951.692    23861950.559    23861966.114
       215.000         158.000
   1439170.67249   1110163.25645  24182699.300    24182698.342    24182714.412
       215.000         151.000
 00  4 19 15 21 59.9990000  0  9G27G 2G26G 4G 7G 8G 9G11G13
   1237056.10149    957060.90446  22309738.005    22309736.576    22309751.100
       226.000         180.000
   -571778.55649   -439483.43947  20934720.248    20934719.102    20934730.337
       240.000         207.000
   -484374.39349   -373142.78947  22224870.191    22224869.573    22224881.923
       234.000         193.000
  -2494250.91249  -1927329.92745  23931660.009    23931660.050    23931680.884
       206.000         144.000
  -1107267.85849   -852883.77447  20247556.343    20247555.188    20247566.343
       235.000         204.000
   1001122.33649    773128.05147  21473564.372    21473563.102    21473576.044
       233.000         196.000
  -2805393.54049  -2158384.92545  24269654.383    24269653.379    24269666.964
       211.000         151.000
    158999.15849    123629.19445  23864392.581    23864391.518    23864407.356
       215.000         160.000
   1510158.26049   1165477.90845  24196208.223    24196207.172    24196223.267
       215.000         152.000
 00  4 19 15 22 29.9990000  0  9G27G 2G26G 4G 7G 8G 9G11G13
   1298170.85949   1004682.53646  22321368.008    22321366.545    22321381.094
       225.000         179.000
   -595448.79649   -457927.82447  20930216.054    20930214.876    20930226.098
       240.000         207.000
   -499795.96049   -385159.66247  22221935.585    22221935.012    22221947.396
       233.000         193.000
  -2631094.08149  -2033960.69545  23905619.454    23905619.541    23905640.367
       205.000         144.000
  -1153055.02349   -888562.09647  20238843.353    20238842.193    20238853.371
       234.000         203.000
   1051642.93449    812494.60047  21483178.257    21483176.958    21483189.939
       234.000         196.000
  -2938227.86149  -2261892.27445  24244376.888    24244375.880    24244389.547
       214.000         153.000
    172442.54149    134104.43845  23866951.034    23866949.884    23866965.719
       217.000         154.000
   1581322.99449   1220930.60045  24209750.745    24209749.641    24209765.804
       215.000         151.000
 00  4 19 15 22 59.9990000  0  9G27G 2G26G 4G 7G 8G 9G11G13
   1359746.13849   1052663.02746  22333085.680    22333084.169    22333098.700
       225.000         179.000
   -618802.95649   -476125.90947  20925771.983    20925770.781    20925781.998
       240.000         207.000
   -514536.27349   -396645.68447  22219130.685    22219130.098    22219142.492
       234.000         193.000
  -2767825.96249  -2140504.75345  23879600.002    23879600.195    23879621.074
       208.000         145.000
  -1198234.77849   -923767.10947  20230245.931    20230244.776    20230255.973
       234.000         203.000
   1102654.80549    852243.96747  21492885.625    21492884.308    21492897.331
       234.000         195.000
  -3070842.50449  -2365228.46045  24219141.248    24219140.259    24219153.871
       212.000         152.000
    186507.57349    145064.10145  23869627.697    23869626.452    23869642.183
       215.000         154.000
   1652658.98649   1276516.72345  24223325.843    24223324.683    24223340.954
       214.000         150.000
 00  4 19 15 23 29.9990000  0  9G27G 2G26G 4G 7G 8G 9G11G13
   1421784.46649   1101004.33246  22344891.402    22344889.890    22344904.463
       224.000         179.000
   -641843.52149   -494079.64047  20921387.569    20921386.364    20921397.560
       240.000         207.000
   -528587.99149   -407595.13447  22216456.787    22216456.204    22216468.635
       234.000         193.000
  -2904446.90049  -2246962.36745  23853601.736    23853601.927    23853622.790
       211.000         144.000
  -1242792.17649   -958487.17047  20221766.989    20221765.827    20221777.011
       234.000         204.000
   1154164.06149    892380.92347  21502687.625    21502686.301    21502699.351
       234.000         195.000
  -3203224.87449  -2468383.63245  24193949.658    24193948.753    24193962.369
       211.000         152.000
    201215.38549    156524.62245  23872426.665    23872425.358    23872441.197
       212.000         158.000
   1724165.42349   1332235.67545  24236933.286    24236932.177    24236948.451
       212.000         147.000
 00  4 19 15 23 59.9990000  0  9G27G 2G26G 4G 7G 8G 9G11G13
   1484313.93349   1149728.34146  22356790.511    22356789.040    22356803.680
       225.000         178.000
   -664544.37749   -511768.65447  20917067.782    20917066.574    20917077.760
       240.000         207.000
   -541930.35849   -417991.86047  22213917.911    22213917.315    22213929.745
       234.000         193.000
  -3040929.89949  -2353312.53245  23827629.671    23827629.881    23827650.740
       210.000         145.000
  -1286699.94449   -992701.02747  20213411.666    20213410.492    20213421.696
       234.000         204.000
   1206189.20549    932919.85147  21512587.790    21512586.467    21512599.560
       234.000         195.000
  -3335351.79949  -2571339.76345  24168806.849    24168805.943    24168819.504
       215.000         152.000
    216584.25149    168500.23345  23875351.321    23875350.050    23875366.093
       215.000         157.000
   1795844.38449   1388089.05345  24250573.552    24250572.434    24250588.888
       212.000         149.000
 00  4 19 15 24 29.9990000  0  9G27G 2G26G 4G 7G 8G 9G11G13
   1547329.01849   1198830.76746  22368782.071    22368780.634    22368795.328
       225.000         178.000
   -686900.88449   -529189.34747  20912813.532    20912812.323    20912823.494
       240.000         207.000
   -554570.70949   -427841.55347  22211512.604    22211511.993    22211524.436
       234.000         192.000
  -3177275.19949  -2459555.38645  23801683.952    23801684.051    23801704.888
       211.000         144.000
  -1329969.65549  -1026417.70147  20205177.713    20205176.548    20205187.784
       234.000         204.000
   1258715.96949    973849.63647  21522583.420    21522582.111    21522595.253
       233.000         194.000
  -3467224.57149  -2674097.84845  24143712.542    24143711.514    24143725.015
       214.000         153.000
    232610.52549    180988.16945  23878401.067    23878399.841    23878415.827
       213.000         150.000
   1867674.16549   1444059.97045  24264242.527    24264241.477    24264257.864
       212.000         146.000
 00  4 19 15 24 59.9990000  0  9G27G 2G26G 4G 7G 8G 9G11G13
   1610832.21749   1248313.52946  22380866.511    22380865.043    22380879.801
       224.000         176.000
   -708921.48849   -546348.30047  20908623.214    20908622.001    20908633.169
       240.000         208.000
   -566507.64149   -437143.13147  22209241.150    22209240.539    22209252.963
       233.000         193.000
  -3313476.79649  -2565686.32045  23775765.504    23775765.656    23775786.334
       209.000         145.000
  -1372602.33249  -1059637.98147  20197065.063    20197063.859    20197075.106
       234.000         204.000
   1311752.22649   1015176.43947  21532676.011    21532674.694    21532687.882
       233.000         194.000
  -3598834.09949  -2776650.81945  24118668.147    24118667.157    24118680.646
       212.000         153.000
    249295.06949    193989.05545  23881576.080    23881574.890    23881590.863
       215.000         157.000
   1939638.53949   1500135.73545  24277937.093    24277936.090    24277952.539
       212.000         147.000
 00  4 19 15 25 29.9990000  0  9G27G 2G26G 4G 7G 8G 9G11G13
   1674834.59549   1298185.25446  22393045.937    22393044.484    22393059.292
       225.000         176.000
   -730612.95549   -563250.79147  20904495.570    20904494.314    20904505.487
       240.000         207.000
   -577741.43849   -445896.80647  22207103.459    22207102.867    22207115.295
       234.000         193.000
  -3449540.00249  -2671709.40045  23749873.341    23749873.498    23749894.052
       212.000         145.000
  -1414601.16349  -1092364.35847  20189073.000    20189071.788    20189083.028
       234.000         204.000
   1365313.32949   1056912.20847  21542868.482    21542867.159    21542880.401
       233.000         193.000
  -3730180.08349  -2878998.42645  24093673.860    24093672.864    24093686.418
       212.000         153.000
    266633.08949    207499.10445  23884875.520    23884874.323    23884890.362
       211.000         153.000
   2011725.85849   1556307.32445  24291655.122    24291654.067    24291670.754
       212.000         145.000
 00  4 19 15 25 59.9990000  0  9G27G 2G26G 4G 7G 8G 9G11G13
   1739345.57049   1348453.30346  22405322.082    22405320.676    22405335.552
       223.000         176.000
   -751944.52849   -579872.84147  20900436.385    20900435.120    20900446.296
       241.000         207.000
   -588259.26449   -454092.59047  22205102.056    22205101.471    22205113.911
       235.000         193.000
  -3585449.40749  -2777612.62945  23724010.528    23724010.722    23724031.064
       210.000         146.000
  -1455964.95349  -1124595.88947  20181201.817    20181200.585    20181211.805
       235.000         204.000
   1419426.62449   1099078.24647  21553166.026    21553164.707    21553177.978
       233.000         193.000
  -3861239.83849  -2981122.98245  24068734.058    24068733.093    24068746.673
       214.000         154.000
    284616.44249    221512.01445  23888297.560    23888296.453    23888312.500
       214.000         152.000
   2083936.21349   1612574.77145  24305396.637    24305395.470    24305412.238
       214.000         146.000
 00  4 19 15 26 29.9990000  0  9G27G 2G26G 4G 7G 8G 9G11G13
   1804343.72849   1399100.95746  22417691.016    22417689.609    22417704.534
       223.000         176.000
   -772930.39249   -596225.50647  20896442.961    20896441.713    20896452.892
       240.000         207.000
   -598062.99649   -461731.93447  22203236.573    22203235.951    22203248.421
       234.000         192.000
  -3721208.77149  -2883398.95645  23698176.279    23698176.418    23698196.726
       212.000         147.000
  -1496706.81149  -1156342.80247  20173448.940    20173447.708    20173458.947
       234.000         204.000
   1474077.89349   1141663.49047  21563565.955    21563564.637    21563577.927
       233.000         192.000
  -3992019.12749  -3083029.00845  24043847.746    24043846.751    24043860.236
       215.000         155.000
    303231.55549    236017.22845  23891840.078    23891838.909    23891854.809
       217.000         154.000
   2156275.29849   1668942.51845  24319162.619    24319161.421    24319178.301
       212.000         145.000
 00  4 19 15 26 59.9990000  0  9G27G 2G26G 4G 7G 8G 9G11G13
   1869807.79049   1450111.65746  22430148.642    22430147.204    22430162.164
       221.000         175.000
   -793599.54849   -612331.39047  20892509.772    20892508.544    20892519.741
       240.000         207.000
   -607194.58249   -468847.52747  22201498.983    22201498.349    22201510.803
       234.000         192.000
  -3856838.80249  -2989084.49045  23672366.656    23672366.794    23672387.006
       211.000         146.000
  -1536836.77849  -1187612.91647  20165812.458    20165811.243    20165822.501
       233.000         204.000
   1529242.92449   1184649.05947  21574063.629    21574062.324    21574075.627
       232.000         192.000
  -4122537.60349  -3184731.77745  24019011.008    24019010.004    24019023.494
       215.000         155.000
    322456.65149    250997.77245  23895498.788    23895497.539    23895513.323
       216.000         158.000
   2228719.02149   1725391.81745  24332948.549    24332947.305    24332964.355
       211.000         146.000
 00  4 19 15 27 29.9990000  0  9G27G 2G26G 4G 7G 8G 9G11G13
   1935744.62049   1501490.73846  22442696.144    22442694.729    22442709.774
       223.000         175.000
   -813936.26749   -628178.22747  20888639.805    20888638.638    20888649.839
       240.000         207.000
   -615661.73749   -475445.38847  22199887.748    22199887.151    22199899.602
       234.000         192.000
  -3992320.32049  -3094654.30845  23646585.297    23646585.350    23646605.525
       210.000         148.000
  -1576363.62749  -1218413.06547  20158290.730    20158289.545    20158300.827
       233.000         204.000
   1584920.88449   1228034.30947  21584658.927    21584657.620    21584670.958
       232.000         191.000
  -4252790.14849  -3286227.31645  23994224.779    23994223.789    23994237.356
       215.000         156.000
    342305.21549    266464.06445  23899275.831    23899274.635    23899290.629
       213.000         157.000
   2301277.86349   1781930.81945  24346756.297    24346755.106    24346772.180
       212.000         146.000
 00  4 19 15 27 59.9990000  0  9G27G 2G26G 4G 7G 8G 9G11G13
   2002138.63749   1553226.06346  22455330.693    22455329.290    22455344.370
       224.000         175.000
   -833946.59449   -643770.72547  20884831.968    20884830.831    20884842.029
       240.000         207.000
   -623467.96549   -481528.24347  22198402.333    22198401.741    22198414.202
       234.000         193.000
  -4127636.39249  -3200095.20045  23620835.359    23620835.407    23620855.563
       212.000         148.000
  -1615295.58349  -1248749.66147  20150882.232    20150881.062    20150892.329
       234.000         203.000
   1641097.36049   1271808.02047  21595349.117    21595347.785    21595361.158
       233.000         191.000
  -4382790.53649  -3387526.37845  23969486.706    23969485.649    23969499.215
       217.000         156.000
    362774.73949    282414.23645  23903171.014    23903169.893    23903186.059
       216.000         156.000
   2373951.30449   1838559.09245  24360585.878    24360584.640    24360601.986
       211.000         145.000
 00  4 19 15 28 29.9980000  0  9G27G 2G26G 4G 7G 8G 9G11G13
   2068995.69149   1605322.20946  22468053.358    22468051.974    22468067.090
       222.000         174.000
   -853634.38649   -659111.88647  20881085.534    20881084.402    20881095.612
       240.000         207.000
   -630618.71649   -487100.34247  22197041.676    22197041.059    22197053.535
       235.000         192.000
  -4262768.21049  -3305392.51145  23595120.524    23595120.519    23595140.664
       211.000         150.000
  -1653628.75749  -1278619.67947  20143587.699    20143586.510    20143597.791
       233.000         203.000
   1697757.53749   1315958.64047  21606131.319    21606130.004    21606143.400
       232.000         190.000
  -4512551.14449  -3488638.59745  23944794.288    23944793.135    23944806.694
       214.000         155.000
    383892.01449    298869.21945  23907189.627    23907188.494    23907204.565
       215.000         156.000
   2446748.19149   1895283.57045  24374438.992    24374437.720    24374455.115
       210.000         146.000
 00  4 19 15 28 59.9980000  0  9G27G 2G26G 4G 7G 8G 9G11G13
   2136289.37349   1657758.57046  22480859.068    22480857.710    22480872.888
       221.000         173.000
   -873033.78049   -674228.34547  20877394.055    20877392.875    20877404.081
       240.000         207.000
   -637153.11049   -492192.15747  22195798.328    22195797.704    22195810.176
       234.000         193.000
  -4397754.22949  -3410576.20745  23569433.333    23569433.438    23569453.558
       211.000         150.000
  -1691400.30749  -1308052.05947  20136400.016    20136398.840    20136410.156
       233.000         203.000
   1754876.63149   1360466.85047  21617000.829    21616999.534    21617012.974
       232.000         190.000
  -4642113.07649  -3589595.99745  23920139.514    23920138.401    23920152.000
       216.000         155.000
    405635.19049    315811.86845  23911327.218    23911326.123    23911342.271
       214.000         158.000
   2519629.51349   1952073.81045  24388308.098    24388306.846    24388324.417
       212.000         147.000
 00  4 19 15 29 29.9980000  0  9G27G 2G26G 4G 7G 8G 9G11G13
   2203989.04549   1710511.28346  22493742.086    22493740.717    22493755.970
       221.000         173.000
   -892168.98849   -689138.94647  20873752.816    20873751.613    20873762.830
       240.000         207.000
   -643065.34249   -496799.17647  22194673.368    22194672.714    22194685.228
       235.000         193.000
  -4532604.56249  -3515654.14245  23543771.954    23543772.141    23543792.265
       214.000         150.000
  -1728625.54649  -1337058.74647  20129316.276    20129315.119    20129326.462
       233.000         203.000
   1812431.11149   1405314.32247  21627953.213    21627951.919    21627965.391
       232.000         189.000
  -4771496.47849  -3690414.27945  23895518.714    23895517.591    23895531.229
       216.000         155.000
    427972.85549    333217.76745  23915578.018    23915576.936    23915593.130
       216.000         158.000
   2592578.76349   2008917.00545  24402190.236    24402188.923    24402206.567
       211.000         145.000
 00  4 19 15 29 59.9980000  0  9G27G 2G26G 4G 7G 8G 9G11G13
   2272132.08049   1763609.48246  22506709.494    22506708.093    22506723.409
       223.000         174.000
   -911000.08449   -703812.57747  20870169.424    20870168.232    20870179.430
       240.000         207.000
   -648293.74949   -500873.33947  22193678.514    22193677.861    22193690.416
       235.000         193.000
  -4667281.53149  -3620596.98245  23518143.612    23518143.793    23518163.958
       210.000         151.000
  -1765236.83949  -1365587.03447  20122349.369    20122348.225    20122359.584
       233.000         203.000
   1870458.29349   1450530.11847  21638995.616    21638994.282    21639007.778
       233.000         189.000
  -4900653.84449  -3791056.46345  23870940.968    23870939.846    23870953.483
       215.000         156.000
    450933.97849    351109.50245  23919947.494    23919946.390    23919962.610
       217.000         159.000
   2665649.44349   2065854.82745  24416095.420    24416094.085    24416111.806
       212.000         144.000
 00  4 19 15 30 29.9980000  0  9G27G 2G26G 4G 7G 8G 9G11G13
   2340683.70849   1817026.04046  22519754.661    22519753.236    22519768.598
       220.000         173.000
   -929551.11949   -718267.97247  20866639.352    20866638.130    20866649.335
       240.000         207.000
   -652868.72349   -504438.33747  22192807.987    22192807.334    22192819.901
       234.000         192.000
  -4801825.27849  -3725436.02445  23492540.656    23492540.833    23492560.937
       212.000         152.000
  -1801260.14449  -1393657.15247  20115494.355    20115493.226    20115504.584
       233.000         203.000
   1928927.68049   1496090.48247  21650122.121    21650120.768    21650134.300
       232.000         189.000
  -5029587.04049  -3891523.93945  23846405.886    23846404.757    23846418.401
       216.000         157.000
    474492.12549    369466.42145  23924430.592    23924429.499    23924445.723
       214.000         158.000
   2738818.84149   2122869.56645  24430019.507    24430018.097    24430035.776
       214.000         145.000
 00  4 19 15 30 59.9980000  0  9G27G 2G26G 4G 7G 8G 9G11G13
   2409604.68549   1870730.41746  22532870.135    22532868.688    22532884.098
       220.000         173.000
   -947862.19049   -732536.37347  20863154.888    20863153.690    20863164.894
       240.000         207.000
   -656819.31649   -507516.79347  22192056.290    22192055.655    22192068.193
       234.000         192.000
  -4936273.98549  -3830201.00045  23466955.774    23466955.970    23466975.993
       214.000         152.000
  -1836723.20949  -1421290.71647  20108745.902    20108744.805    20108756.189
       232.000         203.000
   1987814.28949   1541975.95247  21661328.068    21661326.680    21661340.225
       231.000         189.000
  -5158316.69749  -3991832.80745  23821909.559    23821908.435    23821922.045
       216.000         156.000
    498585.46549    388240.38545  23929015.367    23929014.321    23929030.629
       215.000         159.000
   2812048.03949   2179930.89745  24443954.950    24443953.469    24443971.280
       214.000         145.000
 00  4 19 15 31 29.9980000  0  9G27G 2G26G 4G 7G 8G 9G11G13
   2478887.92849   1924717.05046  22546054.522    22546053.045    22546068.562
       221.000         173.000
   -965949.43249   -746630.36047  20859712.992    20859711.845    20859723.056
       240.000         207.000
   -660166.60249   -510125.14947  22191419.356    22191418.746    22191431.322
       234.000         193.000
  -5070640.16149  -3934901.64245  23441386.589    23441386.754    23441406.765
       214.000         153.000
  -1871648.63049  -1448505.33547  20102099.842    20102098.735    20102110.110
       233.000         202.000
   2047093.73149   1588167.52447  21672608.746    21672607.342    21672620.905
       232.000         189.000
  -5286861.10349  -4091997.30345  23797448.378    23797447.325    23797460.908
       215.000         156.000
    523177.60449    407403.05945  23933695.272    23933694.173    23933710.538
       216.000         162.000
   2885318.05449   2237024.06145  24457898.040    24457896.545    24457914.425
       211.000         144.000
 00  4 19 15 31 59.9980000  0  9G27G 2G26G 4G 7G 8G 9G11G13
   2548567.14349   1979012.24846  22559314.261    22559312.785    22559328.380
       221.000         173.000
   -983777.71449   -760522.56347  20856320.418    20856319.288    20856330.502
       240.000         207.000
   -662905.26949   -512259.25747  22190898.296    22190897.673    22190910.244
       234.000         193.000
  -5204905.66549  -4039523.83745  23415836.560    23415836.732    23415856.719
       213.000         153.000
  -1906023.95549  -1475291.31547  20095558.508    20095557.352    20095568.709
       233.000         202.000
   2106800.30849   1634691.92347  21683970.668    21683969.296    21683982.881
       232.000         189.000
  -5415184.09149  -4191989.26845  23773029.238    23773028.308    23773041.850
       217.000         156.000
    548304.97149    426982.75045  23938476.709    23938475.725    23938492.267
       213.000         158.000
   2958639.50849   2294157.25645  24471850.970    24471849.506    24471867.479
       208.000         143.000
 00  4 19 15 32 29.9980000  0  9G27G 2G26G 4G 7G 8G 9G11G13
   2618614.49249   2033594.27946  22572644.062    22572642.584    22572658.214
       220.000         172.000
  -1001378.82049   -774237.75447  20852971.037    20852969.924    20852981.167
       240.000         207.000
   -665093.86949   -513964.74347  22190481.937    22190481.301    22190493.891
       234.000         193.000
  -5339095.49349  -4144087.07045  23390301.003    23390301.134    23390320.944
       215.000         152.000
  -1939896.94249  -1501685.86547  20089112.701    20089111.547    20089122.931
       232.000         202.000
   2166907.81849   1681528.72947  21695408.928    21695407.540    21695421.137
       232.000         189.000
  -5543328.37049  -4291841.97045  23748644.123    23748643.311    23748656.879
       216.000         156.000
    573937.16549    446955.85245  23943354.307    23943353.439    23943369.952
       215.000         161.000
   3031949.54249   2351281.60345  24485801.644    24485800.241    24485818.280
       211.000         144.000
 00  4 19 15 32 59.9980000  0  9G27G 2G26G 4G 7G 8G 9G11G13
   2689002.64349   2088441.88146  22586038.755    22586037.241    22586052.948
       220.000         172.000
  -1018794.78249   -787808.67847  20849656.952    20849655.823    20849667.071
       240.000         207.000
   -666769.62649   -515270.61647  22190163.087    22190162.465    22190175.157
       234.000         193.000
  -5473233.53149  -4248609.96445  23364775.200    23364775.323    23364795.019
       214.000         152.000
  -1973305.72649  -1527718.70247  20082755.185    20082754.053    20082765.475
       231.000         203.000
   2227376.84149   1728647.23747  21706915.977    21706914.569    21706928.192
       232.000         189.000
  -5671337.13149  -4391589.07245  23724284.932    23724284.116    23724297.693
       216.000         156.000
    600041.19749    467296.59446  23948321.919    23948320.956    23948337.549
       215.000         163.000
   3105204.02849   2408362.64445  24499741.867    24499740.415    24499758.467
       212.000         144.000
 00  4 19 15 33 29.9980000  0  9G27G 2G26G 4G 7G 8G 9G11G13
   2759739.00149   2143560.79946  22599499.678    22599498.165    22599513.937
       221.000         172.000
  -1036010.61349   -801223.65147  20846380.979    20846379.805    20846391.062
       240.000         207.000
   -667920.21949   -516167.26647  22189944.180    22189943.553    22189956.295
       234.000         193.000
  -5607310.93849  -4353085.61745  23339260.907    23339261.028    23339280.637
       216.000         154.000
  -2006243.17549  -1553384.25747  20076487.408    20076486.282    20076497.704
       232.000         203.000
   2288208.27749   1776048.14847  21718491.967    21718490.559    21718504.195
       232.000         188.000
  -5799188.12449  -4491213.23145  23699955.687    23699954.912    23699968.527
       216.000         157.000
    626649.79149    488030.49045  23953385.452    23953384.450    23953401.089
       216.000         162.000
   3178408.63349   2465404.80545  24513672.571    24513671.098    24513689.235
       208.000         143.000
 00  4 19 15 33 59.9980000  0  9G27G 2G26G 4G 7G 8G 9G11G13
   2830806.14649   2198937.47046  22613023.565    22613022.036    22613037.849
       220.000         171.000
  -1053013.10149   -814472.38447  20843145.570    20843144.391    20843155.641
       240.000         207.000
   -668545.44149   -516654.54447  22189825.265    22189824.643    22189837.358
       234.000         193.000
  -5741326.86349  -4457513.35845  23313758.356    23313758.442    23313778.007
       215.000         154.000
  -2038709.93349  -1578683.04447  20070309.257    20070308.087    20070319.498
       231.000         202.000
   2349411.74249   1823738.95147  21730138.809    21730137.359    21730150.986
       232.000         189.000
  -5926869.23549  -4590704.99545  23675658.732    23675658.014    23675671.711
       216.000         159.000
    653776.82649    509168.37245  23958547.675    23958546.673    23958563.288
       216.000         161.000
   3251571.97849   2522414.82545  24527595.434    24527593.918    24527612.086
       210.000         143.000
 00  4 19 15 34 29.9980000  0  9G27G 2G26G 4G 7G 8G 9G11G13
   2902175.83749   2254549.88646  22626605.046    22626603.476    22626619.364
       220.000         171.000
  -1069805.82649   -827557.66647  20839950.090    20839948.881    20839960.133
       240.000         206.000
   -668649.64049   -516735.82147  22189805.551    22189804.907    22189817.575
       234.000         194.000
  -5875275.16849  -4561888.41845  23288268.629    23288268.761    23288288.290
       216.000         155.000
  -2070722.00949  -1603627.53047  20064217.600    20064216.411    20064227.809
       231.000         203.000
   2410956.79049   1871695.91547  21741850.645    21741849.176    21741862.780
       233.000         188.000
  -6054386.15349  -4690068.81545  23651392.996    23651392.324    23651406.124
       215.000         159.000
    681404.55449    530696.39346  23963805.102    23963804.104    23963820.772
       216.000         163.000
   3324699.27649   2579396.75145  24541511.361    24541509.851    24541528.068
       209.000         141.000
 00  4 19 15 34 59.9980000  0  9G27G 2G26G 4G 7G 8G 9G11G13
   2973797.74649   2310358.82946  22640234.467    22640232.916    22640248.870
       219.000         170.000
  -1086432.94349   -840513.90847  20836786.072    20836784.894    20836796.153
       240.000         206.000
   -668263.42449   -516434.96647  22189879.089    22189878.471    22189891.121
       233.000         193.000
  -6009204.59649  -4666248.78845  23262782.501    23262782.693    23262802.132
       215.000         156.000
  -2102334.89649  -1628260.96347  20058201.888    20058200.696    20058212.080
       231.000         203.000
   2472790.39349   1919877.72247  21753617.378    21753615.901    21753629.521
       232.000         188.000
  -6181769.92349  -4789328.88345  23627152.620    23627151.990    23627165.875
       218.000         158.000
    709481.27149    552574.30246  23969148.101    23969147.032    23969163.760
       216.000         164.000
   3397760.79649   2636327.43145  24555414.835    24555413.234    24555431.573
       209.000         141.000
 00  4 19 15 35 29.9980000  0  9G27G 2G26G 4G 7G 8G 9G11G13
   3045701.12749   2366387.09946  22653917.550    22653915.935    22653931.988
       220.000         171.000
  -1102835.96949   -853295.54347  20833664.707    20833663.546    20833674.818
       240.000         206.000
   -667357.56249   -515729.19147  22190051.560    22190050.928    22190063.589
       234.000         193.000
  -6143074.55949  -4770562.82745  23237307.682    23237307.866    23237327.333
       215.000         156.000
  -2133519.66749  -1652560.80747  20052267.711    20052266.493    20052277.850
       232.000         203.000
   2534949.05849   1968312.80647  21765446.019    21765444.505    21765458.109
       232.000         188.000
  -6308993.67149  -4888464.29545  23602942.795    23602942.159    23602956.014
       217.000         159.000
    738018.88049    574811.32145  23974578.671    23974577.646    23974594.419
       214.000         160.000
   3470786.71649   2693230.35345  24569311.485    24569309.920    24569328.294
       208.000         143.000
 00  4 19 15 35 59.9980000  0  9G27G 2G26G 4G 7G 8G 9G11G13
   3117857.60249   2422612.57946  22667648.771    22667647.111    22667663.251
       219.000         169.000
  -1119020.05249   -865906.56647  20830585.029    20830583.867    20830595.138
       240.000         207.000
   -665964.75449   -514643.97447  22190316.698    22190316.046    22190328.737
       234.000         193.000
  -6276890.22049  -4874834.57245  23211843.169    23211843.394    23211862.879
       216.000         157.000
  -2164292.37349  -1676539.55047  20046411.887    20046410.670    20046422.018
       231.000         202.000
   2597411.05749   2016984.25947  21777332.333    21777330.804    21777344.412
       232.000         188.000
  -6436085.30549  -4987496.74145  23578758.136    23578757.452    23578771.276
       218.000         158.000
    766980.95349    597379.12446  23980089.953    23980089.007    23980105.831
       216.000         163.000
   3543757.37049   2750090.24745  24583197.660    24583196.095    24583214.391
       209.000         142.000
 00  4 19 15 36 29.9980000  0  9G27G 2G26G 4G 7G 8G 9G11G13
   3190280.30549   2479045.50946  22681430.648    22681428.968    22681445.168
       220.000         169.000
  -1135007.81249   -878364.61647  20827542.712    20827541.549    20827552.811
       240.000         207.000
   -664082.60049   -513177.45047  22190674.956    22190674.282    22190687.022
       234.000         193.000
  -6410641.19949  -4979055.94345  23186391.043    23186391.255    23186410.729
       216.000         157.000
  -2194633.47049  -1700181.98347  20040638.206    20040636.979    20040648.325
       231.000         202.000
   2660170.52149   2065887.48946  21789275.277    21789273.734    21789287.345
       231.000         187.000
  -6563044.80849  -5086426.23545  23554598.575    23554597.896    23554611.679
       218.000         159.000
    796355.77549    620268.53345  23985679.954    23985678.966    23985695.739
       216.000         162.000
   3616662.47849   2806899.03045  24597071.353    24597069.821    24597088.267
       206.000         143.000
 00  4 19 15 36 59.9980000  0  9G27G 2G26G 4G 7G 8G 9G11G13
   3262953.59249   2535673.68946  22695260.134    22695258.480    22695274.762
       220.000         168.000
  -1150848.26949   -890707.88347  20824528.437    20824527.258    20824538.508
       240.000         206.000
   -661738.87549   -511351.25447  22191121.031    22191120.367    22191133.141
       233.000         193.000
  -6544356.24849  -5083249.32845  23160945.777    23160945.989    23160965.411
       216.000         157.000
  -2224551.82549  -1723495.01047  20034944.928    20034943.719    20034955.076
       230.000         202.000
   2723220.16949   2115016.84746  21801273.447    21801271.892    21801285.502
       231.000         187.000
  -6689901.99349  -5185275.98845  23530458.483    23530457.837    23530471.481
       219.000         157.000
    826108.84449    643452.68645  23991341.878    23991340.861    23991357.614
       215.000         159.000
   3689458.86249   2863623.11545  24610924.378    24610922.796    24610941.341
       210.000         143.000
 00  4 19 15 37 29.9980000  0  9G27G 2G26G 4G 7G 8G 9G11G13
   3335836.72649   2592465.38446  22709129.650    22709127.948    22709144.309
       219.000         168.000
  -1166570.48249   -902959.00747  20821536.623    20821535.461    20821546.710
       240.000         206.000
   -658969.84649   -509193.65747  22191648.048    22191647.372    22191660.165
       233.000         192.000
  -6678061.88449  -5187435.37245  23135502.244    23135502.499    23135521.896
       216.000         157.000
  -2254045.20849  -1746476.88747  20029332.517    20029331.326    20029342.692
       231.000         202.000
   2786546.67849   2164361.94346  21813324.247    21813322.709    21813336.337
       231.000         187.000
  -6816678.31449  -5284062.72345  23506333.775    23506333.084    23506346.666
       219.000         159.000
    856226.39249    666920.84345  23997073.165    23997072.112    23997088.887
       215.000         160.000
   3762116.81949   2920239.32745  24624750.938    24624749.406    24624768.102
       209.000         142.000
 00  4 19 15 37 59.9980000  0  9G27G 2G26G 4G 7G 8G 9G11G13
   3408939.90149   2649428.53646  22723041.003    22723039.293    22723055.743
       218.000         167.000
  -1182187.00449   -915127.77747  20818564.952    20818563.794    20818575.045
       241.000         206.000
   -655752.33849   -506686.58947  22192260.361    22192259.724    22192272.496
       233.000         192.000
  -6811748.68049  -5291606.77245  23110062.383    23110062.582    23110081.932
       216.000         157.000
  -2283085.43749  -1769105.65247  20023806.351    20023805.179    20023816.543
       231.000         202.000
   2850170.55649   2213938.76446  21825431.678    21825430.111    21825443.774
       231.000         186.000
  -6943343.66449  -5382762.99845  23482230.212    23482229.507    23482243.014
       218.000         160.000
    886740.44849    690697.98045  24002879.876    24002878.824    24002895.584
       214.000         158.000
   3834654.94249   2976762.16945  24638554.738    24638553.172    24638572.092
       208.000         142.000
 00  4 19 15 38 29.9980000  0  9G27G 2G26G 4G 7G 8G 9G11G13
   3482258.24849   2706559.35046  22736993.316    22736991.604    22737008.092
       218.000         167.000
  -1197726.25049   -927236.32847  20815607.997    20815606.833    20815618.081
       240.000         207.000
   -652098.83749   -503839.78547  22192955.623    22192955.017    22192967.833
       234.000         193.000
  -6945443.11549  -5395784.11745  23084621.135    23084621.269    23084640.540
       216.000         158.000
  -2311691.60349  -1791396.19147  20018362.862    20018361.655    20018372.999
       231.000         202.000
   2914083.63449   2263740.93546  21837594.129    21837592.556    21837606.272
       231.000         186.000
  -7069905.52049  -5481382.65945  23458146.301    23458145.629    23458159.079
       220.000         161.000
    917643.57249    714778.29545  24008760.579    24008759.546    24008776.280
       214.000         158.000
   3907052.02149   3033175.11845  24652331.630    24652330.213    24652349.173
       206.000         141.000
 00  4 19 15 38 59.9980000  0  9G27G 2G26G 4G 7G 8G 9G11G13
   3555801.00849   2763865.03746  22750988.306    22750986.582    22751003.152
       219.000         165.000
  -1213143.48349   -939249.80547  20812674.224    20812673.081    20812684.341
       240.000         207.000
   -647993.46149   -500640.87047  22193736.956    22193736.337    22193749.188
       233.000         193.000
  -7079141.51849  -5499964.57545  23059179.123    23059179.200    23059198.367
       218.000         159.000
  -2339872.26449  -1813355.16747  20013000.298    20012999.088    20013010.413
       231.000         202.000
   2978306.83149   2313784.76246  21849815.624    21849814.026    21849827.822
       229.000         185.000
  -7196347.62249  -5579908.98845  23434085.152    23434084.508    23434097.964
       219.000         161.000
    948966.54349    739185.75745  24014721.232    24014720.162    24014736.921
       215.000         160.000
   3979325.78249   3089491.96445  24666085.192    24666083.741    24666102.828
       210.000         141.000
 00  4 19 15 39 29.9980000  0  9G27G 2G26G 4G 7G 8G 9G11G13
   3629564.51349   2821342.71746  22765025.384    22765023.591    22765040.193
       217.000         164.000
  -1228418.23649   -951152.25747  20809767.640    20809766.451    20809777.718
       241.000         207.000
   -643439.94149   -497092.76047  22194603.557    22194602.928    22194615.825
       234.000         193.000
  -7212836.28849  -5604142.18345  23033737.833    23033737.872    23033756.871
       217.000         159.000
  -2367650.26749  -1835000.38347  20007714.325    20007713.118    20007724.457
       231.000         202.000
   3042815.35449   2364050.93646  21862091.369    21862089.761    21862103.632
       230.000         184.000
  -7322682.57049  -5678351.82145  23410044.380    23410043.726    23410057.256
       219.000         162.000
    980716.97949    763926.30245  24020763.336    24020762.170    24020778.983
       215.000         161.000
   4051471.53649   3145709.07345  24679814.361    24679812.885    24679832.110
       209.000         143.000
 00  4 19 15 39 59.9980000  0  9G27G 2G26G 4G 7G 8G 9G11G13
   3703558.24749   2878999.80546  22779106.154    22779104.385    22779121.082
       217.000         164.000
  -1243559.57549   -962950.75247  20806886.444    20806885.229    20806896.477
       240.000         207.000
   -638439.56249   -493196.44247  22195555.243    22195554.560    22195567.480
       234.000         192.000
  -7346513.96549  -5708306.48445  23008299.770    23008299.739    23008318.692
       216.000         158.000
  -2395067.19149  -1856364.23447  20002497.095    20002495.874    20002507.185
       232.000         202.000
   3107584.88549   2414520.48146  21874416.764    21874415.170    21874429.101
       230.000         184.000
  -7448928.66649  -5776725.39046  23386020.623    23386019.917    23386033.537
       219.000         163.000
   1012877.83049    788986.64745  24026883.506    24026882.291    24026899.112
       215.000         161.000
   4123474.57249   3201814.96345  24693516.433    24693514.893    24693534.163
       208.000         140.000
 00  4 19 15 40 29.9980000  0  9G27G 2G26G 4G 7G 8G 9G11G13
   3777833.31249   2936876.09146  22793240.540    22793238.751    22793255.468
       218.000         164.000
  -1258513.61349   -974603.29747  20804040.867    20804039.633    20804050.892
       241.000         207.000
   -632949.68549   -488918.70147  22196600.039    22196599.339    22196612.290
       235.000         193.000
  -7480119.62849  -5812414.66245  22982875.403    22982875.317    22982894.169
       216.000         159.000
  -2422097.72949  -1877427.00047  19997353.457    19997352.189    19997363.439
       232.000         202.000
   3172656.18449   2465225.17446  21886799.603    21886798.014    21886812.018
       229.000         184.000
  -7575043.66349  -5874996.81046  23362021.812    23362021.077    23362034.708
       220.000         163.000
   1045500.31249    814406.74745  24033091.296    24033090.163    24033106.945
       214.000         156.000
   4195371.15749   3257837.91445  24707198.202    24707196.717    24707216.103
       207.000         139.000
 00  4 19 15 40 59.9980000  0  9G27G 2G26G 4G 7G 8G 9G11G13
   3852336.52649   2994930.16846  22807418.306    22807416.541    22807433.295
       218.000         164.000
  -1273323.07549   -986143.18647  20801222.810    20801221.554    20801232.809
       240.000         208.000
   -627011.69249   -484291.77947  22197730.091    22197729.392    22197742.332
       234.000         192.000
  -7613666.28149  -5916476.83945  22957462.203    22957462.120    22957480.922
       217.000         158.000
  -2448785.05349  -1898222.33247  19992275.111    19992273.806    19992285.031
       231.000         202.000
   3237974.57049   2516122.39946  21899229.473    21899227.874    21899241.920
       228.000         183.000
  -7701075.38549  -5973203.34246  23338038.840    23338038.122    23338051.679
       221.000         164.000
   1078541.87649    840153.39245  24039378.861    24039377.805    24039394.625
       213.000         158.000
   4267117.98149   3313744.19245  24720851.489    24720850.042    24720869.305
       206.000         140.000
 00  4 19 15 41 29.9980000  0  9G27G 2G26G 4G 7G 8G 9G11G13
   3927042.01249   3053141.85946  22821634.625    22821632.832    22821649.602
       217.000         163.000
  -1288027.67249   -997601.36847  20798424.698    20798423.428    20798434.669
       241.000         207.000
   -620651.15249   -479335.58947  22198940.525    22198939.836    22198952.756
       234.000         192.000
  -7747157.31649  -6020495.68145  22932059.603    22932059.541    22932078.217
       216.000         159.000
  -2475138.50549  -1918757.50847  19987260.153    19987258.907    19987270.140
       231.000         202.000
   3303506.66549   2567186.15846  21911699.968    21911698.381    21911712.471
       228.000         182.000
  -7827034.79249  -6071353.51146  23314069.604    23314068.867    23314082.437
       221.000         165.000
   1111968.36749    866200.03645  24045739.802    24045738.727    24045755.537
       214.000         157.000
   4338695.98149   3369518.86545  24734472.468    24734471.109    24734490.627
       211.000         138.000
 00  4 19 15 41 59.9980000  0  9G27G 2G26G 4G 7G 8G 9G11G13
   4001924.86349   3111491.74945  22835884.687    22835882.854    22835899.734
       217.000         162.000
  -1302658.32449  -1009001.92547  20795640.640    20795639.360    20795650.607
       241.000         207.000
   -613893.02949   -474069.61247  22200226.625    22200225.949    22200238.843
       234.000         192.000
  -7880620.74349  -6124492.98045  22906662.204    22906662.153    22906680.776
       218.000         160.000
  -2501163.37249  -1939036.63647  19982307.830    19982306.563    19982317.817
       231.000         202.000
   3369240.85749   2618407.40846  21924208.904    21924207.343    21924221.487
       227.000         181.000
  -7952924.12849  -6169449.05646  23290113.675    23290112.945    23290126.545
       221.000         166.000
   1145747.54349    892521.47545  24052167.733    24052166.693    24052183.490
       215.000         149.000
   4410095.60549   3425154.61545  24748059.580    24748058.181    24748077.696
       207.000         138.000
 00  4 19 15 42 29.9980000  0  9G27G 2G26G 4G 7G 8G 9G11G13
   4076969.73949   3169967.89645  22850165.576    22850163.715    22850180.640
       218.000         161.000
  -1317207.83449  -1020339.25647  20792871.951    20792870.718    20792881.982
       240.000         208.000
   -606752.86749   -468505.94247  22201585.395    22201584.744    22201597.656
       234.000         193.000
  -8014077.46449  -6228485.05445  22881266.097    22881266.058    22881284.659
       216.000         159.000
  -2526843.28249  -1959046.96547  19977421.177    19977419.874    19977431.095
       232.000         202.000
   3435164.01949   2669775.88846  21936753.851    21936752.289    21936766.451
       227.000         181.000
  -8078745.18049  -6267491.39146  23266170.789    23266170.025    23266183.641
       222.000         166.000
   1179871.50249    919111.66845  24058661.368    24058660.304    24058676.912
       214.000         154.000
   4481311.63649   3480647.26645  24761611.829    24761610.434    24761630.215
       209.000         135.000
 00  4 19 15 42 59.9980000  0  9G27G 2G26G 4G 7G 8G 9G11G13
   4152190.04249   3228580.72545  22864479.833    22864477.966    22864494.919
       217.000         161.000
  -1331645.81349  -1031589.68547  20790124.521    20790123.304    20790134.592
       241.000         208.000
   -599219.04849   -462635.53647  22203019.094    22203018.438    22203031.357
       234.000         192.000
  -8147513.12549  -6332460.71245  22855874.036    22855873.996    22855892.523
       217.000         161.000
  -2552140.37049  -1978758.99747  19972607.306    19972606.011    19972617.238
       231.000         201.000
   3501290.88949   2721303.11546  21949337.572    21949336.000    21949350.186
       228.000         181.000
  -8204475.34649  -6365462.91546  23242245.217    23242244.398    23242258.013
       222.000         167.000
   1214330.91849    945963.15645  24065218.890    24065217.805    24065234.457
       214.000         153.000
   4552364.68249   3536012.94145  24775133.037    24775131.625    24775151.324
       210.000         138.000
 00  4 19 15 43 29.9980000  0  9G27G 2G26G 4G 7G 8G 9G11G13
   4227585.00849   3287329.67445  22878827.320    22878825.463    22878842.465
       217.000         160.000
  -1345964.22549  -1042746.95047  20787399.890    20787398.654    20787409.970
       241.000         208.000
   -591297.35449   -456462.89247  22204526.612    22204525.942    22204538.887
       234.000         191.000
  -8280944.62649  -6436433.10545  22830482.753    22830482.719    22830501.234
       216.000         161.000
  -2577054.81749  -1998172.87147  19967866.226    19967864.975    19967876.198
       231.000         202.000
   3567626.05149   2772992.63546  21961960.914    21961959.327    21961973.572
       227.000         180.000
  -8330102.21949  -6463353.93846  23218339.271    23218338.401    23218352.057
       222.000         168.000
   1249113.35049    973066.42545  24071837.642    24071836.594    24071853.299
       209.000         150.000
   4623251.58549   3591249.13645  24788622.560    24788621.142    24788641.219
       209.000         138.000
 00  4 19 15 43 59.9980000  0  9G27G 2G26G 4G 7G 8G 9G11G13
   4303193.56249   3346245.03845  22893215.427    22893213.581    22893230.689
       214.000         161.000
  -1360111.33949  -1053770.72547  20784707.842    20784706.595    20784717.928
       241.000         208.000
   -582957.68549   -449964.55747  22206113.687    22206113.007    22206125.936
       234.000         191.000
  -8414340.16749  -6540377.47345  22805098.302    22805098.281    22805116.783
       217.000         160.000
  -2601548.93949  -2017259.21847  19963205.217    19963203.941    19963215.145
       231.000         202.000
   3634216.98449   2824881.45346  21974632.868    21974631.303    21974645.630
       227.000         180.000
  -8455597.88249  -6561142.72546  23194458.216    23194457.358    23194471.063
       221.000         168.000
   1284251.22649   1000446.53945  24078524.000    24078523.049    24078539.961
       210.000         152.000
   4693986.00349   3646366.55245  24802083.202    24802081.787    24802101.874
       206.000         137.000
 00  4 19 15 44 29.9980000  0  9G27G 2G26G 4G 7G 8G 9G11G13
   4378970.43649   3405291.56045  22907635.588    22907633.723    22907650.977
       215.000         161.000
  -1374124.10649  -1064689.81947  20782041.377    20782040.117    20782051.455
       241.000         208.000
   -574253.76249   -443182.38247  22207770.127    22207769.407    22207782.329
       234.000         191.000
  -8547734.34949  -6644320.78145  22779714.062    22779714.081    22779732.551
       218.000         161.000
  -2625668.66549  -2036053.82647  19958615.410    19958614.135    19958625.369
       231.000         202.000
   3701024.80549   2876939.27346  21987346.133    21987344.573    21987358.982
       226.000         179.000
  -8581000.27349  -6658858.82546  23170594.835    23170594.039    23170607.775
       222.000         169.000
   1319704.08349   1028072.17445  24085270.431    24085269.503    24085286.367
       211.000         148.000
   4764505.50849   3701316.44945  24815502.909    24815501.520    24815521.812
       206.000         137.000
 00  4 19 15 44 59.9980000  0  9G27G 2G26G 4G 7G 8G 9G11G13
   4454918.93049   3464471.79645  22922088.364    22922086.544    22922103.923
       216.000         160.000
  -1388004.92949  -1075506.10147  20779400.016    20779398.733    20779410.083
       241.000         208.000
   -565170.36149   -436104.51147  22209498.664    22209497.974    22209510.905
       233.000         191.000
  -8681104.76649  -6748245.57445  22754334.424    22754334.435    22754352.870
       220.000         162.000
  -2649416.14249  -2054558.37847  19954096.369    19954095.136    19954106.390
       231.000         202.000
   3768066.74549   2929179.50646  22000103.899    22000102.380    22000116.875
       226.000         180.000
  -8706286.86049  -6756484.68846  23146753.488    23146752.771    23146766.537
       222.000         168.000
   1355478.14249   1055948.05045  24092078.066    24092077.027    24092093.849
       212.000         146.000
   4834818.06649   3756105.13945  24828883.098    24828881.935    24828902.228
       211.000         138.000
 00  4 19 15 45 29.9980000  0  9G27G 2G26G 4G 7G 8G 9G11G13
   4531049.47949   3523793.90745  22936575.773    22936573.991    22936591.473
       212.000         160.000
  -1401741.61949  -1086210.06447  20776786.067    20776784.783    20776796.151
       241.000         208.000
   -555689.48749   -428716.92247  22211302.823    22211302.194    22211315.140
       233.000         191.000
  -8814431.88749  -6852136.62145  22728963.008    22728963.047    22728981.381
       220.000         162.000
  -2672795.14449  -2072775.80047  19949647.527    19949646.288    19949657.528
       231.000         202.000
   3835352.73149   2981609.91846  22012908.148    22012906.639    22012921.211
       226.000         179.000
  -8831450.91949  -6854015.08846  23122935.544    23122934.837    23122948.596
       222.000         169.000
   1391610.22349   1084102.92245  24098953.790    24098952.751    24098969.361
       211.000         145.000
   4904934.59849   3810741.05045  24842226.289    24842224.938    24842245.324
       206.000         136.000
 00  4 19 15 45 59.9980000  0  9G27G 2G26G 4G 7G 8G 9G11G13
   4607370.56549   3583264.46445  22951099.358    22951097.663    22951115.304
       214.000         160.000
  -1415335.98749  -1096803.12847  20774199.185    20774197.912    20774209.290
       241.000         208.000
   -545804.26449   -421014.26547  22213184.006    22213183.350    22213196.316
       233.000         191.000
  -8947711.48849  -6955990.65545  22703600.608    22703600.631    22703618.969
       218.000         162.000
  -2695810.42949  -2090709.81047  19945267.869    19945266.625    19945277.857
       231.000         201.000
   3902877.35349   3034226.25646  22025757.831    22025756.317    22025770.925
       226.000         179.000
  -8956504.12249  -6951459.11046  23099138.691    23099138.005    23099151.775
       223.000         169.000
   1428111.52549   1112545.46045  24105899.659    24105898.731    24105915.250
       211.000         145.000
   4974852.01749   3865221.85445  24855531.295    24855529.854    24855550.340
       207.000         136.000
 00  4 19 15 46 29.9980000  0  9G27G 2G26G 4G 7G 8G 9G11G13
   4683894.27549   3642892.92745  22965661.590    22965659.881    22965677.614
       215.000         161.000
  -1428777.25849  -1107276.89147  20771641.432    20771640.164    20771651.557
       241.000         208.000
   -535474.48449   -412965.19447  22215149.772    22215149.107    22215162.105
       234.000         191.000
  -9080917.76249  -7059787.53645  22678252.097    22678252.159    22678270.520
       219.000         162.000
  -2718446.98049  -2108348.69747  19940960.321    19940959.068    19940970.254
       231.000         201.000
   3970641.88249   3087029.54046  22038653.186    22038651.654    22038666.320
       226.000         178.000
  -9081414.09649  -7048791.51846  23075369.045    23075368.404    23075382.209
       222.000         169.000
   1465015.74749   1141301.99845  24112922.403    24112921.402    24112937.788
       212.000         145.000
   5044613.07549   3919580.78545  24868806.675    24868805.380    24868825.848
       205.000         134.000
 00  4 19 15 46 59.9980000  0  9G27G 2G26G 4G 7G 8G 9G11G13
   4760565.66649   3702636.45045  22980251.894    22980250.225    22980268.048
       216.000         159.000
  -1442127.41649  -1117679.65047  20769100.987    20769099.752    20769111.151
       241.000         208.000
   -524741.84749   -404602.20347  22217192.276    22217191.576    22217204.561
       234.000         191.000
  -9214106.82049  -7163571.01145  22652906.915    22652906.974    22652925.280
       220.000         161.000
  -2740780.09249  -2125751.13647  19936710.491    19936709.245    19936720.403
       232.000         201.000
   4038587.20249   3139973.69946  22051582.885    22051581.381    22051596.128
       226.000         179.000
  -9206243.83849  -7146061.41946  23051614.712    23051614.064    23051627.890
       222.000         170.000
   1502269.68449   1170330.97745  24120011.434    24120010.586    24120027.051
       208.000         145.000
   5114163.08549   3973775.28845  24882041.983    24882040.656    24882060.894
       211.000         135.000
 00  4 19 15 47 29.9980000  0  9G27G 2G26G 4G 7G 8G 9G11G13
   4837414.04449   3762517.87645  22994875.984    22994874.307    22994892.253
       216.000         160.000
  -1455371.93449  -1128000.09447  20766580.676    20766579.449    20766590.862
       241.000         208.000
   -513599.51849   -395919.98747  22219312.709    22219311.976    22219325.035
       234.000         191.000
  -9347255.87949  -7267323.32245  22627569.401    22627569.433    22627587.635
       219.000         162.000
  -2762786.69549  -2142899.15647  19932522.712    19932521.497    19932532.699
       230.000         201.000
   4106734.87549   3193075.51746  22064551.166    22064549.625    22064564.414
       226.000         179.000
  -9330974.93949  -7243254.47546  23027879.220    23027878.531    23027892.320
       224.000         170.000
   1539890.73449   1199645.99945  24127170.574    24127169.643    24127186.083
       212.000         151.000
   5183515.50149   4027815.81345  24895239.669    24895238.333    24895258.730
       206.000         135.000
 00  4 19 15 47 59.9980000  0  9G27G 2G26G 4G 7G 8G 9G11G13
   4914465.63249   3822557.65845  23009538.717    23009537.035    23009555.048
       216.000         160.000
  -1468500.98049  -1138230.56647  20764082.332    20764081.108    20764092.528
       241.000         208.000
   -502025.70149   -386901.53647  22221515.211    22221514.465    22221527.563
       233.000         190.000
  -9480330.62449  -7371017.70145  22602245.928    22602246.006    22602264.180
       218.000         162.000
  -2784428.55149  -2159762.95947  19928404.439    19928403.200    19928414.406
       232.000         201.000
   4175121.50349   3246363.55246  22077564.923    22077563.348    22077578.192
       226.000         179.000
  -9455556.22849  -7340330.79046  23004172.186    23004171.498    23004185.246
       224.000         172.000
   1577895.12549   1229259.75345  24134402.574    24134401.668    24134418.051
       209.000         144.000
   5252699.79749   4081725.35845  24908405.329    24908403.933    24908424.362
       201.000         134.000
 00  4 19 15 48 29.9980000  0  9G27G 2G26G 4G 7G 8G 9G11G13
   4991705.25049   3882743.93145  23024237.275    23024235.530    23024253.652
       216.000         161.000
  -1481532.50749  -1148385.03947  20761602.553    20761601.334    20761612.756
       241.000         208.000
   -490030.89049   -377555.03547  22223797.849    22223797.083    22223810.197
       232.000         189.000
  -9613329.76549  -7474653.19045  22576936.906    22576936.965    22576955.062
       221.000         162.000
  -2805713.74949  -2176348.84847  19924354.086    19924352.805    19924363.968
       231.000         201.000
   4243752.18949   3299841.73946  22090625.122    22090623.523    22090638.460
       226.000         178.000
  -9579977.31049  -7437282.26646  22980495.622    22980494.917    22980508.669
       224.000         172.000
   1616263.52349   1259157.14045  24141703.926    24141702.963    24141719.353
       213.000         152.000
   5321707.10549   4135496.99245  24921537.072    24921535.874    24921556.353
       201.000         134.000
 00  4 19 15 48 59.9980000  0  8G27G 2G26G 4G 7G 8G 9G11
   5069124.86649   3943070.46745  23038970.202    23038968.353    23038986.542
       214.000         160.000
  -1494465.29749  -1158462.57347  20759141.569    20759140.348    20759151.750
       241.000         207.000
   -477651.28349   -367908.70547  22226153.694    22226152.930    22226166.064
       234.000         190.000
  -9746255.29349  -7578231.33346  22551641.887    22551641.978    22551659.873
       219.000         163.000
  -2826652.16949  -2192664.52047  19920369.647    19920368.368    19920379.560
       231.000         201.000
   4312625.49849   3353508.99146  22103731.508    22103729.884    22103744.867
       226.000         179.000
  -9704246.43549  -7534115.34146  22956847.989    22956847.250    22956861.053
       224.000         172.000
   1654960.50049   1289310.52145  24149067.947    24149066.903    24149083.232
       212.000         149.000
 00  4 19 15 49 29.9980000  0  8G27G 2G26G 4G 7G 8G 9G11
   5146701.74049   4003519.52445  23053732.926    23053731.056    23053749.372
       215.000         160.000
  -1507302.69749  -1168465.77847  20756698.709    20756697.501    20756708.919
       241.000         207.000
   -464910.20049   -357980.70547  22228578.360    22228577.581    22228590.704
       233.000         190.000
  -9879108.47549  -7681753.09046  22526360.609    22526360.670    22526378.488
       218.000         164.000
  -2847241.59449  -2208708.25147  19916451.579    19916450.324    19916461.561
       231.000         201.000
   4381722.16749   3407350.28146  22116880.403    22116878.731    22116893.792
       225.000         178.000
  -9828371.12349  -7630835.86946  22933227.770    22933227.086    22933240.954
       223.000         171.000
   1693962.96449   1319702.01045  24156489.711    24156488.814    24156505.025
       208.000         142.000
 00  4 19 15 49 59.9980000  0  8G27G 2G26G 4G 7G 8G 9G11
   5224425.53649   4064083.07445  23068523.632    23068521.714    23068540.129
       214.000         159.000
  -1520015.53149  -1178371.91647  20754279.616    20754278.374    20754289.793
       241.000         208.000
   -451794.24449   -347760.60147  22231074.325    22231073.555    22231086.698
       233.000         190.000
 -10011884.94849  -7785215.09346  22501093.953    22501093.989    22501111.738
       221.000         163.000
  -2867484.37649  -2224481.86847  19912599.515    19912598.255    19912609.529
       231.000         202.000
   4451037.55349   3461362.00046  22130070.905    22130069.205    22130084.298
       225.000         178.000
  -9952349.49449  -7727442.37746  22909635.441    22909634.768    22909648.706
       223.000         171.000
   1733269.72049   1350330.53245  24163969.437    24163968.590    24163984.996
       210.000         150.000
 00  4 19 15 50 29.9980000  0  8G27G 2G26G 4G 7G 8G 9G11
   5302292.18049   4124757.93045  23083341.566    23083339.600    23083358.037
       214.000         159.000
  -1532565.51349  -1188151.16147  20751891.454    20751890.214    20751901.652
       241.000         207.000
   -438314.52649   -337257.03647  22233639.540    22233638.751    22233651.898
       233.000         190.000
 -10144578.17749  -7888612.21846  22475843.107    22475843.131    22475860.858
       220.000         164.000
  -2887383.95849  -2239988.05847  19908812.761    19908811.508    19908822.803
       231.000         202.000
   4520553.38549   3515529.91246  22143299.571    22143297.841    22143312.981
       226.000         177.000
 -10076192.04249  -7823943.05846  22886068.985    22886068.310    22886082.287
       224.000         172.000
   1772876.30849   1381192.74345  24171506.417    24171505.516    24171522.086
       210.000         152.000
 00  4 19 15 50 59.9980000  0  8G27G 2G26G 4G 7G 8G 9G11
   5380273.61449   4185522.24345  23098181.284    23098179.284    23098197.844
       213.000         158.000
  -1544953.64049  -1197804.27547  20749534.116    20749532.866    20749544.310
       241.000         207.000
   -424500.57149   -326493.03647  22236268.340    22236267.545    22236280.673
       233.000         190.000
 -10277204.34349  -7991957.08246  22450605.050    22450605.071    22450622.770
       220.000         165.000
  -2906946.62249  -2255231.71347  19905090.192    19905088.884    19905100.200
       232.000         202.000
   4590245.07649   3569834.86246  22156561.707    22156559.935    22156575.095
       225.000         176.000
 -10199915.83249  -7920351.17846  22862525.110    22862524.420    22862538.444
       223.000         173.000
   1812775.59449   1412283.03945  24179099.090    24179098.185    24179114.761
       208.000         149.000
 00  4 19 15 51 29.9980000  0  8G27G 2G26G 4G 7G 8G 9G11
   5458387.71549   4246389.90645  23113046.295    23113044.257    23113062.908
       213.000         158.000
  -1557180.77249  -1207331.94747  20747207.411    20747206.153    20747217.590
       241.000         207.000
   -410330.72349   -315451.70747  22238964.926    22238964.086    22238977.216
       233.000         190.000
 -10409748.85749  -8095238.32946  22425382.513    22425382.532    22425400.202
       222.000         165.000
  -2926166.47749  -2270208.23747  19901432.850    19901431.519    19901442.835
       232.000         202.000
   4660127.82749   3624288.68346  22169860.218    22169858.412    22169873.607
       225.000         177.000
 -10323510.04149  -8016658.32846  22839005.832    22839005.216    22839019.222
       223.000         172.000
   1852996.73949   1443624.11645  24186753.033    24186752.045    24186768.747
       208.000         149.000
 00  4 19 15 51 59.9980000  0  8G27G 2G26G 4G 7G 8G 9G11
   5536636.09449   4307362.20745  23127936.829    23127934.772    23127953.509
       213.000         156.000
  -1569260.54149  -1216744.79247  20744908.775    20744907.500    20744918.938
       241.000         208.000
   -395808.67649   -304135.94747  22241728.510    22241727.655    22241740.811
       234.000         190.000
 -10542225.02749  -8198466.33246  22400172.965    22400173.005    22400190.594
       222.000         164.000
  -2945057.32149  -2284928.39447  19897838.060    19897836.735    19897848.061
       231.000         202.000
   4730190.70949   3678882.86246  22183192.948    22183191.144    22183206.392
       224.000         177.000
 -10446978.18949  -8112867.23646  22815510.603    22815509.995    22815523.984
       225.000         172.000
   1893540.12249   1475216.32645  24194468.361    24194467.297    24194483.879
       209.000         149.000
 00  4 19 15 52 29.9980000  0  8G27G 2G26G 4G 7G 8G 9G11
   5615050.30049   4368463.73045  23142858.925    23142856.805    23142875.657
       212.000         155.000
  -1581201.71949  -1226049.64347  20742636.512    20742635.197    20742646.663
       241.000         208.000
   -380919.42949   -292534.05047  22244562.004    22244561.101    22244574.270
       234.000         191.000
 -10674600.47749  -8301615.84446  22374982.611    22374982.635    22375000.196
       221.000         165.000
  -2963601.53049  -2299378.44447  19894309.240    19894307.913    19894319.235
       232.000         202.000
   4800455.56249   3733634.42246  22196564.083    22196562.281    22196577.650
       224.000         176.000
 -10570288.68049  -8208953.29946  22792045.429    22792044.809    22792058.758
       224.000         173.000
   1934437.40149   1507084.31045  24202250.833    24202249.807    24202266.342
       203.000         142.000
 00  4 19 15 52 59.9980000  0  8G27G 2G26G 4G 7G 8G 9G11
   5693629.44249   4429693.75845  23157812.380    23157810.259    23157829.209
       212.000         154.000
  -1593048.59049  -1235281.00947  20740382.179    20740380.859    20740392.341
       241.000         208.000
   -365661.94949   -280645.22047  22247465.525    22247464.610    22247477.811
       234.000         191.000
 -10806886.20649  -8404695.44146  22349809.372    22349809.363    22349826.907
       223.000         167.000
  -2981820.67849  -2313575.19747  19890842.290    19890840.939    19890852.245
       233.000         203.000
   4870914.86049   3788537.48946  22209972.271    22209970.466    22209985.890
       225.000         176.000
 -10693454.04049  -8304926.26846  22768607.906    22768607.208    22768621.092
       224.000         172.000
   1975676.29049   1539218.42545  24210098.230    24210097.268    24210113.861
       205.000         145.000
 00  4 19 15 53 29.9980000  0  8G27G 2G26G 4G 7G 8G 9G11
   5772374.46649   4491053.05245  23172797.433    23172795.307    23172814.387
       211.000         154.000
  -1604818.83249  -1244452.66447  20738142.430    20738141.099    20738152.609
       241.000         208.000
   -350036.78049   -268469.88447  22250438.999    22250438.076    22250451.330
       234.000         190.000
 -10939094.42449  -8507714.65146  22324650.910    22324650.885    22324668.340
       224.000         167.000
  -2999742.97349  -2327540.63347  19887431.868    19887430.477    19887441.760
       232.000         203.000
   4941545.31649   3843573.93546  22223413.000    22223411.203    22223426.653
       225.000         175.000
 -10816488.06349  -8400796.89346  22745195.301    22745194.564    22745208.417
       224.000         173.000
   2017227.60549   1571595.98545  24218005.257    24218004.242    24218020.926
       210.000         150.000
 00  4 19 15 53 59.9980000  0  8G27G 2G26G 4G 7G 8G 9G11
   5851300.38749   4552553.30245  23187816.879    23187814.772    23187833.898
       213.000         153.000
  -1616474.87549  -1253535.33447  20735924.349    20735923.053    20735934.606
       241.000         208.000
   -334027.73449   -255995.41147  22253485.557    22253484.614    22253497.891
       234.000         189.000
 -11071194.78349  -8610649.82746  22299512.961    22299512.898    22299530.251
       223.000         168.000
  -3017327.76349  -2341243.07847  19884085.623    19884084.233    19884095.483
       232.000         202.000
   5012377.30849   3898767.42046  22236892.144    22236890.319    22236905.781
       224.000         175.000
 -10939359.89049  -8496541.13446  22721813.554    22721812.807    22721826.664
       225.000         173.000
   2059122.48549   1604241.26845  24225977.697    24225976.689    24225993.304
       207.000         147.000
 00  4 19 15 54 29.9980000  0  8G27G 2G26G 4G 7G 8G 9G11
   5930368.37149   4614164.25345  23202863.406    23202861.263    23202880.428
       211.000         151.000
  -1628033.40249  -1262542.01747  20733724.835    20733723.557    20733735.127
       240.000         208.000
   -317674.62549   -243252.84347  22256597.553    22256596.618    22256609.892
       234.000         189.000
 -11203214.79649  -8713522.37646  22274390.172    22274390.177    22274407.457
       223.000         169.000
  -3034593.45749  -2354696.88447  19880800.082    19880798.694    19880809.938
       232.000         202.000
   5083398.88849   3954108.62446  22250407.279    22250405.479    22250420.954
       223.000         174.000
 -11062098.34849  -8592181.45446  22698457.196    22698456.451    22698470.318
       224.000         172.000
   2101333.55249   1637132.93245  24234010.197    24234009.197    24234025.865
       209.000         145.000
 00  4 19 15 54 59.9980000  0  8G27G 2G26G 4G 7G 8G 9G11
   6009570.09149   4675879.40745  23217935.275    23217933.187    23217952.441
       210.000         152.000
  -1639468.92449  -1271452.84947  20731548.777    20731547.481    20731559.063
       241.000         208.000
   -300978.37049   -230242.88947  22259774.835    22259773.893    22259787.163
       234.000         188.000
 -11335165.51849  -8816340.94746  22249280.680    22249280.661    22249297.861
       223.000         168.000
  -3051526.78849  -2367891.70047  19877577.814    19877576.417    19877587.645
       233.000         203.000
   5154619.39749   4009604.82846  22263960.271    22263958.485    22263974.047
       224.000         174.000
 -11184708.71949  -8687721.95846  22675125.214    22675124.459    22675138.354
       224.000         174.000
   2143855.92349   1670267.14545  24242101.987    24242100.992    24242117.792
       207.000         148.000
 00  4 19 15 55 29.9970000  0  8G27G 2G26G 4G 7G 8G 9G11
   6088909.04149   4737701.48345  23233033.265    23233031.200    23233050.669
       211.000         150.000
  -1650738.86849  -1280234.66747  20729404.207    20729402.921    20729414.496
       241.000         208.000
   -283929.77549   -216958.38847  22263019.138    22263018.214    22263031.489
       233.000         189.000
 -11467007.01849  -8919074.39346  22224191.891    22224191.907    22224209.073
       224.000         169.000
  -3068092.04949  -2380799.71047  19874425.584    19874424.177    19874435.403
       233.000         203.000
   5226074.19449   4065283.59246  22277557.863    22277556.083    22277571.707
       224.000         174.000
 -11307157.29449  -8783136.38746  22651823.957    22651823.228    22651837.144
       224.000         174.000
   2186716.98349   1703665.24145  24250258.215    24250257.237    24250274.061
       208.000         145.000
 00  4 19 15 55 59.9970000  0  8G27G 2G26G 4G 7G 8G 9G11
   6168364.89049   4799614.63845  23248153.529    23248151.497    23248171.052
       208.000         150.000
  -1661849.87949  -1288892.64347  20727289.888    20727288.604    20727300.197
       241.000         208.000
   -266554.28649   -203419.16447  22266325.692    22266324.763    22266338.046
       234.000         189.000
 -11598743.69149  -9021726.18146  22199123.061    22199123.076    22199140.208
       224.000         170.000
  -3084296.67749  -2393426.70947  19871341.970    19871340.578    19871351.783
       233.000         202.000
   5297758.12449   4121140.89746  22291199.094    22291197.293    22291212.971
       224.000         174.000
 -11429456.24049  -8878434.22546  22628551.192    22628550.492    22628564.383
       224.000         174.000
   2229915.61149   1737326.44345  24258478.711    24258477.752    24258494.456
       209.000         142.000
 00  4 19 15 56 29.9970000  0  8G27G 2G26G 4G 7G 8G 9G11
   6247909.26349   4861596.78145  23263290.678    23263288.675    23263308.330
       210.000         152.000
  -1672826.61549  -1297446.00047  20725201.105    20725199.830    20725211.445
       241.000         208.000
   -248864.61749   -189635.12946  22269692.080    22269691.129    22269704.401
       233.000         187.000
 -11730392.08549  -9124309.17346  22174071.061    22174071.083    22174088.195
       224.000         171.000
  -3100176.44349  -2405800.57047  19868320.193    19868318.790    19868329.957
       233.000         202.000
   5369620.72549   4177137.42746  22304874.335    22304872.511    22304888.211
       223.000         173.000
 -11551614.42849  -8973622.39146  22605305.248    22605304.537    22605318.418
       224.000         174.000
   2273394.85649   1771206.34045  24266752.660    24266751.590    24266768.168
       209.000         145.000
 00  4 19 15 56 59.9970000  0  8G27G 2G26G 4G 7G 8G 9G11
   6327561.02249   4923662.60345  23278448.287    23278446.295    23278466.014
       211.000         151.000
  -1683660.79949  -1305888.28247  20723139.496    20723138.189    20723149.841
       241.000         208.000
   -230838.85649   -175589.19546  22273122.351    22273121.419    22273134.680
       233.000         186.000
 -11861924.23649  -9226801.58846  22149041.242    22149041.227    22149058.320
       225.000         171.000
  -3115719.83649  -2417912.31947  19865362.383    19865361.007    19865372.128
       233.000         203.000
   5441651.80749   4233265.22946  22318581.612    22318579.783    22318595.532
       223.000         174.000
 -11673610.34049  -9068684.09746  22582090.154    22582089.477    22582103.337
       225.000         174.000
   2317149.42549   1805300.77145  24275078.968    24275077.885    24275094.520
       209.000         149.000
 00  4 19 15 57 29.9970000  0  8G27G 2G26G 4G 7G 8G 9G11
   6407351.22049   4985836.27845  23293632.209    23293630.208    23293650.043
       209.000         151.000
  -1694324.98849  -1314198.09447  20721110.231    20721108.898    20721120.573
       241.000         208.000
   -212448.54249   -161259.20247  22276621.984    22276621.061    22276634.382
       233.000         188.000
 -11993291.94649  -9329165.87346  22124042.753    22124042.673    22124059.763
       226.000         172.000
  -3130897.58249  -2429739.15547  19862474.194    19862472.786    19862483.911
       233.000         203.000
   5513871.98549   4289540.37846  22332324.898    22332323.042    22332338.847
       222.000         172.000
 -11795395.32549  -9163581.44846  22558915.229    22558914.497    22558928.397
       224.000         173.000
   2361207.64149   1839631.77545  24283463.066    24283461.891    24283478.703
       206.000         147.000
 00  4 19 15 57 59.9970000  0  8G27G 2G26G 4G 7G 8G 9G11
   6487254.44149   5048098.01945  23308837.639    23308835.674    23308855.597
       210.000         150.000
  -1704868.97549  -1322414.24847  20719103.827    20719102.492    20719114.193
       241.000         208.000
   -193723.70849   -146668.53846  22280185.273    22280184.375    22280197.701
       232.000         187.000
 -12124552.85049  -9431446.91446  22099064.543    22099064.461    22099081.527
       226.000         173.000
  -3145758.37649  -2441319.00647  19859646.268    19859644.888    19859656.020
       233.000         203.000
   5586226.53249   4345920.22646  22346093.652    22346091.843    22346107.741
       221.000         172.000
 -11917006.15449  -9258343.09246  22535773.473    22535772.699    22535786.561
       224.000         175.000
   2405525.45349   1874165.07845  24291896.434    24291895.268    24291912.176
       206.000         144.000
 00  4 19 15 58 29.9970000  0  8G27G 2G26G 4G 7G 8G 9G11
   6567327.06949   5110491.76345  23324075.341    23324073.307    23324093.342
       208.000         149.000
  -1715244.73949  -1330499.31747  20717129.391    20717128.077    20717139.812
       241.000         208.000
   -174598.40049   -131765.83446  22283824.802    22283823.908    22283837.268
       232.000         187.000
 -12255665.63749  -9533612.54546  22074114.500    22074114.400    22074131.516
       225.000         173.000
  -3160247.83549  -2452609.51247  19856889.059    19856887.658    19856898.769
       233.000         203.000
   5658774.65049   4402450.89146  22359899.299    22359897.484    22359913.494
       222.000         172.000
 -12038391.54849  -9352929.07346  22512674.588    22512673.824    22512687.635
       225.000         174.000
   2450152.13849   1908939.13045  24300388.578    24300387.453    24300404.318
       205.000         143.000
 00  4 19 15 58 59.9970000  0  8G27G 2G26G 4G 7G 8G 9G11
   6647541.95449   5172996.33945  23339340.014    23339338.041    23339358.292
       210.000         149.000
  -1725479.72649  -1338474.69347  20715181.784    20715180.456    20715192.217
       241.000         208.000
   -155105.57449   -116576.74246  22287534.229    22287533.348    22287546.741
       233.000         186.000
 -12386655.59149  -9635682.45746  22049187.789    22049187.703    22049204.853
       227.000         174.000
  -3174391.38749  -2463630.47547  19854197.665    19854196.256    19854207.331
       233.000         203.000
   5731518.05749   4459133.74946  22373742.178    22373740.340    22373756.407
       222.000         172.000
 -12159590.14649  -9447369.47946  22489611.252    22489610.467    22489624.281
       225.000         175.000
   2495089.18949   1943954.98645  24308939.841    24308938.755    24308955.599
       208.000         147.000
 00  4 19 15 59 29.9970000  0  8G27G 2G26G 4G 7G 8G 9G11
   6727896.92649   5235610.09245  23354631.530    23354629.463    23354649.758
       210.000         148.000
  -1735576.49049  -1346342.36247  20713260.479    20713259.153    20713270.936
       241.000         208.000
   -135239.06949   -101096.47046  22291314.727    22291313.878    22291327.309
       232.000         186.000
 -12517513.99749  -9737649.86746  22024286.168    22024286.061    22024303.182
       225.000         174.000
  -3188203.15949  -2474392.90947  19851569.388    19851567.981    19851579.057
       233.000         204.000
   5804471.07249   4515979.91946  22387624.929    22387623.063    22387639.193
       222.000         170.000
 -12280593.45749  -9541657.71146  22466585.023    22466584.260    22466598.068
       225.000         174.000
   2540362.78849   1979233.12945  24317555.255    24317554.137    24317570.981
       211.000         143.000
 00  4 19 15 59 59.9970000  0  8G27G 2G26G 4G 7G 8G 9G11
   6808382.50749   5298325.61345  23369947.864    23369945.784    23369966.170
       209.000         149.000
  -1745538.43449  -1354104.97747  20711364.856    20711363.509    20711375.294
       241.000         207.000
   -114993.71049    -85320.99946  22295167.399    22295166.522    22295179.987
       232.000         186.000
 -12648243.35749  -9839516.71746  21999409.010    21999408.940    21999426.090
       226.000         175.000
  -3201692.76549  -2484904.30947  19849002.358    19849000.993    19849012.073
       234.000         204.000
   5877619.20149   4572978.14046  22401544.807    22401542.923    22401559.110
       222.000         169.000
 -12401410.66849  -9635800.92546  22443594.238    22443593.475    22443607.265
       224.000         175.000
   2585970.25749   2014771.47745  24326234.188    24326233.029    24326249.741
       208.000         139.000
 00  4 19 16  0 29.9970000  0  8G27G 2G26G 4G 7G 8G 9G11
   6888999.95249   5361143.88545  23385289.314    23385287.152    23385307.632
       207.000         149.000
  -1755325.06249  -1361730.97047  20709502.602    20709501.227    20709513.012
       241.000         207.000
    -94356.48449    -69240.15946  22299094.748    22299093.791    22299107.260
       233.000         187.000
 -12778799.62249  -9941248.67946  21974564.861    21974564.767    21974581.932
       226.000         176.000
  -3214839.21949  -2495148.31847  19846500.685    19846499.320    19846510.404
       234.000         203.000
   5950979.59649   4630141.75246  22415505.036    22415503.161    22415519.407
       221.000         170.000
 -12522014.01149  -9729777.49046  22420644.107    22420643.386    22420657.183
       226.000         175.000
   2631932.10249   2050585.93645  24334980.471    24334979.406    24334995.949
       207.000         142.000
 00  4 19 16  0 59.9970000  0  8G27G 2G26G 4G 7G 8G 9G11
   6969737.10849   5424055.42645  23400653.502    23400651.317    23400671.869
       206.000         149.000
  -1764937.80149  -1369221.46647  20707673.415    20707672.047    20707683.801
       242.000         207.000
    -73359.02949    -52878.64246  22303090.565    22303089.604    22303103.087
       233.000         187.000
 -12909175.51849 -10042840.08846  21949755.030    21949754.930    21949772.070
       227.000         176.000
  -3227660.61349  -2505139.04247  19844060.917    19844059.530    19844070.586
       234.000         204.000
   6024523.49049   4687448.34846  22429500.218    22429498.350    22429514.634
       222.000         169.000
 -12642419.60149  -9823599.95746  22397731.642    22397730.951    22397744.725
       226.000         176.000
   2678233.05849   2086664.59945  24343791.232    24343790.208    24343806.843
       203.000         145.000
 00  4 19 16  1 29.9970000  0  8G27G 2G26G 4G 7G 8G 9G11
   7050613.18349   5487075.22945  23416044.164    23416041.938    23416062.504
       208.000         148.000
  -1774356.30249  -1376560.60747  20705881.193    20705879.814    20705891.574
       241.000         207.000
    -51996.41249    -36232.57346  22307155.827    22307154.856    22307168.387
       232.000         186.000
 -13039343.74249 -10144269.67946  21924984.695    21924984.622    21925001.694
       226.000         175.000
  -3240147.21449  -2514868.88747  19841684.816    19841683.416    19841694.497
       234.000         204.000
   6098234.65149   4744885.28746  22443527.282    22443525.379    22443541.721
       222.000         169.000
 -12762605.52549  -9917251.26346  22374861.053    22374860.333    22374874.099
       226.000         177.000
   2724873.61249   2123007.84545  24352666.539    24352665.550    24352682.385
       202.000         142.000
 00  4 19 16  1 59.9970000  0  8G27G 2G26G 4G 7G 8G 9G11
   7131619.92749   5550196.82845  23431459.705    23431457.365    23431478.011
       210.000         147.000
  -1783576.38549  -1383745.12947  20704126.709    20704125.347    20704137.098
       241.000         207.000
    -30293.48149    -19321.32846  22311285.895    22311284.899    22311298.442
       232.000         186.000
 -13169322.14949 -10245551.35446  21900250.505    21900250.433    21900267.450
       227.000         177.000
  -3252297.89749  -2524336.98647  19839372.609    19839371.219    19839382.337
       234.000         204.000
   6172094.93849   4802438.41146  22457582.685    22457580.758    22457597.206
       222.000         170.000
 -12882583.99949 -10010740.92546  22352029.944    22352029.183    22352042.956
       227.000         177.000
   2771824.27549   2159592.75345  24361601.023    24361600.028    24361616.853
       207.000         143.000
 00  4 19 16  2 29.9970000  0  8G27G 2G26G 4G 7G 8G 9G11
   7212765.49149   5613426.60345  23446901.608    23446899.277    23446919.933
       212.000         147.000
  -1792608.34549  -1390783.06747  20702407.996    20702406.655    20702418.410
       241.000         206.000
     -8262.14749     -2154.17746  22315478.375    22315477.419    22315490.983
       232.000         186.000
 -13299113.27349 -10346687.09246  21875551.934    21875551.858    21875568.864
       228.000         177.000
  -3264110.66849  -2533541.76747  19837124.749    19837123.360    19837134.474
       235.000         204.000
   6246118.74049   4860118.96346  22471669.176    22471667.254    22471683.786
       221.000         168.000
 -13002359.54449 -10104072.45846  22329237.315    22329236.606    22329250.368
       227.000         177.000
   2819072.97349   2196409.91745  24370592.244    24370591.225    24370607.969
       205.000         143.000
 00  4 19 16  2 59.9970000  0  8G27G 2G26G 4G 7G 8G 9G11
   7294078.70949   5676787.01945  23462375.307    23462373.015    23462393.817
       208.000         146.000
  -1801470.16949  -1397688.43047  20700721.687    20700720.352    20700732.120
       241.000         207.000
     14111.34849     15279.58046  22319735.996    22319735.055    22319748.661
       232.000         187.000
 -13428704.74849 -10447667.25046  21850891.388    21850891.303    21850908.252
       227.000         178.000
  -3275562.45349  -2542465.25147  19834945.583    19834944.190    19834955.265
       234.000         204.000
   6320328.84149   4917944.68346  22485791.136    22485789.229    22485805.836
       221.000         167.000
 -13121919.72849 -10197236.17746  22306485.722    22306485.018    22306498.761
       227.000         177.000
   2866632.30449   2233469.12645  24379642.530    24379641.433    24379658.214
       206.000         141.000
 00  4 19 16  3 29.9970000  0  8G27G 2G26G 4G 7G 8G 9G11
   7375579.85249   5740293.86645  23477884.887    23477882.600    23477903.492
       211.000         148.000
  -1810154.91549  -1404455.80647  20699069.100    20699067.747    20699079.513
       241.000         207.000
     36855.33249     33002.03946  22324064.089    22324063.188    22324076.807
       232.000         186.000
 -13558088.01749 -10548485.16246  21826270.464    21826270.356    21826287.252
       228.000         177.000
  -3286621.04049  -2551082.34747  19832841.224    19832839.832    19832850.914
       235.000         205.000
   6394753.92749   4975937.91846  22499954.050    22499952.109    22499968.767
       221.000         166.000
 -13241225.68249 -10290201.80046  22283782.524    22283781.802    22283795.490
       228.000         178.000
   2914519.50449   2270783.82445  24388755.130    24388754.099    24388770.912
       205.000         141.000
 00  4 19 16  3 59.9970000  0  8G27G 2G26G 4G 7G 8G 9G11
   7457237.99849   5803923.04145  23493424.344    23493422.018    23493443.030
       209.000         148.000
  -1818689.43249  -1411106.13247  20697445.060    20697443.730    20697455.499
       241.000         207.000
     59947.57849     50995.86746  22328458.399    22328457.570    22328471.228
       231.000         187.000
 -13687292.17449 -10649163.51146  21801683.618    21801683.487    21801700.352
       228.000         178.000
  -3297301.64449  -2559404.92147  19830808.824    19830807.407    19830818.517
       235.000         205.000
   6469394.67949   5034099.21546  22514157.977    22514156.019    22514172.766
       219.000         166.000
 -13360297.66249 -10382985.08946  22261123.859    22261123.117    22261136.759
       228.000         177.000
   2962710.16049   2308335.03845  24397925.407    24397924.461    24397941.255
       203.000         138.000
 00  4 19 16  4 29.9970000  0  8G27G 2G26G 4G 7G 8G 9G11
   7539025.28049   5867652.86045  23508988.344    23508986.002    23509007.084
       209.000         147.000
  -1827094.47649  -1417655.57147  20695845.671    20695844.340    20695856.136
       241.000         207.000
     83366.01149     69243.86246  22332914.855    22332914.043    22332927.738
       232.000         187.000
 -13816317.98349 -10749702.88646  21777130.660    21777130.543    21777147.365
       229.000         178.000
  -3307620.41849  -2567445.55447  19828845.242    19828843.835    19828854.964
       235.000         205.000
   6544237.28349   5092417.79346  22528400.331    22528398.343    22528415.208
       221.000         167.000
 -13479152.39749 -10475599.10646  22238506.565    22238505.800    22238519.388
       228.000         179.000
   3011185.17249   2346107.78945  24407149.892    24407148.872    24407165.648
       204.000         139.000
 00  4 19 16  4 59.9970000  0  8G27G 2G26G 4G 7G 8G 9G11
   7620929.23249   5931473.57745  23524574.535    23524572.238    23524593.387
       208.000         148.000
  -1835354.42349  -1424091.94047  20694273.872    20694272.567    20694284.376
       241.000         207.000
    107095.73049     87734.42746  22337430.591    22337429.749    22337443.469
       232.000         185.000
 -13945159.14049 -10850098.38146  21752612.855    21752612.745    21752629.511
       229.000         177.000
  -3317597.35549  -2575219.81947  19826946.714    19826945.303    19826956.434
       235.000         204.000
   6619260.67749   5150877.24246  22542677.057    22542675.083    22542692.053
       220.000         165.000
 -13597785.90549 -10568040.71246  22215931.378    22215930.579    22215944.158
       229.000         180.000
   3059949.04149   2384105.63845  24416429.404    24416428.311    24416445.207
       207.000         141.000
 00  4 19 16  5 29.9970000  0  8G27G 2G26G 4G 7G 8G 9G11
   7702985.06949   5995412.64145  23540189.678    23540187.348    23540208.609
       207.000         147.000
  -1843388.72449  -1430352.48147  20692745.047    20692743.732    20692755.566
       241.000         207.000
    131183.70949    106504.15746  22342014.502    22342013.660    22342027.361
       232.000         185.000
 -14073769.61049 -10950314.11746  21728138.940    21728138.858    21728155.549
       229.000         178.000
  -3327216.67449  -2582715.41047  19825116.217    19825114.816    19825125.937
       235.000         205.000
   6694501.40449   5209506.03146  22556995.128    22556993.155    22557010.224
       220.000         164.000
 -13716149.41749 -10660271.92246  22193407.552    22193406.735    22193420.307
       228.000         180.000
   3109039.09649   2422357.70845  24425770.920    24425769.791    24425786.727
       204.000         143.000
 00  4 19 16  5 59.9970000  0  7G27G 2G26G 4G 7G 8G 9
   7785132.59749   6059423.14445  23555822.163    23555819.897    23555841.330
       203.000         147.000
  -1851239.96649  -1436470.37847  20691251.077    20691249.747    20691261.579
       241.000         207.000
    155579.52749    125513.76346  22346656.999    22346656.118    22346669.896
       231.000         186.000
 -14202189.89849 -11050381.65646  21703701.152    21703701.134    21703717.765
       228.000         178.000
  -3336552.73549  -2589990.27547  19823339.691    19823338.266    19823349.374
       236.000         206.000
   6769905.00549   5268261.74346  22571344.227    22571342.247    22571359.402
       220.000         165.000
 -13834303.48549 -10752339.93546  22170923.524    22170922.716    22170936.261
       228.000         180.000
 00  4 19 16  6 29.9970000  0  7G27G 2G26G 4G 7G 8G 9
   7867393.51149   6123521.99945  23571476.284    23571474.046    23571495.604
       207.000         145.000
  -1858879.23849  -1442423.10747  20689797.446    20689796.106    20689807.919
       242.000         207.000
    180312.89149    144786.37946  22351363.694    22351362.811    22351376.653
       231.000         186.000
 -14330395.25149 -11150281.71746  21679304.347    21679304.317    21679320.872
       229.000         178.000
  -3345593.97649  -2597035.41347  19821619.275    19821617.831    19821628.932
       236.000         206.000
   6845476.38449   5327148.17846  22585725.299    22585723.276    22585740.470
       219.000         164.000
 -13952223.08649 -10844225.25046  22148484.078    22148483.313    22148496.852
       228.000         180.000
 00  4 19 16  6 59.9970000  0  7G27G 2G26G 4G 7G 8G 9
   7949776.84749   6187716.23945  23587153.701    23587151.489    23587173.244
       207.000         146.000
  -1866299.18249  -1448204.92947  20688385.577    20688384.185    20688396.001
       241.000         207.000
    205403.89849    164337.68346  22356138.507    22356137.572    22356151.512
       231.000         185.000
 -14458387.42949 -11250015.66946  21654948.089    21654948.076    21654964.521
       230.000         179.000
  -3354337.63649  -2603848.67347  19819955.432    19819954.000    19819965.097
       236.000         205.000
   6921223.32449   5386171.41546  22600139.706    22600137.720    22600154.913
       220.000         163.000
 -14069892.56649 -10935915.64646  22126092.302    22126091.511    22126105.050
       229.000         181.000
 00  4 19 16  7 29.9970000  0  7G27G 2G26G 4G 7G 8G 9
   8032280.34749   6252004.10545  23602853.933    23602851.791    23602873.692
       206.000         144.000
  -1873502.29149  -1453817.78447  20687014.940    20687013.535    20687025.351
       241.000         207.000
    230875.46349    184185.53446  22360985.694    22360984.744    22360998.747
       230.000         185.000
 -14586161.36249 -11349579.55846  21630633.400    21630633.357    21630649.720
       229.000         179.000
  -3362749.86349  -2610403.67347  19818354.649    19818353.221    19818364.321
       236.000         206.000
   6997170.70049   5445350.82046  22614592.292    22614590.312    22614607.495
       219.000         164.000
 -14187285.59849 -11027390.64546  22103753.174    22103752.358    22103765.827
       229.000         181.000
 00  4 19 16  7 59.9970000  0  7G27G 2G26G 4G 7G 8G 9
   8114886.39849   6316371.88745  23618573.753    23618571.541    23618593.680
       206.000         144.000
  -1880524.55649  -1459289.72447  20685678.719    20685677.303    20685689.141
       241.000         207.000
    256696.44049    204305.64746  22365899.356    22365898.401    22365912.489
       230.000         184.000
 -14713734.12949 -11448986.69746  21606356.974    21606356.939    21606373.219
       230.000         180.000
  -3370811.22349  -2616685.26747  19816820.696    19816819.240    19816830.345
       237.000         206.000
   7073302.65349   5504674.04546  22629080.062    22629078.008    22629095.282
       218.000         163.000
 -14304408.43849 -11118655.11146  22081465.389    22081464.569    22081477.980
       229.000         180.000
 00  4 19 16  8 29.9970000  0  7G27G 2G26G 4G 7G 8G 9
   8197616.77549   6380836.55845  23634317.337    23634315.031    23634337.350
       205.000         142.000
  -1887358.85649  -1464615.20147  20684378.235    20684376.830    20684388.672
       241.000         207.000
    282865.94449    224697.34246  22370879.324    22370878.380    22370892.486
       230.000         184.000
 -14841088.16249 -11548223.39946  21582122.157    21582122.143    21582138.365
       228.000         180.000
  -3378492.49149  -2622670.68047  19815358.987    19815357.568    19815368.691
       236.000         206.000
   7149634.58849   5564153.09646  22643605.871    22643603.801    22643621.113
       220.000         163.000
 -14421234.65949 -11209688.45346  22059234.046    22059233.227    22059246.528
       229.000         181.000
 00  4 19 16  8 59.9970000  0  7G27G 2G26G 4G 7G 8G 9
   8280470.28149   6445397.17145  23650084.194    23650081.954    23650104.433
       202.000         141.000
  -1894024.82449  -1469809.50947  20683109.778    20683108.377    20683120.236
       242.000         207.000
    309363.95949    245345.00846  22375921.831    22375920.873    22375935.036
       229.000         183.000
 -14968228.32349 -11647293.44146  21557928.041    21557928.018    21557944.192
       229.000         180.000
  -3385806.82949  -2628370.17347  19813967.135    19813965.723    19813976.836
       236.000         206.000
   7226158.07049   5623781.39446  22658168.114    22658166.007    22658183.378
       218.000         163.000
 -14537768.47349 -11300493.94246  22037058.335    22037057.528    22037070.770
       230.000         181.000
 00  4 19 16  9 29.9970000  0  7G27G 2G26G 4G 7G 8G 9
   8363467.37249   6510069.67245  23665878.349    23665876.183    23665898.829
       200.000         142.000
  -1900514.35549  -1474866.32847  20681874.904    20681873.502    20681885.364
       241.000         207.000
    336189.84749    266248.17746  22381026.673    22381025.751    22381039.944
       230.000         183.000
 -15095125.46749 -11746174.13346  21533780.133    21533780.145    21533796.236
       227.000         180.000
  -3392744.22749  -2633775.94647  19812647.022    19812645.601    19812656.711
       235.000         206.000
   7302876.94249   5683561.94645  22672767.534    22672765.410    22672782.830
       217.000         162.000
 -14654002.74749 -11391066.03246  22014939.548    22014938.801    22014952.028
       229.000         182.000
 00  4 19 16  9 59.9970000  0  7G27G 2G26G 4G 7G 8G 9
   8446583.41549   6574834.83845  23681695.273    23681692.959    23681715.825
       204.000         141.000
  -1906858.39249  -1479809.78647  20680667.717    20680666.327    20680678.188
       241.000         207.000
    363293.71249    287367.93146  22386184.358    22386183.501    22386197.780
       229.000         182.000
 -15221803.02249 -11844883.71346  21509674.074    21509674.048    21509690.085
       228.000         180.000
  -3399358.55749  -2638929.98847  19811388.354    19811386.960    19811398.086
       236.000         207.000
   7379742.04049   5743456.43745  22687394.751    22687392.656    22687410.124
       218.000         162.000
 -14769999.27249 -11481452.85846  21992866.106    21992865.343    21992878.550
       229.000         182.000
 00  4 19 16 10 29.9970000  0  7G27G 2G26G 4G 7G 8G 9
   8529845.39849   6639713.72445  23697539.981    23697537.600    23697560.719
       202.000         142.000
  -1913005.74649  -1484599.97847  20679497.961    20679496.567    20679508.436
       241.000         206.000
    390729.98949    308746.72546  22391405.362    22391404.542    22391418.830
       229.000         182.000
 -15348202.53649 -11943376.63546  21485620.877    21485620.870    21485636.868
       230.000         181.000
  -3405636.03149  -2643821.53647  19810193.801    19810192.405    19810203.525
       237.000         206.000
   7456787.07449   5803491.12446  22702056.234    22702054.135    22702071.651
       217.000         163.000
 -14885727.26549 -11571630.42646  21970843.757    21970843.005    21970856.154
       230.000         182.000
 00  4 19 16 10 59.9970000  0  7G27G 2G26G 4G 7G 8G 9
   8613222.08949   6704681.99745  23713406.557    23713404.135    23713427.319
       203.000         142.000
  -1918962.41149  -1489241.58847  20678364.431    20678363.081    20678374.954
       240.000         206.000
    418489.52349    330377.40546  22396687.966    22396687.089    22396701.422
       229.000         182.000
 -15474332.14149 -12041659.24446  21461619.058    21461619.074    21461635.032
       230.000         181.000
  -3411594.86749  -2648464.80047  19809059.828    19809058.487    19809069.624
       235.000         206.000
   7533991.05949   5863649.67246  22716747.965    22716745.885    22716763.464
       217.000         163.000
 -15001204.03949 -11661612.23746  21948869.237    21948868.456    21948881.566
       230.000         183.000
 00  4 19 16 11 29.9970000  0  7G27G 2G26G 4G 7G 8G 9
   8696721.75149   6769746.08545  23729296.436    23729294.043    23729317.333
       200.000         141.000
  -1924687.54549  -1493702.79147  20677274.977    20677273.657    20677285.543
       241.000         206.000
    446600.67949    352282.07046  22402037.446    22402036.575    22402050.876
       229.000         181.000
 -15600155.10049 -12139702.91946  21437675.613    21437675.606    21437691.510
       229.000         181.000
  -3417189.57249  -2652824.33047  19807995.147    19807993.837    19808005.011
       236.000         206.000
   7611384.91849   5923956.16746  22731475.806    22731473.716    22731491.424
       216.000         163.000
 -15116400.13149 -11751375.33946  21926948.099    21926947.322    21926960.416
       231.000         183.000
 00  4 19 16 11 59.9970000  0  7G27G 2G26G 4G 7G 8G 9
   8780310.88349   6834879.88245  23745203.341    23745200.909    23745224.448
       200.000         139.000
  -1930189.41749  -1497990.02147  20676228.050    20676226.727    20676238.631
       241.000         206.000
    475046.74449    374447.70346  22407450.665    22407449.770    22407464.110
       228.000         180.000
 -15725699.13549 -12237529.24546  21413785.164    21413785.197    21413801.061
       229.000         181.000
  -3422440.72549  -2656916.15247  19806995.931    19806994.582    19807005.781
       236.000         206.000
   7688950.47549   5984396.44445  22746236.324    22746234.229    22746252.054
       217.000         162.000
 -15231326.01249 -11840927.88646  21905078.370    21905077.602    21905090.645
       231.000         183.000
 00  4 19 16 12 29.9970000  0  7G27G 2G26G 4G 7G 8G 9
   8863975.39849   6900072.42845  23761124.569    23761122.146    23761145.906
       202.000         136.000
  -1935486.12949  -1502117.39147  20675220.219    20675218.854    20675230.755
       240.000         206.000
    503809.26949    396859.93446  22412924.082    22412923.201    22412937.525
       228.000         179.000
 -15850993.06649 -12335160.69346  21389942.330    21389942.379    21389958.246
       230.000         181.000
  -3427365.73249  -2660753.84047  19806058.763    19806057.411    19806068.621
       236.000         206.000
   7766676.90249   6044962.07746  22761027.421    22761025.360    22761043.302
       216.000         163.000
 -15345974.42949 -11930264.23146  21883261.465    21883260.687    21883273.670
       233.000         184.000
 00  4 19 16 12 59.9970000  0  7G27G 2G26G 4G 7G 8G 9
   8947767.25249   6965364.18245  23777070.041    23777067.655    23777091.479
       202.000         135.000
  -1940535.36849  -1506051.92947  20674259.391    20674258.055    20674269.966
       240.000         206.000
    532902.59349    419529.90746  22418460.419    22418459.549    22418473.905
       228.000         180.000
 -15976018.24849 -12432582.73946  21366150.600    21366150.718    21366166.550
       229.000         181.000
  -3431931.62649  -2664311.70247  19805189.865    19805188.536    19805199.756
       236.000         206.000
   7844599.58349   6105680.63746  22775855.915    22775853.853    22775871.925
       216.000         163.000
 -15460302.54949 -12019350.99746  21861505.425    21861504.665    21861517.584
       232.000         183.000
 00  4 19 16 13 29.9970000  0  7G27G 2G26G 4G 7G 8G 9
   9031673.77849   7030745.29245  23793037.360    23793034.960    23793058.886
       197.000         134.000
  -1945340.45349  -1509796.22547  20673345.037    20673343.701    20673355.645
       240.000         206.000
    562310.83949    442445.28246  22424056.746    22424055.843    22424070.221
       230.000         180.000
 -16100787.79949 -12529805.59446  21342407.604    21342407.710    21342423.490
       228.000         182.000
  -3436157.00949  -2667604.22547  19804385.810    19804384.481    19804395.707
       237.000         206.000
   7922714.18349   6166548.74345  22790720.874    22790718.836    22790737.053
       216.000         162.000
 -15574321.25849 -12108196.67446  21839808.236    21839807.535    21839820.420
       232.000         183.000
 00  4 19 16 13 59.9970000  0  7G27G 2G26G 4G 7G 8G 9
   9115679.17049   7096203.46145  23809023.524    23809021.183    23809045.085
       201.000         133.000
  -1949939.24649  -1513379.76447  20672469.937    20672468.625    20672480.577
       240.000         205.000
    591996.92849    465577.18246  22429706.014    22429705.041    22429719.428
       229.000         180.000
 -16225333.79549 -12626854.23846  21318707.112    21318707.248    21318722.998
       230.000         184.000
  -3440097.63449  -2670674.84547  19803635.990    19803634.636    19803645.834
       237.000         206.000
   8000985.78349   6227539.19245  22805615.746    22805613.664    22805632.042
       215.000         162.000
 -15688059.24949 -12196823.60646  21818164.519    21818163.855    21818176.711
       232.000         184.000
 00  4 19 16 14 29.9970000  0  7G27G 2G26G 4G 7G 8G 9
   9199793.36149   7161746.37845  23825030.388    23825028.084    23825052.077
       195.000         132.000
  -1954329.81549  -1516801.05447  20671634.499    20671633.163    20671645.127
       240.000         205.000
    621957.36249    488922.83646  22435407.400    22435406.432    22435420.807
       228.000         179.000
 -16349630.50449 -12723708.65446  21295054.144    21295054.259    21295069.946
       231.000         183.000
  -3443751.25749  -2673521.84447  19802940.729    19802939.386    19802950.574
       237.000         206.000
   8079422.35449   6288658.16745  22820541.986    22820539.914    22820558.442
       215.000         161.000
 -15801509.76949 -12285226.55346  21796575.577    21796574.890    21796587.734
       232.000         185.000
 00  4 19 16 14 59.9970000  0  7G27G 2G26G 4G 7G 8G 9
   9284006.83949   7227366.66945  23841056.185    23841053.842    23841077.940
       199.000         134.000
  -1958508.00349  -1520056.84647  20670839.490    20670838.117    20670850.102
       240.000         205.000
    652199.06949    512487.66246  22441162.304    22441161.343    22441175.745
       228.000         180.000
 -16473652.18749 -12820348.76246  21271453.495    21271453.567    21271469.213
       231.000         185.000
  -3447110.36449  -2676139.34847  19802301.488    19802300.155    19802311.345
       236.000         206.000
   8158017.93449   6349901.06245  22835498.490    22835496.450    22835515.069
       215.000         160.000
 -15914669.07349 -12373402.58046  21775042.058    21775041.341    21775054.170
       234.000         186.000
 00  4 19 16 15 29.9970000  0  8G27G 2G26G 4G24G 7G 8G 9
   9368310.92149   7293057.55345  23857099.097    23857096.689    23857121.127
       201.000         135.000
  -1962500.20649  -1523167.71847  20670079.861    20670078.481    20670090.486
       240.000         205.000
    682732.56049    536279.84846  22446972.753    22446971.758    22446986.181
       229.000         179.000
 -16597380.61749 -12916760.36546  21247908.657    21247908.686    21247924.278
       231.000         184.000
   -288590.88455                  23965448.433                    23965473.831
       205.000         135.000
  -3450164.62049  -2678519.30547  19801720.310    19801718.974    19801730.172
       237.000         206.000
   8236765.27849   6411262.19345  22850483.938    22850481.823    22850500.563
       214.000         158.000
 -16027529.41949 -12461345.65746  21753565.446    21753564.682    21753577.493
       233.000         187.000
 00  4 19 16 15 59.9970000  0  8G27G 2G26G 4G24G 7G 8G 9
   9452731.12549   7358838.91945  23873164.290    23873161.727    23873186.413
       201.000         136.000
  -1966310.51049  -1526136.84647  20669354.858    20669353.447    20669365.482
       240.000         205.000
    713561.40449    560302.18646  22452839.447    22452838.408    22452852.821
       229.000         180.000
 -16720797.02649 -13012928.84046  21224423.215    21224423.219    21224438.738
       231.000         184.000
   -535432.66949   -397172.31745  23938931.833    23938931.358    23938956.961
       207.000         139.000
  -3452896.88749  -2680648.37647  19801200.424    19801199.049    19801210.218
       237.000         206.000
   8315663.94449   6472741.25145  22865498.165    22865496.021    22865514.897
       216.000         159.000
 -16140068.55449 -12549038.43646  21732149.910    21732149.159    21732161.969
       233.000         187.000
 00  4 19 16 16 29.9970000  0  8G27G 2G26G 4G24G 7G 8G 9
   9537269.55149   7424712.45445  23889251.933    23889249.313    23889274.029
       201.000         134.000
  -1969925.91549  -1528954.10647  20668666.936    20668665.508    20668677.551
       240.000         205.000
    744701.19349    584566.80846  22458765.235    22458764.192    22458778.606
       229.000         180.000
 -16843882.01149 -13108839.07046  21201000.839    21201000.801    21201016.286
       232.000         185.000
   -674831.07459   -505794.35855  23912405.262    23912403.994    23912428.593
       209.000         138.000
  -3455275.75049  -2682502.06647  19800747.821    19800746.411    19800757.569
       237.000         207.000
   8394728.30949   6534349.42545  22880543.895    22880541.755    22880560.779
       215.000         160.000
 -16252265.00649 -12636464.20047  21710799.566    21710798.829    21710811.639
       234.000         188.000
 00  4 19 16 16 59.9970000  0  8G27G 2G26G 4G24G 7G 8G 9
   9621922.35249   7490675.07045  23905361.256    23905358.791    23905383.463
       202.000         133.000
  -1973347.48749  -1531620.32947  20668015.906    20668014.451    20668026.501
       240.000         204.000
    776166.90549    609085.39946  22464753.054    22464752.048    22464766.496
       228.000         181.000
 -16966645.84449 -13204499.06646  21177639.610    21177639.502    21177654.914
       232.000         185.000
   -814280.55249   -614456.18345  23885868.923    23885868.088    23885893.096
       207.000         141.000
  -3457292.00949  -2684073.20247  19800364.176    19800362.761    19800373.904
       237.000         206.000
   8473950.35149   6596080.44445  22895619.655    22895617.532    22895636.647
       214.000         159.000
 -16364114.51249 -12723619.62246  21689515.270    21689514.509    21689527.341
       233.000         187.000
 00  4 19 16 17 29.9970000  0  8G27G 2G26G 4G24G 7G 8G 9
   9706646.31149   7556693.15445  23921484.232    23921481.615    23921506.506
       198.000         133.000
  -1976604.20549  -1534158.09347  20667396.193    20667394.760    20667406.824
       239.000         204.000
    807924.45249    633831.37946  22470796.399    22470795.412    22470809.932
       229.000         181.000
 -17089130.74149 -13299941.70746  21154331.390    21154331.282    21154346.602
       232.000         185.000
   -953815.54649   -723184.64845  23859316.326    23859315.356    23859340.682
       205.000         142.000
  -3458977.55549  -2685386.63747  19800043.458    19800042.020    19800053.157
       237.000         206.000
   8553309.18349   6657918.04245  22910721.471    22910719.309    22910738.517
       213.000         156.000
 -16475656.88749 -12810535.71746  21668289.464    21668288.677    21668301.473
       234.000         187.000
 00  4 19 16 17 59.9970000  0  8G27G 2G26G 4G24G 7G 8G 9
   9791459.20549   7622780.56144  23937624.219    23937621.596    23937646.374
       198.000         131.000
  -1979639.24249  -1536523.11647  20666818.667    20666817.253    20666829.312
       239.000         204.000
    839988.41449    658816.13546  22476898.124    22476897.109    22476911.653
       228.000         180.000
 -17211320.55549 -13395154.41346  21131079.300    21131079.206    21131094.467
       232.000         187.000
  -1093400.39849   -831951.98245  23832754.310    23832753.205    23832778.534
       207.000         142.000
  -3460312.84949  -2686427.14747  19799789.398    19799787.953    19799799.066
       238.000         207.000
   8632834.77449   6719885.60545  22925855.016    22925852.851    22925872.116
       211.000         156.000
 -16586876.27749 -12897200.12647  21647125.112    21647124.284    21647137.058
       234.000         188.000
 00  4 19 16 18 29.9970000  0  8G27G 2G26G 4G24G 7G 8G 9
   9876344.99649   7688924.80244  23953777.916    23953775.325    23953800.111
       199.000         130.000
  -1982429.07149  -1538697.07647  20666287.829    20666286.411    20666298.483
       240.000         205.000
    872371.93349    684049.88546  22483060.625    22483059.599    22483074.227
       228.000         180.000
 -17333211.91949 -13490134.57146  21107884.063    21107883.948    21107899.143
       232.000         187.000
  -1233035.12949   -940758.19645  23806182.711    23806181.527    23806206.923
       207.000         142.000
  -3461310.13049  -2687204.27847  19799599.719    19799598.229    19799609.318
       238.000         207.000
   8712522.44749   6781979.43345  22941019.414    22941017.232    22941036.565
       212.000         154.000
 -16697776.60349 -12983615.92847  21626021.472    21626020.629    21626033.400
       234.000         188.000
 00  4 19 16 18 59.9970000  0  7G 2G26G 4G24G 7G 8G 9
  -1984981.28249  -1540685.87747  20665802.233    20665800.791    20665812.859
       240.000         205.000
    905055.41349    709517.38046  22489280.148    22489279.118    22489293.832
       228.000         179.000
 -17454822.79449 -13584896.16046  21084742.214    21084742.065    21084757.180
       233.000         187.000
  -1372749.03749  -1049626.12345  23779596.023    23779594.885    23779620.136
       205.000         140.000
  -3462001.31949  -2687742.90047  19799468.227    19799466.744    19799477.842
       238.000         207.000
   8792358.46849   6844188.86845  22956212.100    22956209.881    22956229.314
       213.000         155.000
 -16808374.47849 -13069796.04247  21604975.354    21604974.546    21604987.273
       234.000         188.000
 00  4 19 16 19 29.9970000  0  7G 2G26G 4G24G 7G 8G 9
  -1987259.14549  -1542460.89947  20665368.844    20665367.399    20665379.467
       240.000         205.000
    938053.29949    735229.85746  22495559.480    22495558.504    22495573.352
       226.000         179.000
 -17576113.53649 -13679408.30747  21061661.322    21061661.107    21061676.158
       233.000         188.000
  -1512501.39449  -1158523.99045  23753002.059    23753000.935    23753026.205
       205.000         141.000
  -3462375.65349  -2688034.62347  19799397.014    19799395.525    19799406.635
       238.000         207.000
   8872367.81849   6906533.35445  22971437.747    22971435.491    22971455.006
       213.000         154.000
 -16918638.31649 -13155715.86847  21583992.814    21583992.002    21584004.706
       234.000         189.000
 00  4 19 16 19 59.9970000  0  7G 2G26G 4G24G 7G 8G 9
  -1989289.59049  -1544043.12647  20664982.555    20664981.078    20664993.144
       240.000         205.000
    971340.66749    761167.92246  22501893.995    22501892.994    22501907.871
       228.000         179.000
 -17697107.92149 -13773689.52447  21038636.743    21038636.534    21038651.555
       233.000         188.000
  -1652313.00849  -1267468.04245  23726396.810    23726395.644    23726420.921
       206.000         139.000
  -3462473.48849  -2688110.87447  19799378.421    19799376.935    19799388.042
       238.000         207.000
   8952508.02949   6968979.80345  22986688.299    22986686.063    22986705.588
       210.000         152.000
 -17028584.77749 -13241388.37947  21563070.669    21563069.854    21563082.562
       234.000         189.000
 00  4 19 16 20 29.9970000  0  7G 2G26G 4G24G 7G 8G 9
  -1991074.60449  -1545434.12447  20664642.968    20664641.467    20664653.559
       240.000         205.000
   1004952.77549    787359.00246  22508290.255    22508289.282    22508304.192
       227.000         178.000
 -17817772.08049 -13867713.43247  21015674.977    21015674.787    21015689.759
       233.000         188.000
  -1792152.57049  -1376433.87145  23699786.137    23699784.923    23699810.264
       206.000         142.000
  -3462264.26449  -2687947.86347  19799418.226    19799416.769    19799427.878
       238.000         207.000
   9032809.08849   7031551.57645  23001969.529    23001967.197    23001986.861
       210.000         152.000
 -17138171.55849 -13326780.61747  21542216.969    21542216.158    21542228.867
       234.000         190.000
 00  4 19 16 20 59.9960000  0  7G 2G26G 4G24G 7G 8G 9
  -1992640.08249  -1546654.05247  20664345.125    20664343.625    20664355.736
       241.000         205.000
   1038869.16749    813787.20846  22514744.486    22514743.478    22514758.387
       227.000         179.000
 -17938107.98849 -13961481.56247  20992775.734    20992775.516    20992790.457
       233.000         189.000
  -1932005.90649  -1485410.42845  23673172.846    23673171.749    23673196.944
       203.000         142.000
  -3461733.17649  -2687534.04647  19799519.314    19799517.845    19799528.980
       238.000         207.000
   9113267.10749   7094245.66645  23017280.521    23017278.178    23017297.927
       209.000         152.000
 -17247402.28349 -13411895.40947  21521430.998    21521430.202    21521442.911
       234.000         190.000
 00  4 19 16 21 29.9960000  0  7G 2G26G 4G24G 7G 8G 9
  -1994006.30649  -1547718.70947  20664085.160    20664083.708    20664095.832
       241.000         205.000
   1073065.49849    840433.53846  22521252.020    22521250.979    22521265.894
       226.000         177.000
 -18058122.11549 -14054998.94947  20969937.710    20969937.489    20969952.439
       233.000         189.000
  -2071895.63649  -1594415.30845  23646552.663    23646551.588    23646576.756
       205.000         143.000
  -3460873.10649  -2686863.88047  19799682.995    19799681.532    19799692.679
       238.000         206.000
   9193856.18149   7157041.87645  23032616.452    23032614.099    23032633.957
       211.000         151.000
 -17356287.39349 -13496740.88847  21500710.763    21500710.000    21500722.709
       234.000         190.000
 00  4 19 16 21 59.9960000  0  7G 2G26G 4G24G 7G 8G 9
  -1995194.19749  -1548644.40947  20663859.176    20663857.719    20663869.851
       240.000         205.000
   1107516.37449    867278.21446  22527807.894    22527806.857    22527821.788
       227.000         176.000
 -18177818.23249 -14148268.53947  20947160.213    20947159.970    20947174.917
       234.000         190.000
  -2211839.08849  -1703462.02145  23619922.322    23619921.232    23619946.364
       211.000         146.000
  -3459689.51149  -2685941.60547  19799908.268    19799906.793    19799917.922
       239.000         206.000
   9274566.07349   7219932.21745  23047975.355    23047973.046    23047992.956
       211.000         150.000
 -17464833.88449 -13581322.50747  21480054.963    21480054.235    21480066.926
       235.000         189.000
 00  4 19 16 22 29.9960000  0  7G 2G26G 4G24G 7G 8G 9
  -1996195.05949  -1549424.37547  20663668.799    20663667.327    20663679.475
       240.000         205.000
   1142208.93049    894311.22346  22534409.903    22534408.783    22534423.662
       227.000         177.000
 -18297173.59249 -14241272.60847  20924447.590    20924447.317    20924462.253
       233.000         190.000
  -2351826.10049  -1812542.65645  23593283.629    23593282.567    23593307.667
       207.000         146.000
  -3458171.24949  -2684758.55947  19800197.236    19800195.735    19800206.850
       239.000         207.000
   9355404.75949   7282922.92145  23063358.799    23063356.457    23063376.446
       211.000         149.000
 -17573041.42349 -13665640.00447  21459463.730    21459462.972    21459475.651
       234.000         190.000
 00  4 19 16 22 59.9960000  0  7G 2G26G 4G24G 7G 8G 9
  -1996989.72549  -1550043.66447  20663517.644    20663516.178    20663528.334
       240.000         204.000
   1177113.99349    921509.82446  22541052.314    22541051.173    22541066.012
       228.000         178.000
 -18416181.60649 -14334006.01847  20901801.064    20901800.780    20901815.708
       233.000         190.000
  -2491857.02449  -1921657.45245  23566636.569    23566635.549    23566660.566
       206.000         144.000
  -3456344.61249  -2683335.23147  19800544.844    19800543.346    19800554.439
       238.000         207.000
   9436353.18349   7345999.14645  23078763.178    23078760.806    23078780.845
       208.000         148.000
 -17680921.94249 -13749702.69247  21438934.721    21438933.925    21438946.617
       235.000         190.000
 00  4 19 16 23 29.9960000  0  7G 2G26G 4G24G 7G 8G 9
  -1997551.17949  -1550481.22347  20663410.852    20663409.398    20663421.550
       240.000         204.000
   1212239.03049    948879.83246  22547736.530    22547735.388    22547750.224
       226.000         176.000
 -18534832.70849 -14426461.31247  20879222.487    20879222.166    20879237.065
       234.000         191.000
  -2631927.25249  -2030802.83145  23539981.879    23539980.957    23540005.974
       205.000         143.000
  -3454240.44349  -2681695.64747  19800945.276    19800943.783    19800954.847
       238.000         206.000
   9517412.25049   7409161.56945  23094188.505    23094186.155    23094206.324
       210.000         147.000
 -17788463.51949 -13833501.26947  21418470.231    21418469.429    21418482.063
       235.000         191.000
 00  4 19 16 23 59.9960000  0  7G 2G26G 4G24G 7G 8G 9
  -1997856.17049  -1550718.94147  20663352.918    20663351.429    20663363.567
       241.000         205.000
   1247598.16749    976432.23846  22554465.265    22554464.114    22554478.970
       227.000         176.000
 -18653130.99849 -14518641.68547  20856711.040    20856710.685    20856725.588
       234.000         191.000
  -2772008.93749  -2139957.09845  23513325.107    23513324.227    23513349.183
       206.000         144.000
  -3451867.96949  -2679846.98947  19801396.783    19801395.269    19801406.323
       238.000         206.000
   9598607.66549   7472430.22745  23109639.722    23109637.476    23109657.698
       210.000         148.000
 -17895668.35449 -13917037.44447  21398069.822    21398068.991    21398081.595
       235.000         191.000
 00  4 19 16 24 29.9960000  0  7G 2G26G 4G24G 7G 8G 9
  -1997885.45449  -1550741.82647  20663347.428    20663345.922    20663358.062
       240.000         205.000
   1283201.13549   1004174.66446  22561240.371    22561239.255    22561254.135
       226.000         176.000
 -18771070.61849 -14610542.57847  20834267.809    20834267.455    20834282.335
       234.000         191.000
  -2912087.98149  -2249109.27845  23486668.809    23486667.947    23486692.921
       210.000         144.000
  -3449208.68149  -2677774.84247  19801902.844    19801901.321    19801912.376
       239.000         206.000
   9679945.94949   7535810.22345  23125118.192    23125115.922    23125136.333
       209.000         147.000
 -18002521.26549 -14000299.39747  21377736.361    21377735.516    21377748.078
       235.000         191.000
 00  4 19 16 24 59.9960000  0  7G 2G26G 4G24G 7G 8G 9
  -1997651.82349  -1550559.83847  20663391.952    20663390.453    20663402.593
       240.000         205.000
   1319048.59849   1032107.58646  22568062.039    22568060.922    22568075.889
       227.000         176.000
 -18888664.62149 -14702174.15947  20811890.317    20811889.959    20811904.814
       235.000         191.000
  -3052171.02349  -2358264.53745  23460011.755    23460010.914    23460035.817
       208.000         145.000
  -3446265.08749  -2675481.16547  19802463.015    19802461.482    19802472.536
       239.000         206.000
   9761413.34849   7599290.82945  23140621.241    23140618.990    23140639.538
       212.000         146.000
 -18109014.35549 -14083280.97847  21357471.368    21357470.522    21357483.013
       235.000         191.000
 00  4 19 16 25 29.9960000  0  7G 2G26G 4G24G 7G 8G 9
  -1997178.32349  -1550190.94447  20663482.137    20663480.619    20663492.794
       240.000         205.000
   1355145.18449   1060234.63046  22574931.095    22574929.972    22574944.978
       227.000         175.000
 -19005927.83749 -14793547.97347  20789575.792    20789575.429    20789590.249
       234.000         192.000
  -3192282.40649  -2467441.88345  23433349.245    23433348.432    23433373.372
       207.000         144.000
  -3443016.31749  -2672949.68347  19803081.231    19803079.723    19803090.784
       238.000         206.000
   9843011.76149   7662873.50645  23156149.276    23156146.974    23156167.631
       210.000         147.000
 -18215146.18449 -14165981.06247  21337275.140    21337274.286    21337286.729
       235.000         191.000
 00  4 19 16 25 59.9960000  0  7G 2G26G 4G24G 7G 8G 9
  -1996503.41549  -1549665.10847  20663610.664    20663609.108    20663621.319
       240.000         205.000
   1391464.29249   1088535.09846  22581842.589    22581841.424    22581856.438
       228.000         176.000
 -19122876.28349 -14884676.51247  20767321.183    20767320.816    20767335.598
       234.000         191.000
  -3332453.09249  -2576665.42145  23406675.298    23406674.620    23406699.565
       210.000         143.000
  -3439455.68049  -2670175.18147  19803758.798    19803757.283    19803768.339
       239.000         206.000
   9924721.92949   7726543.26745  23171698.592    23171696.290    23171717.030
       210.000         146.000
 -18320932.32149 -14248411.77447  21317144.711    21317143.824    21317156.244
       235.000         192.000
 00  4 19 16 26 29.9960000  0  7G 2G26G 4G24G 7G 8G 9
  -1995616.74849  -1548974.27147  20663779.471    20663777.908    20663790.136
       240.000         205.000
   1428037.52649   1117033.55046  22588802.409    22588801.227    22588816.288
       227.000         175.000
 -19239475.87449 -14975533.21047  20745132.942    20745132.574    20745147.321
       235.000         192.000
  -3472665.27849  -2685921.30345  23379993.616    23379992.998    23380017.921
       212.000         144.000
  -3435566.74949  -2667144.86647  19804498.867    19804497.343    19804508.390
       238.000         206.000
  10006551.74749   7790306.24945  23187270.702    23187268.416    23187289.186
       210.000         148.000
 -18426337.08349 -14330545.30147  21297086.787    21297085.921    21297098.346
       235.000         193.000
 00  4 19 16 26 59.9960000  0  7G 2G26G 4G24G 7G 8G 9
  -1994525.21649  -1548123.79547  20663987.236    20663985.684    20663997.940
       240.000         204.000
   1464872.29349   1145735.79346  22595811.971    22595810.755    22595825.878
       226.000         175.000
 -19355728.64249 -15066119.64947  20723010.701    20723010.334    20723025.003
       235.000         192.000
  -3612911.38949  -2795203.61545  23353305.449    23353304.883    23353329.766
       208.000         144.000
  -3431370.11849  -2663874.78647  19805297.445    19805295.949    19805307.000
       239.000         207.000
  10088501.98949   7854163.08245  23202865.798    23202863.464    23202884.321
       211.000         148.000
 -18531369.69049 -14412388.83647  21277099.706    21277098.826    21277111.267
       235.000         193.000
 00  4 19 16 27 29.9960000  0  7G 2G26G 4G24G 7G 8G 9
  -1993199.59249  -1547090.91247  20664239.545    20664237.996    20664250.281
       239.000         204.000
   1501986.26349   1174655.61646  22602874.632    22602873.441    22602888.549
       226.000         174.000
 -19471617.27849 -15156422.34547  20700957.714    20700957.359    20700971.970
       235.000         192.000
  -3753166.06849  -2904492.59345  23326615.578    23326615.037    23326639.955
       208.000         146.000
  -3426854.37149  -2660356.03947  19806156.738    19806155.262    19806166.333
       239.000         207.000
  10170591.94749   7918128.77645  23218487.497    23218485.085    23218505.959
       211.000         149.000
 -18636019.90449 -14493934.40547  21257185.438    21257184.524    21257196.956
       236.000         194.000
 00  4 19 16 27 59.9960000  0  7G 2G26G 4G24G 7G 8G 9
  -1991626.86449  -1545865.48647  20664538.860    20664537.328    20664549.620
       239.000         203.000
   1539387.10449   1203798.96046  22609991.852    22609990.677    22610005.788
       226.000         174.000
 -19587135.92449 -15246436.73847  20678975.137    20678974.792    20678989.333
       235.000         192.000
  -3893392.29149  -3013759.43445  23299931.224    23299930.678    23299955.495
       213.000         146.000
  -3422047.94449  -2656610.79147  19807071.417    19807069.914    19807081.006
       238.000         207.000
  10252803.25349   7982189.01945  23234132.332    23234129.799    23234150.765
       209.000         150.000
 -18740287.74049 -14575182.01647  21237343.879    21237342.972    21237355.407
       236.000         194.000
 00  4 19 16 28 29.9960000  0  7G 2G26G 4G24G 7G 8G 9
  -1989808.46149  -1544448.62547  20664884.939    20664883.415    20664895.680
       240.000         203.000
   1577067.65649   1233160.26046  22617162.409    22617161.203    22617176.285
       228.000         176.000
 -19702280.69049 -15336159.78747  20657063.712    20657063.371    20657077.858
       235.000         191.000
  -4033578.79049  -3122995.30345  23273254.282    23273253.851    23273278.643
       210.000         146.000
  -3416959.69949  -2652645.95647  19808039.654    19808038.183    19808049.270
       239.000         207.000
  10335127.36349   8046337.15645  23249798.592    23249795.956    23249817.121
       211.000         149.000
 -18844181.64749 -14656138.26547  21217573.481    21217572.578    21217584.985
       236.000         194.000
 00  4 19 16 28 59.9960000  0  7G 2G26G 4G24G 7G 8G 9
  -1987756.16449  -1542849.50647  20665275.560    20665274.018    20665286.265
       240.000         202.000
   1615001.66549   1262719.06046  22624381.200    22624379.941    22624395.046
       226.000         175.000
 -19817065.74749 -15425602.54547  20635220.714    20635220.394    20635234.855
       236.000         192.000
  -4173748.02249  -3232217.73845  23246580.729    23246580.321    23246605.036
       210.000         146.000
  -3411596.18749  -2648466.62647  19809060.343    19809058.845    19809069.945
       240.000         208.000
  10417537.62449   8110552.43145  23265481.158    23265478.582    23265499.740
       210.000         148.000
 -18947720.01349 -14736817.46547  21197870.711    21197869.839    21197882.217
       236.000         194.000
 00  4 19 16 29 29.9960000  0  7G 2G26G 4G24G 7G 8G 9
  -1985471.78449  -1541069.54947  20665710.362    20665708.805    20665721.013
       240.000         202.000
   1653185.29449   1292472.36246  22631647.425    22631646.161    22631661.275
       226.000         172.000
 -19931473.18249 -15514751.05247  20613449.577    20613449.291    20613463.731
       235.000         192.000
  -4313897.39949  -3341424.68345  23219910.914    23219910.524    23219935.206
       211.000         147.000
  -3405948.11349  -2644065.56647  19810135.240    19810133.673    19810144.791
       240.000         208.000
  10500023.93449   8174826.96645  23281178.199    23281175.638    23281196.853
       210.000         148.000
 -19050883.08649 -14817204.22547  21178239.392    21178238.522    21178250.890
       236.000         195.000
 00  4 19 16 29 59.9960000  0  7G 2G26G 4G24G 7G 8G 9
  -1982960.70049  -1539112.93947  20666188.311    20666186.726    20666198.913
       240.000         202.000
   1691609.11249   1322412.84746  22638959.384    22638958.140    22638973.176
       227.000         171.000
 -20045493.15549 -15603597.63447  20591752.185    20591751.903    20591766.332
       234.000         192.000
  -4454030.44249  -3450618.93345  23193244.189    23193243.858    23193268.511
       209.000         145.000
  -3400016.02549  -2639443.19347  19811264.114    19811262.548    19811273.681
       240.000         208.000
  10582596.11549   8239168.41245  23296891.597    23296889.011    23296910.339
       211.000         149.000
 -19153667.49149 -14897295.91547  21158680.157    21158679.267    21158691.607
       236.000         195.000
 00  4 19 16 30 29.9960000  0  7G 2G26G 4G24G 7G 8G 9
  -1980202.69349  -1536963.92347  20666713.210    20666711.613    20666723.805
       239.000         202.000
   1730275.10949   1352542.01746  22646317.367    22646316.139    22646331.238
       226.000         172.000
 -20159098.17149 -15692120.87547  20570133.731    20570133.462    20570147.913
       235.000         193.000
  -4594149.91849  -3559802.59145  23166580.013    23166579.773    23166604.342
       211.000         144.000
  -3393760.76249  -2634568.98947  19812454.489    19812452.909    19812464.082
       239.000         208.000
  10665296.89149   8303610.07145  23312629.537    23312626.918    23312648.315
       213.000         149.000
 -19256050.91549 -14977075.14547  21139197.246    21139196.337    21139208.647
       236.000         196.000
 00  4 19 16 30 59.9960000  0  7G 2G26G 4G24G 7G 8G 9
  -1977197.74349  -1534622.48247  20667285.063    20667283.480    20667295.708
       239.000         202.000
   1769172.88849   1382851.80346  22653719.498    22653718.273    22653733.425
       226.000         173.000
 -20272298.11949 -15780328.48447  20548592.428    20548592.127    20548606.553
       236.000         193.000
  -4734269.84849  -3668986.62245  23139915.826    23139915.547    23139940.113
       211.000         145.000
  -3387211.14349  -2629465.42347  19813700.911    19813699.306    19813710.471
       240.000         208.000
  10748116.62349   8368144.41745  23328390.008    23328387.396    23328408.943
       211.000         148.000
 -19358036.30249 -15056544.21947  21119790.062    21119789.141    21119801.434
       237.000         196.000
 00  4 19 16 31 29.9960000  0  8G 2G26G 4G24G 5G 7G 8G 9
  -1973964.54249  -1532103.18747  20667900.352    20667898.796    20667911.052
       238.000         202.000
   1808264.31749   1413312.47646  22661158.399    22661157.217    22661172.405
       225.000         172.000
 -20385115.88049 -15868238.27547  20527123.809    20527123.510    20527137.903
       236.000         193.000
  -4874400.79949  -3778179.21345  23113249.530    23113249.281    23113273.771
       212.000         145.000
  -3207431.13159  -2471505.68755  24069107.619    24069106.127    24069124.126
       210.000         140.000
  -3380403.26349  -2624160.60947  19814996.449    19814994.841    19815005.999
       240.000         208.000
  10831044.35049   8432762.90945  23344171.005    23344168.413    23344190.060
       211.000         147.000
 -19459658.40449 -15135730.20747  21100452.017    21100451.064    21100463.361
       237.000         196.000
 00  4 19 16 31 59.9960000  0  8G 2G26G 4G24G 5G 7G 8G 9
  -1970476.70449  -1529385.46847  20668564.107    20668562.561    20668574.858
       238.000         201.000
   1847558.73749   1443931.33346  22668636.055    22668634.836    22668650.031
       225.000         174.000
 -20497538.70549 -15955840.33647  20505730.348    20505730.050    20505744.398
       236.000         193.000
  -5014518.23649  -3887361.30145  23086585.812    23086585.544    23086609.950
       213.000         147.000
  -3321739.92649  -2560577.35145  24047355.243    24047353.748    24047371.911
       207.000         141.000
  -3373323.58849  -2618644.02247  19816343.634    19816342.051    19816353.228
       240.000         208.000
  10914101.42949   8497482.20945  23359976.650    23359974.002    23359995.797
       211.000         146.000
 -19560903.76749 -15214622.63547  21081185.619    21081184.673    21081196.982
       237.000         196.000
 00  4 19 16 32 29.9960000  0  8G 2G26G 4G24G 5G 7G 8G 9
  -1966698.51349  -1526441.50347  20669283.119    20669281.579    20669293.904
       238.000         202.000
   1887085.71449   1474731.40346  22676157.882    22676156.671    22676171.926
       225.000         172.000
 -20609535.88749 -16043110.72847  20484417.869    20484417.569    20484431.905
       234.000         193.000
  -5154579.72149  -3996499.78445  23059932.819    23059932.504    23059956.715
       210.000         147.000
  -3436058.93749  -2649656.96645  24025601.018    24025599.546    24025617.624
       212.000         141.000
  -3365948.96949  -2612897.59847  19817747.035    19817745.432    19817756.607
       240.000         208.000
  10997304.25549   8562315.06745  23375810.025    23375807.407    23375829.274
       210.000         146.000
 -19661732.85849 -15293190.70347  21061998.436    21061997.493    21062009.798
       236.000         196.000
 00  4 19 16 32 59.9960000  0  8G 2G26G 4G24G 5G 7G 8G 9
  -1962671.74849  -1523303.83847  20670049.454    20670047.902    20670060.254
       238.000         201.000
   1926817.06749   1505690.69046  22683718.599    22683717.406    22683732.784
       225.000         172.000
 -20721145.51249 -16130079.12047  20463179.136    20463178.843    20463193.131
       235.000         193.000
  -5294596.80449  -4105603.66045  23033288.182    23033287.808    23033312.031
       209.000         148.000
  -3550416.86149  -2738766.92445  24003839.353    24003837.999    24003855.864
       212.000         141.000
  -3358325.46949  -2606957.24347  19819197.768    19819196.177    19819207.348
       240.000         208.000
  11080603.24649   8627222.85645  23391661.581    23391659.002    23391681.049
       209.000         146.000
 -19762170.67149 -15371453.88647  21042885.683    21042884.763    21042897.072
       237.000         196.000
 00  4 19 16 33 29.9960000  0  8G 2G26G 4G24G 5G 7G 8G 9
  -1958378.35449  -1519958.41847  20670866.531    20670864.966    20670877.331
       239.000         202.000
   1966766.56949   1536819.98946  22691320.751    22691319.637    22691335.074
       224.000         171.000
 -20832340.35049 -16216724.30347  20442019.339    20442019.066    20442033.305
       236.000         193.000
  -5434529.52149  -4214641.78345  23006659.595    23006659.287    23006683.434
       212.000         148.000
  -3664784.57649  -2827884.49245  23982075.764    23982074.393    23982092.327
       206.000         141.000
  -3350402.44849  -2600783.48947  19820705.521    19820703.910    19820715.047
       240.000         208.000
  11164025.74849   8692226.89445  23407536.670    23407534.158    23407556.378
       208.000         145.000
 -19862182.29949 -15449384.98047  21023854.115    21023853.166    21023865.457
       237.000         197.000
 00  4 19 16 33 59.9960000  0  8G 2G26G 4G24G 5G 7G 8G 9
  -1953847.65349  -1516428.08547  20671728.749    20671727.182    20671739.568
       238.000         201.000
   2006921.39049   1568109.27946  22698962.011    22698960.951    22698976.434
       224.000         170.000
 -20943140.14849 -16303061.67347  20420934.724    20420934.444    20420948.642
       236.000         194.000
  -5574407.08549  -4323636.94645  22980041.525    22980041.225    22980065.276
       210.000         148.000
  -3779192.08149  -2917033.05745  23960304.623    23960303.399    23960321.231
       208.000         141.000
  -3342194.18649  -2594387.47647  19822267.535    19822265.926    19822277.051
       240.000         208.000
  11247544.28249   8757305.75945  23423430.146    23423427.629    23423449.951
       207.000         144.000
 -19961768.03949 -15526984.21147  21004903.503    21004902.600    21004914.870
       237.000         196.000
 00  4 19 16 34 29.9960000  0  8G 2G26G 4G24G 5G 7G 8G 9
  -1949057.15749  -1512695.31447  20672640.393    20672638.830    20672651.239
       239.000         201.000
   2047295.40849   1599569.36846  22706645.103    22706643.985    22706659.540
       224.000         172.000
 -21053523.69549 -16389074.68147  20399929.329    20399929.043    20399943.204
       236.000         194.000
  -5714211.99749  -4432575.48945  22953437.308    22953436.969    22953460.975
       212.000         148.000
  -3893614.08749  -3006192.94745  23938530.802    23938529.501    23938547.237
       206.000         142.000
  -3333677.36949  -2587751.02747  19823888.277    19823886.671    19823897.784
       240.000         209.000
  11331168.92349   8822467.30545  23439343.827    23439341.262    23439363.706
       204.000         142.000
 -20060902.55249 -15604231.84647  20986038.827    20986037.898    20986050.132
       238.000         197.000
 00  4 19 16 34 59.9960000  0  8G 2G26G 4G24G 5G 7G 8G 9
  -1944039.68749  -1508785.68047  20673595.263    20673593.691    20673606.119
       239.000         201.000
   2087855.64549   1631174.53346  22714363.670    22714362.481    22714378.135
       225.000         172.000
 -21163505.63049 -16474774.74847  20379000.365    20379000.072    20379014.186
       237.000         195.000
  -5853976.23249  -4541482.32345  22926840.783    22926840.464    22926864.359
       212.000         150.000
  -4008057.20449  -3095369.26345  23916752.834    23916751.621    23916769.404
       204.000         141.000
  -3324871.47349  -2580889.32947  19825564.049    19825562.422    19825573.558
       241.000         209.000
  11414865.88649   8887685.18845  23455271.157    23455268.629    23455291.241
       205.000         143.000
 -20159606.50749 -15681143.97247  20967256.094    20967255.149    20967267.364
       237.000         197.000
 00  4 19 16 35 29.9960000  0  8G 2G26G 4G24G 5G 7G 8G 9
  -1938780.45049  -1504687.64747  20674596.124    20674594.542    20674607.021
       238.000         201.000
   2128611.74949   1662932.35046  22722119.503    22722118.264    22722133.894
       225.000         170.000
 -21273067.95749 -16560147.85047  20358151.309    20358150.970    20358165.037
       237.000         195.000
  -5993710.35049  -4650365.71445  22900250.061    22900249.734    22900273.456
       211.000         150.000
  -4122511.19849  -3184554.05745  23894972.922    23894971.703    23894989.560
       212.000         142.000
  -3315761.00949  -2573790.30347  19827297.715    19827296.104    19827307.270
       241.000         209.000
  11498630.46049   8952955.74545  23471211.324    23471208.828    23471231.573
       203.000         142.000
 -20257873.93549 -15757715.94247  20948556.372    20948555.438    20948567.652
       237.000         197.000
 00  4 19 16 35 59.9960000  0  8G 2G26G 4G24G 5G 7G 8G 9
  -1933249.80149  -1500378.13347  20675648.637    20675647.045    20675659.553
       239.000         201.000
   2169592.97149   1694865.57346  22729918.123    22729916.895    22729932.529
       223.000         170.000
 -21382195.10049 -16645181.85447  20337385.039    20337384.691    20337398.714
       237.000         196.000
  -6133408.29349  -4759220.90645  22873666.246    22873665.868    22873689.517
       213.000         151.000
  -4236956.74549  -3273732.24845  23873194.579    23873193.367    23873211.159
       211.000         144.000
  -3306352.01549  -2566458.66247  19829088.197    19829086.597    19829097.778
       240.000         209.000
  11582472.56549   9018286.72245  23487166.252    23487163.879    23487186.811
       202.000         140.000
 -20355691.41749 -15833937.32447  20929942.288    20929941.361    20929953.575
       238.000         197.000
 00  4 19 16 36 29.9960000  0  8G 2G26G 4G24G 5G 7G 8G 9
  -1927476.10549  -1495879.23147  20676747.411    20676745.815    20676758.340
       238.000         201.000
   2210762.53749   1726945.55446  22737752.500    22737751.318    22737766.989
       223.000         170.000
 -21490912.97549 -16729896.94047  20316696.618    20316696.279    20316710.283
       238.000         196.000
  -6273093.41249  -4868066.10545  22847084.828    22847084.464    22847107.993
       215.000         152.000
  -4351419.95449  -3362924.18645  23851412.800    23851411.703    23851429.438
       209.000         144.000
  -3296680.65549  -2558922.58047  19830928.604    19830927.017    19830938.234
       240.000         209.000
  11666362.24949   9083654.76545  23503130.365    23503127.923    23503150.943
       203.000         138.000
 -20453095.32949 -15909836.43247  20911406.912    20911405.982    20911418.189
       238.000         198.000
 00  4 19 16 36 59.9960000  0  8G 2G26G 4G24G 5G 7G 8G 9
  -1921452.14649  -1491185.31847  20677893.826    20677892.210    20677904.756
       238.000         201.000
   2252142.19549   1759189.23946  22745626.918    22745625.737    22745641.507
       225.000         170.000
 -21599208.73049 -16814283.10447  20296088.541    20296088.174    20296102.165
       237.000         196.000
  -6412767.21749  -4976902.51145  22820505.587    22820505.215    22820528.525
       213.000         151.000
  -4465890.66249  -3452121.95445  23829629.587    23829628.496    23829646.209
       209.000         143.000
  -3286742.33849  -2551178.48447  19832819.882    19832818.262    19832829.490
       241.000         209.000
  11750324.65649   9149079.48145  23519108.291    23519105.791    23519129.046
       205.000         139.000
 -20550085.54849 -15985413.17747  20892950.243    20892949.313    20892961.544
       238.000         198.000
 00  4 19 16 37 29.9960000  0  8G 2G26G 4G24G 5G 7G 8G 9
  -1915212.57849  -1486323.39947  20679081.246    20679079.634    20679092.206
       239.000         201.000
   2293694.12749   1791567.16246  22753534.167    22753532.985    22753548.833
       224.000         171.000
 -21707125.38749 -16898373.86747  20275552.544    20275552.202    20275566.174
       238.000         196.000
  -6552459.60349  -5085753.39745  22793922.741    22793922.430    22793945.635
       212.000         151.000
  -4580417.67149  -3541363.60445  23807835.750    23807834.561    23807852.254
       211.000         144.000
  -3276586.86949  -2543265.17447  19834752.474    19834750.831    19834762.059
       240.000         210.000
  11834334.49149   9214541.16345  23535095.323    23535092.790    23535116.099
       206.000         138.000
 -20646710.31549 -16060705.15147  20874563.064    20874562.183    20874574.444
       238.000         198.000
 00  4 19 16 37 59.9960000  0  8G 2G26G 4G24G 5G 7G 8G 9
  -1908660.17549  -1481217.71447  20680328.231    20680326.602    20680339.187
       239.000         202.000
   2335488.78549   1824134.23046  22761487.731    22761486.431    22761502.297
       225.000         170.000
 -21814562.10049 -16982090.65447  20255107.905    20255107.573    20255121.498
       238.000         196.000
  -6692049.86949  -5194524.70145  22767359.373    22767359.020    22767382.105
       213.000         151.000
  -4694910.82649  -3630578.86245  23786048.347    23786047.082    23786064.767
       209.000         144.000
  -3266127.04549  -2535114.71147  19836742.942    19836741.299    19836752.563
       241.000         209.000
  11918510.12049   9280131.98645  23551113.761    23551111.277    23551134.754
       202.000         137.000
 -20742875.96449 -16135639.37547  20856263.268    20856262.413    20856274.693
       238.000         199.000
 00  4 19 16 38 29.9960000  0  8G 2G26G 4G24G 5G 7G 8G 9
  -1901848.35349  -1475909.88247  20681624.612    20681622.936    20681635.523
       239.000         202.000
   2377470.47849   1856847.03246  22769476.812    22769475.459    22769491.315
       224.000         167.000
 -21921545.21049 -17065453.98647  20234749.617    20234749.262    20234763.138
       238.000         197.000
  -6831562.83849  -5303235.78045  22740810.681    22740810.346    22740833.258
       215.000         152.000
  -4809406.66549  -3719796.21645  23764260.446    23764259.206    23764276.867
       211.000         146.000
  -3255392.69849  -2526750.32547  19838785.691    19838784.022    19838795.300
       241.000         209.000
  12002814.82949   9345823.43045  23567156.763    23567154.337    23567177.838
       202.000         135.000
 -20838618.47549 -16210243.88247  20838044.031    20838043.166    20838055.445
       238.000         199.000
 00  4 19 16 38 59.9960000  0  8G 2G26G 4G24G 5G 7G 8G 9
  -1894756.31649  -1470383.70047  20682974.298    20682972.593    20682985.166
       239.000         201.000
   2419655.11949   1889717.95646  22777504.451    22777503.096    22777518.994
       224.000         170.000
 -22028050.76449 -17148445.20047  20214482.189    20214481.845    20214495.668
       238.000         196.000
  -6970966.75149  -5411861.87445  22714282.804    22714282.467    22714305.208
       215.000         154.000
  -4923882.72149  -3808998.16745  23742476.316    23742475.043    23742492.687
       213.000         147.000
  -3244369.28049  -2518160.69047  19840883.443    19840881.750    19840893.011
       241.000         209.000
  12087260.49449   9411624.66845  23583226.616    23583224.183    23583247.907
       201.000         134.000
 -20933908.07749 -16284495.47347  20819910.934    20819910.123    20819922.404
       238.000         199.000
 00  4 19 16 39 29.9960000  0  8G 2G26G 4G24G 5G 7G 8G 9
  -1887397.82849  -1464649.89747  20684374.639    20684372.951    20684385.523
       238.000         201.000
   2462015.97249   1922726.20146  22785565.679    22785564.316    22785580.205
       225.000         169.000
 -22134085.27349 -17231069.36547  20194304.407    20194304.045    20194317.829
       238.000         197.000
  -7110246.74849  -5520391.43145  22687778.476    22687778.101    22687800.744
       216.000         153.000
  -5038348.42749  -3898192.06545  23720694.213    23720692.947    23720710.463
       213.000         147.000
  -3233069.16549  -2509355.45047  19843033.843    19843032.142    19843043.381
       241.000         209.000
  12171817.93149   9477513.03245  23599317.777    23599315.262    23599339.038
       202.000         133.000
 -21028748.03849 -16358396.69347  20801863.461    20801862.650    20801874.932
       238.000         199.000
 00  4 19 16 39 59.9960000  0  8G 2G26G 4G24G 5G 7G 8G 9
  -1879771.47049  -1458707.37147  20685825.941    20685824.271    20685836.832
       238.000         201.000
   2504557.30549   1955875.08446  22793661.220    22793659.819    22793675.695
       223.000         167.000
 -22239650.04749 -17313327.50547  20174216.009    20174215.644    20174229.371
       238.000         197.000
  -7249400.79449  -5628822.85545  22661298.065    22661297.737    22661320.227
       216.000         153.000
  -5152806.96649  -3987380.33945  23698913.281    23698912.083    23698929.624
       210.000         146.000
  -3221485.85649  -2500329.54247  19845238.102    19845236.406    19845247.647
       241.000         209.000
  12256470.19649   9543475.28345  23615427.104    23615424.515    23615448.342
       200.000         135.000
 -21123133.44049 -16431943.71547  20783902.546    20783901.685    20783913.969
       238.000         200.000
 00  4 19 16 40 29.9960000  0  8G 2G26G 4G24G 5G 7G 8G 9
  -1871942.83249  -1452607.22547  20687315.748    20687314.088    20687326.627
       238.000         200.000
   2547242.40949   1989135.99646  22801784.127    22801782.692    22801798.595
       225.000         169.000
 -22344812.36249 -17395272.03947  20154204.189    20154203.828    20154217.503
       239.000         197.000
  -7388502.80249  -5737213.72745  22634827.572    22634827.237    22634849.619
       217.000         154.000
  -5267331.90049  -4076620.39745  23677119.812    23677118.608    23677136.011
       212.000         145.000
  -3209686.90849  -2491135.60447  19847483.367    19847481.685    19847492.943
       240.000         208.000
  12341128.41449   9609442.15445  23631537.504    23631534.922    23631558.830
       204.000         135.000
 -21217128.39249 -16505186.48547  20766015.887    20766015.028    20766027.319
       239.000         200.000
 00  4 19 16 40 59.9960000  0  8G 2G26G 4G24G 5G 7G 8G 9
  -1863861.76149  -1446310.37547  20688853.584    20688851.932    20688864.466
       238.000         200.000
   2590113.99949   2022542.21246  22809942.535    22809941.066    22809957.008
       223.000         168.000
 -22449541.48949 -17476879.02647  20134274.802    20134274.440    20134288.053
       239.000         198.000
  -7527519.86649  -5845538.39045  22608373.262    22608372.955    22608395.266
       216.000         155.000
  -5381903.06049  -4165896.44645  23655317.505    23655316.325    23655333.767
       214.000         148.000
  -3197632.45649  -2481742.56747  19849777.244    19849775.607    19849786.847
       240.000         208.000
  12425817.08049   9675432.73445  23647653.630    23647650.975    23647675.101
       202.000         136.000
 -21310700.29849 -16578099.60447  20748209.743    20748208.851    20748221.126
       239.000         200.000
 00  4 19 16 41 29.9960000  0  8G 2G26G 4G24G 5G 7G 8G 9
  -1855475.10849  -1439775.41347  20690449.586    20690447.932    20690460.467
       238.000         200.000
   2633223.17149   2056133.55246  22818146.095    22818144.654    22818160.683
       223.000         167.000
 -22553779.40549 -17558103.26147  20114438.893    20114438.529    20114452.090
       239.000         198.000
  -7666405.68049  -5953760.78245  22581943.966    22581943.634    22581965.909
       216.000         156.000
  -5496480.46049  -4255177.36745  23633513.954    23633512.802    23633530.222
       211.000         147.000
  -3185260.97949  -2472102.49547  19852131.483    19852129.849    19852141.083
       240.000         208.000
  12510589.16049   9741488.31945  23663785.689    23663782.921    23663807.338
       201.000         135.000
 -21403802.25549 -16650646.53647  20730493.018    20730492.106    20730504.354
       239.000         200.000
 00  4 19 16 41 59.9960000  0  8G 2G26G 4G24G 5G 7G 8G 9
  -1846821.76349  -1433032.64847  20692096.348    20692094.682    20692107.222
       238.000         200.000
   2676535.46549   2089883.16346  22826388.329    22826386.882    22826402.890
       224.000         167.000
 -22657568.08949 -17638977.44247  20094688.488    20094688.136    20094701.616
       239.000         198.000
  -7805212.38049  -6061921.54045  22555529.705    22555529.393    22555551.572
       217.000         157.000
  -5611106.54849  -4344496.22045  23611701.037    23611700.017    23611717.432
       211.000         147.000
  -3172611.94349  -2462246.14947  19854538.564    19854536.921    19854548.140
       241.000         208.000
  12595408.95749   9807581.07545  23679926.802    23679924.078    23679948.591
       201.000         134.000
 -21496468.81249 -16722854.19247  20712859.190    20712858.235    20712870.436
       240.000         200.000
 00  4 19 16 42 29.9960000  0  8G 2G26G 4G24G 5G 7G 8G 9
  -1837938.08249  -1426110.39447  20693786.945    20693785.254    20693797.839
       237.000         200.000
   2720004.39249   2123754.82246  22834660.377    22834658.922    22834674.985
       223.000         168.000
 -22760937.81949 -17719525.17047  20075017.833    20075017.437    20075030.891
       238.000         199.000
  -7943980.22449  -6170052.00645  22529122.814    22529122.500    22529144.662
       217.000         157.000
  -5725799.90549  -4433867.49445  23589875.489    23589874.465    23589891.778
       210.000         146.000
  -3159720.55349  -2452200.96247  19856991.762    19856990.106    19857001.339
       241.000         208.000
  12680246.77249   9873687.88045  23696071.290    23696068.592    23696093.146
       201.000         133.000
 -21588718.66549 -16794737.13847  20695304.631    20695303.654    20695315.799
       240.000         200.000
 00  4 19 16 42 59.9960000  0  8G 2G26G 4G24G 5G 7G 8G 9
  -1828807.98449  -1418996.13247  20695524.363    20695522.707    20695535.356
       237.000         200.000
   2763620.95849   2157741.52646  22842960.475    22842959.042    22842975.175
       224.000         167.000
 -22863875.13849 -17799735.95747  20055429.440    20055429.044    20055442.437
       239.000         199.000
  -8082701.06749  -6278145.84845  22502724.841    22502724.549    22502746.677
       217.000         157.000
  -5840518.92549  -4523258.77045  23568045.022    23568044.062    23568061.252
       211.000         147.000
  -3146586.42749  -2441966.62747  19859491.156    19859489.489    19859500.733
       241.000         209.000
  12765119.06949   9939821.54845  23712222.348    23712219.601    23712244.160
       201.000         133.000
 -21680529.71549 -16866278.16047  20677833.555    20677832.558    20677844.678
       240.000         201.000
 00  4 19 16 43 29.9960000  0  8G 2G26G 4G24G 5G 7G 8G 9
  -1819417.21649  -1411678.75947  20697311.382    20697309.767    20697322.484
       237.000         199.000
   2807402.18949   2191856.55046  22851292.002    22851290.490    22851306.675
       224.000         167.000
 -22966351.17049 -17879587.30047  20035928.849    20035928.427    20035941.790
       239.000         200.000
  -8221343.44949  -6386178.54745  22476341.904    22476341.581    22476363.608
       217.000         156.000
  -5955217.60249  -4612634.18645  23546218.586    23546217.505    23546234.603
       210.000         149.000
  -3133201.00849  -2431536.48047  19862038.381    19862036.696    19862047.941
       241.000         209.000
  12850057.29449  10006006.57245  23728385.954    23728383.175    23728407.954
       198.000         132.000
 -21771864.21349 -16937447.85247  20660453.176    20660452.155    20660464.244
       240.000         201.000
 00  4 19 16 43 59.9960000  0  8G 2G26G 4G24G 5G 7G 8G 9
  -1809766.31449  -1404158.68747  20699147.983    20699146.341    20699159.110
       237.000         199.000
   2851334.20049   2226089.06546  22859652.061    22859650.610    22859666.818
       220.000         164.000
 -23068374.28549 -17959085.72147  20016514.404    20016514.003    20016527.315
       238.000         200.000
  -8359901.60249  -6494145.60145  22449974.950    22449974.607    22449996.531
       218.000         157.000
  -6069887.35949  -4701987.07245  23524397.677    23524396.531    23524413.576
       214.000         149.000
  -3119579.29149  -2420922.20547  19864630.575    19864628.871    19864640.108
       241.000         209.000
  12935060.94849  10072242.61045  23744562.156    23744559.295    23744584.104
       200.000         134.000
 -21862721.13649 -17008245.40847  20643163.671    20643162.644    20643174.684
       240.000         201.000
 00  4 19 16 44 29.9960000  0  8G 2G26G 4G24G 5G 7G 8G 9
  -1799863.15849  -1396442.04647  20701032.589    20701030.934    20701043.750
       237.000         199.000
   2895394.51349   2260421.56346  22868036.587    22868035.163    22868051.434
       223.000         166.000
 -23169948.01849 -18038233.98147  19997185.502    19997185.082    19997198.387
       239.000         200.000
  -8498376.15849  -6602047.51145  22423623.813    22423623.542    22423645.403
       217.000         157.000
  -6184536.84949  -4791324.16545  23502580.494    23502579.296    23502596.347
       211.000         148.000
  -3105736.97949  -2410136.03947  19867264.719    19867263.023    19867274.260
       241.000         208.000
  13020120.86649  10138522.46545  23760749.078    23760746.152    23760771.043
       202.000         134.000
 -21953116.60649 -17078683.39247  20625961.957    20625960.934    20625972.936
       240.000         201.000
 00  4 19 16 44 59.9960000  0  8G 2G26G 4G24G 5G 7G 8G 9
  -1789702.37349  -1388524.65447  20702966.173    20702964.530    20702977.395
       237.000         199.000
   2939582.36849   2294853.41546  22876445.360    22876443.979    22876460.353
       221.000         165.000
 -23271054.61849 -18117018.24147  19977945.488    19977945.066    19977958.343
       240.000         200.000
  -8636751.11249  -6709871.77245  22397291.687    22397291.413    22397313.221
       216.000         159.000
  -6299174.00649  -4880651.63745  23480765.552    23480764.411    23480781.467
       210.000         149.000
  -3091667.51749  -2399172.87747  19869942.053    19869940.371    19869951.657
       241.000         208.000
  13105248.83449  10204855.36445  23776948.688    23776945.952    23776971.002
       198.000         132.000
 -22043054.85049 -17148765.10447  20608847.235    20608846.224    20608858.162
       240.000         201.000
 00  4 19 16 45 29.9960000  0  8G 2G26G 4G24G 5G 7G 8G 9
  -1779253.06349  -1380382.43247  20704954.716    20704953.044    20704965.935
       237.000         199.000
   2983921.52849   2329403.16646  22884882.898    22884881.568    22884898.024
       220.000         163.000
 -23371654.60949 -18195407.74947  19958801.867    19958801.445    19958814.692
       239.000         201.000
  -8774989.02049  -6817589.25845  22370985.638    22370985.372    22371007.135
       217.000         158.000
  -6413795.72349  -4969967.09245  23458953.556    23458952.483    23458969.632
       213.000         149.000
  -3077326.17849  -2387997.85747  19872671.118    19872669.448    19872680.774
       241.000         209.000
  13190481.55249  10271269.91145  23793168.198    23793165.584    23793190.946
       198.000         133.000
 -22132516.45549 -17218475.40747  20591823.269    20591822.222    20591834.076
       241.000         201.000
 00  4 19 16 45 59.9960000  0  8G 2G26G 4G24G 5G 7G 8G 9
  -1768519.13849  -1372018.42747  20706997.429    20706995.743    20707008.649
       236.000         199.000
   3028403.31649   2364064.09646  22893347.668    22893346.305    22893362.822
       220.000         164.000
 -23471747.47949 -18273402.09847  19939754.731    19939754.319    19939767.545
       239.000         201.000
  -8913110.93249  -6925216.35045  22344701.639    22344701.385    22344723.066
       218.000         158.000
  -6528426.50449  -5059289.60545  23437139.743    23437138.781    23437155.886
       211.000         148.000
  -3062719.61349  -2376616.16947  19875450.712    19875449.025    19875460.371
       240.000         208.000
  13275798.14449  10337749.80545  23809403.899    23809401.262    23809426.729
       202.000         133.000
 -22221522.63249 -17287830.82847  20574885.898    20574884.875    20574896.666
       240.000         201.000
 00  4 19 16 46 29.9960000  0  8G 2G26G 4G24G 5G 7G 8G 9
  -1757516.44449  -1363445.00547  20709091.284    20709089.574    20709102.497
       236.000         199.000
   3073024.01349   2398833.22846  22901838.834    22901837.512    22901854.067
       219.000         163.000
 -23571336.83649 -18351004.10347  19920803.387    19920803.012    19920816.186
       239.000         201.000
  -9051136.14649  -7032768.09845  22318436.065    22318435.835    22318457.388
       217.000         158.000
  -6643082.69149  -5148631.91845  23415321.321    23415320.343    23415337.377
       214.000         147.000
  -3047854.78949  -2365033.24447  19878279.431    19878277.757    19878289.102
       241.000         208.000
  13361171.32349  10404273.79045  23825650.366    23825647.675    23825673.182
       200.000         132.000
 -22310083.62749 -17356839.35947  20558033.265    20558032.264    20558043.975
       240.000         201.000
 00  4 19 16 46 59.9950000  0  8G 2G26G 4G24G 5G 7G 8G 9
  -1746228.89749  -1354649.61347  20711239.327    20711237.609    20711250.565
       237.000         199.000
   3117791.88349   2433717.05546  22910358.026    22910356.678    22910373.330
       220.000         164.000
 -23670406.83149 -18428201.40647  19901950.962    19901950.547    19901963.670
       239.000         201.000
  -9189046.39349  -7140230.25245  22292192.333    22292192.086    22292213.570
       217.000         159.000
  -6757756.62749  -5237988.08045  23393499.547    23393498.527    23393515.482
       213.000         149.000
  -3032718.77549  -2353239.00547  19881159.798    19881158.103    19881169.431
       241.000         208.000
  13446597.64749  10470839.21445  23841906.938    23841904.181    23841929.909
       198.000         133.000
 -22398177.02549 -17425483.52247  20541269.582    20541268.602    20541280.300
       240.000         202.000
 00  4 19 16 47 29.9950000  0  8G 2G26G 4G24G 5G 7G 8G 9
  -1734667.30549  -1345640.67747  20713439.504    20713437.804    20713450.780
       237.000         199.000
   3162712.04649   2468719.52546  22918906.224    22918904.845    22918921.546
       220.000         163.000
 -23768978.55949 -18505010.44947  19883193.311    19883192.896    19883206.004
       240.000         202.000
  -9326845.23449  -7247605.59845  22265969.822    22265969.578    22265990.994
       218.000         160.000
  -6872452.21749  -5327361.11145  23371673.641    23371672.565    23371689.375
       216.000         147.000
  -3017319.15549  -2341239.35047  19884090.286    19884088.600    19884099.933
       242.000         208.000
  13532061.34949  10537433.77945  23858170.534    23858167.786    23858193.682
       199.000         133.000
 -22485802.61949 -17493763.16647  20524594.897    20524593.954    20524605.654
       240.000         202.000
 00  4 19 16 47 59.9950000  0  7G 2G26G 4G24G 5G 7G 9
  -1722869.06849  -1336447.33947  20715684.740    20715683.012    20715696.027
       237.000         199.000
   3207764.66049   2503825.24346  22927479.741    22927478.256    22927495.003
       221.000         164.000
 -23867081.54049 -18581454.23147  19864524.868    19864524.455    19864537.548
       240.000         202.000
  -9464530.79749  -7354892.66545  22239768.822    22239768.616    22239789.995
       218.000         160.000
  -6987171.45849  -5416752.58345  23349843.217    23349842.096    23349858.820
       215.000         148.000
  -3001684.27649  -2329056.38047  19887065.533    19887063.849    19887075.175
       241.000         208.000
 -22572961.34849 -17561679.01647  20508009.043    20508008.150    20508019.856
       240.000         202.000
 00  4 19 16 48 29.9950000  0  7G 2G26G 4G24G 5G 7G 9
  -1710782.28249  -1327029.16447  20717984.884    20717983.144    20717996.166
       237.000         199.000
   3252995.01549   2539069.43645  22936087.110    22936085.531    22936102.261
       219.000         162.000
 -23964677.42549 -18657502.87447  19845952.932    19845952.501    19845965.594
       240.000         202.000
  -9602031.04349  -7462035.31845  22213603.138    22213602.906    22213624.320
       218.000         162.000
  -7101864.25049  -5506123.44945  23328017.770    23328016.674    23328033.368
       214.000         149.000
  -2985762.24449  -2316649.65347  19890095.429    19890093.765    19890105.089
       242.000         208.000
 -22659595.37149 -17629186.00547  20491522.983    20491522.176    20491533.894
       240.000         202.000
 00  4 19 16 48 59.9950000  0  7G 2G26G 4G24G 5G 7G 9
  -1698427.70049  -1317402.32047  20720335.987    20720334.232    20720347.267
       237.000         198.000
   3298364.73549   2574422.22945  22944720.917    22944719.307    22944736.037
       221.000         161.000
 -24061795.10549 -18733178.88947  19827472.059    19827471.571    19827484.602
       240.000         202.000
  -9739369.10449  -7569051.60745  22187468.334    22187468.070    22187489.437
       218.000         162.000
  -7216561.49249  -5595497.77545  23306191.501    23306190.418    23306207.073
       215.000         149.000
  -2969604.85349  -2304059.52447  19893170.173    19893168.472    19893179.767
       242.000         208.000
 -22745738.01449 -17696310.09147  20475130.547    20475129.719    20475141.476
       240.000         203.000
 00  4 19 16 49 29.9950000  0  7G 2G26G 4G24G 5G 7G 9
  -1685810.80949  -1307571.06747  20722737.040    20722735.253    20722748.291
       236.000         198.000
   3343885.56549   2609892.79245  22953383.488    22953381.827    22953398.520
       217.000         160.000
 -24158436.07149 -18808483.44147  19809081.900    19809081.366    19809094.334
       240.000         202.000
  -9876545.77049  -7675942.13045  22161364.171    22161363.920    22161385.270
       218.000         162.000
  -7331250.08449  -5684865.37745  23284366.937    23284365.828    23284382.382
       216.000         150.000
  -2953224.13849  -2291295.38147  19896287.405    19896285.682    19896296.952
       242.000         208.000
 -22831392.75849 -17763053.98847  20458831.016    20458830.139    20458841.890
       241.000         203.000
 00  4 19 16 49 59.9950000  0  7G 2G26G 4G24G 5G 7G 9
  -1672898.86249  -1297509.90047  20725194.165    20725192.399    20725205.431
       237.000         198.000
   3389556.01349   2645479.89345  22962074.422    22962072.804    22962089.518
       218.000         162.000
 -24254585.24449 -18883404.77947  19790785.333    19790784.750    19790797.641
       240.000         203.000
 -10013565.81349  -7782710.57546  22135289.823    22135289.596    22135310.876
       219.000         163.000
  -7445930.15449  -5774226.32645  23262543.993    23262542.835    23262559.387
       217.000         150.000
  -2936614.34049  -2278352.73747  19899448.219    19899446.466    19899457.740
       242.000         207.000
 -22916559.62549 -17829417.73247  20442624.265    20442623.380    20442635.138
       240.000         203.000
 00  4 19 16 50 29.9950000  0  7G 2G26G 4G24G 5G 7G 9
  -1659665.29149  -1287198.11947  20727712.490    20727710.733    20727723.759
       236.000         197.000
   3435370.94249   2681179.58645  22970792.916    22970791.302    22970808.072
       220.000         162.000
 -24350225.47449 -18957929.53147  19772585.550    19772584.979    19772597.847
       240.000         203.000
 -10150453.15049  -7889375.64446  22109240.781    22109240.545    22109261.698
       217.000         163.000
  -7560601.82549  -5863580.73245  23240722.522    23240721.426    23240737.926
       219.000         150.000
  -2919772.37949  -2265229.18447  19902653.187    19902651.438    19902662.685
       242.000         207.000
 -23001238.86449 -17895401.50747  20426510.315    20426509.416    20426521.186
       240.000         203.000
 00  4 19 16 50 59.9950000  0  7G 2G26G 4G24G 5G 7G 9
  -1646121.06549  -1276644.26447  20730289.931    20730288.191    20730301.234
       236.000         197.000
   3481322.55249   2716985.80845  22979537.483    22979535.825    22979552.635
       219.000         159.000
 -24445355.72649 -19032056.90347  19754482.785    19754482.222    19754495.069
       240.000         203.000
 -10287225.76149  -7995951.30446  22083213.578    22083213.289    22083234.355
       220.000         163.000
  -7675260.32349  -5952924.87945  23218903.658    23218902.490    23218918.953
       218.000         150.000
  -2902706.21449  -2251930.92547  19905900.766    19905899.035    19905910.275
       242.000         207.000
 -23085426.40449 -17961002.13847  20410489.962    20410489.031    20410500.837
       240.000         203.000
 00  4 19 16 51 29.9950000  0  7G 2G26G 4G24G 5G 7G 9
  -1632314.94049  -1265886.33347  20732917.205    20732915.480    20732928.556
       236.000         197.000
   3527354.42149   2752854.57245  22988297.270    22988295.560    22988312.430
       218.000         158.000
 -24540009.63149 -19105813.10047  19736470.698    19736470.113    19736482.959
       240.000         203.000
 -10423920.25649  -8102466.09246  22057201.236    22057200.910    22057221.867
       220.000         163.000
  -7789939.69149  -6042285.28245  23197080.806    23197079.570    23197096.045
       216.000         151.000
  -2885426.93849  -2238466.60847  19909188.930    19909187.190    19909198.416
       242.000         207.000
 -23169149.43649 -18026240.81947  20394558.018    20394557.052    20394568.880
       241.000         204.000
 00  4 19 16 51 59.9950000  0  7G 2G26G 4G24G 5G 7G 9
  -1618230.82049  -1254911.78447  20735597.403    20735595.662    20735608.769
       237.000         197.000
   3573455.27949   2788777.08945  22997070.152    22997068.456    22997085.434
       217.000         160.000
 -24634149.98349 -19179169.12347  19718556.298    19718555.729    19718568.558
       240.000         203.000
 -10560521.05849  -8208907.87546  22031206.654    22031206.350    22031227.252
       221.000         165.000
  -7904630.26949  -6131654.42045  23175255.828    23175254.574    23175271.002
       218.000         150.000
  -2867911.60249  -2224818.35547  19912522.057    19912520.295    19912531.523
       242.000         207.000
 -23252381.15249 -18091096.65947  20378719.568    20378718.554    20378730.420
       242.000         204.000
 00  4 19 16 52 29.9950000  0  7G 2G26G 4G24G 5G 7G 9
  -1603906.44449  -1243750.00147  20738323.347    20738321.589    20738334.706
       236.000         197.000
   3619615.11549   2824745.53445  23005854.283    23005852.584    23005869.682
       216.000         161.000
 -24727785.43549 -19252131.71547  19700737.933    19700737.403    19700750.200
       240.000         202.000
 -10697032.39149  -8315279.95746  22005229.123    22005228.869    22005249.640
       220.000         165.000
  -8019342.98149  -6221040.80745  23153426.626    23153425.384    23153441.714
       217.000         150.000
  -2850189.43649  -2211008.93047  19915894.574    19915892.784    19915903.980
       242.000         207.000
 -23335131.39149 -18155577.31647  20362972.719    20362971.685    20362983.577
       241.000         203.000
 00  4 19 16 52 59.9950000  0  7G 2G26G 4G24G 5G 7G 9
  -1589308.29449  -1232374.89147  20741101.361    20741099.598    20741112.730
       236.000         197.000
   3665877.89149   2860794.18945  23014657.916    23014656.261    23014673.527
       218.000         161.000
 -24820865.89849 -19324661.84747  19683025.225    19683024.707    19683037.475
       240.000         203.000
 -10833379.50749  -8421524.05746  21979282.893    21979282.591    21979303.215
       221.000         165.000
  -8134035.97749  -6310411.84545  23131601.193    23131599.920    23131616.149
       218.000         151.000
  -2832217.94949  -2197005.22847  19919314.549    19919312.719    19919323.880
       242.000         207.000
 -23417355.53649 -18219648.03447  20347326.021    20347324.944    20347336.835
       242.000         204.000
 00  4 19 16 53 29.9950000  0  7G 2G26G 4G24G 5G 7G 9
  -1574471.33849  -1220813.71347  20743924.853    20743923.071    20743936.209
       237.000         197.000
   3712193.28449   2896883.85545  23023471.599    23023469.946    23023487.354
       219.000         159.000
 -24913420.29749 -19396782.06347  19665412.663    19665412.123    19665424.842
       240.000         203.000
 -10969586.95849  -8527659.34946  21953363.093    21953362.868    21953383.380
       220.000         165.000
  -8248745.38349  -6399795.63545  23109772.618    23109771.416    23109787.511
       220.000         151.000
  -2814043.10149  -2182843.06447  19922773.191    19922771.344    19922782.499
       242.000         208.000
 -23499100.06049 -18283345.02447  20331770.549    20331769.458    20331781.311
       242.000         204.000
 00  4 19 16 53 59.9950000  0  7G 2G26G 4G24G 5G 7G 9
  -1559385.38149  -1209058.50947  20746795.727    20746793.926    20746807.072
       237.000         197.000
   3758589.75249   2933036.71345  23032300.716    23032299.069    23032316.516
       220.000         158.000
 -25005456.75649 -19468498.68847  19647898.656    19647898.113    19647910.788
       241.000         203.000
 -11105635.05249  -8633670.44946  21927473.586    21927473.469    21927493.939
       221.000         165.000
  -8363468.14849  -6489189.85945  23087941.642    23087940.370    23087956.340
       218.000         151.000
  -2795681.96749  -2168535.74447  19926267.294    19926265.430    19926276.588
       242.000         208.000
 -23580359.86949 -18346664.32547  20316307.354    20316306.221    20316318.015
       243.000         204.000
 00  4 19 16 54 29.9950000  0  7G 2G26G 4G24G 5G 7G 9
  -1544045.21749  -1197105.22947  20749714.977    20749713.157    20749726.312
       236.000         197.000
   3805079.55449   2969262.29345  23041147.608    23041146.009    23041163.475
       217.000         157.000
 -25096997.50049 -19539829.04947  19630479.002    19630478.437    19630491.053
       241.000         203.000
 -11241508.58349  -8739545.54346  21901617.371    21901617.294    21901637.691
       221.000         166.000
  -8478199.77549  -6578590.99445  23066108.881    23066107.589    23066123.455
       217.000         151.000
  -2777126.29749  -2154076.83947  19929798.335    19929796.504    19929807.677
       242.000         208.000
 -23661140.53749 -18409610.26647  20300935.288    20300934.175    20300945.922
       242.000         204.000
 00  4 19 16 54 59.9950000  0  7G 2G26G 4G24G 5G 7G 9
  -1528420.91849  -1184930.53247  20752688.258    20752686.453    20752699.636
       236.000         197.000
   3851675.70549   3005570.72745  23050014.732    23050013.140    23050030.699
       216.000         156.000
 -25188029.76949 -19610763.20347  19613156.063    19613155.514    19613168.067
       241.000         203.000
 -11377186.00149  -8845267.83046  21875798.527    21875798.427    21875818.733
       222.000         163.000
  -8592916.85749  -6667980.78445  23044278.879    23044277.566    23044293.378
       217.000         152.000
  -2758339.74949  -2139438.03047  19933373.354    19933371.520    19933382.719
       242.000         208.000
 -23741430.84449 -18472174.10747  20285656.542    20285655.414    20285667.134
       242.000         204.000
 00  4 19 16 55 29.9950000  0  7G 2G26G 4G24G 5G 7G 9
  -1512533.73049  -1172550.98647  20755711.537    20755709.759    20755722.948
       236.000         197.000
   3898374.38449   3041959.03645  23058901.300    23058899.762    23058917.476
       217.000         157.000
 -25278574.21949 -19681317.23347  19595926.011    19595925.426    19595937.930
       241.000         203.000
 -11512699.88949  -8950862.70346  21850010.774    21850010.676    21850030.875
       222.000         164.000
  -8707630.07449  -6757367.57945  23022449.612    23022448.289    23022464.040
       217.000         153.000
  -2739342.36849  -2124634.92847  19936988.473    19936986.652    19936997.858
       242.000         207.000
 -23821243.92649 -18534366.07647  20270468.525    20270467.446    20270479.174
       242.000         205.000
 00  4 19 16 55 59.9950000  0  7G 2G26G 4G24G 5G 7G 9
  -1496366.63449  -1159953.33947  20758788.093    20758786.339    20758799.541
       235.000         197.000
   3945202.57049   3078448.29745  23067812.497    23067811.040    23067828.798
       215.000         156.000
 -25368609.40349 -19751474.43147  19578792.838    19578792.246    19578804.694
       241.000         203.000
 -11648035.57149  -9056318.71646  21824256.985    21824256.877    21824276.898
       223.000         166.000
  -8822330.74049  -6846744.58745  23000622.543    23000621.357    23000637.096
       215.000         153.000
  -2720106.55249  -2109646.03547  19940648.971    19940647.151    19940658.377
       242.000         208.000
 -23900564.82249 -18596174.52747  20255374.237    20255373.159    20255384.889
       242.000         205.000
 00  4 19 16 56 29.9950000  0  7G 2G26G 4G24G 5G 7G 9
  -1479938.88249  -1147152.58647  20761914.260    20761912.510    20761925.750
       235.000         196.000
   3992124.03449   3115010.20245  23076741.586    23076740.084    23076757.907
       216.000         155.000
 -25458134.29249 -19821233.99947  19561756.760    19561756.169    19561768.570
       241.000         203.000
 -11783222.42649  -9161658.76646  21798531.557    21798531.394    21798551.297
       223.000         166.000
  -8937044.53249  -6936131.81745  22978792.984    22978791.887    22978807.783
       217.000         155.000
  -2700640.88149  -2094478.03747  19944353.196    19944351.387    19944362.643
       242.000         208.000
 -23979411.38649 -18657613.38047  20240370.151    20240369.116    20240380.858
       242.000         205.000
 00  4 19 16 56 59.9950000  0  7G 2G26G 4G24G 5G 7G 9
  -1463229.79549  -1134132.61547  20765094.007    20765092.223    20765105.473
       236.000         196.000
   4039155.64249   3151657.93745  23085691.654    23085690.077    23085707.941
       217.000         155.000
 -25547107.53249 -19890563.71747  19544825.658    19544825.063    19544837.416
       241.000         203.000
 -11918241.71849  -9266868.24746  21772837.960    21772837.800    21772857.650
       223.000         166.000
  -9051748.01749  -7025511.02445  22956965.510    22956964.423    22956980.352
       217.000         154.000
  -2680944.71749  -2079130.44247  19948101.296    19948099.492    19948110.758
       241.000         207.000
 -24057747.63949 -18718654.59247  20225463.153    20225462.163    20225473.926
       242.000         205.000
 00  4 19 16 57 29.9950000  0  7G 2G26G 4G24G 5G 7G 9
  -1446226.24849  -1120883.20147  20768329.769    20768327.949    20768341.218
       235.000         195.000
   4086295.13449   3188389.73545  23094662.238    23094660.658    23094678.572
       218.000         156.000
 -25635510.66749 -19959449.20047  19528003.069    19528002.460    19528014.769
       241.000         203.000
 -12053077.73749  -9371934.93846  21747179.204    21747179.064    21747198.799
       223.000         165.000
  -9166441.54749  -7114882.48245  22935140.054    22935138.889    22935154.734
       217.000         154.000
  -2661013.16749  -2063599.42747  19951894.193    19951892.382    19951903.663
       242.000         207.000
 -24135538.42049 -18779270.76747  20210660.034    20210659.049    20210670.794
       242.000         206.000
 00  4 19 16 57 59.9950000  0  7G 2G26G 4G24G 5G 7G 9
  -1428935.10849  -1107409.67947  20771620.211    20771618.410    20771631.694
       235.000         195.000
   4133496.84049   3225169.99945  23103644.637    23103643.025    23103661.057
       217.000         156.000
 -25723367.94049 -20027909.34047  19511284.282    19511283.705    19511295.999
       241.000         204.000
 -12187732.70749  -9476860.54046  21721554.953    21721554.805    21721574.392
       224.000         166.000
  -9281148.70049  -7204264.54845  22913312.018    22913310.755    22913326.531
       217.000         155.000
  -2640866.76249  -2047900.99447  19955727.922    19955726.133    19955737.433
       241.000         206.000
 -24212795.12849 -18839470.77547  20195958.583    20195957.599    20195969.280
       242.000         206.000
 00  4 19 16 58 29.9950000  0  7G 2G26G 4G24G 5G 7G 9
  -1411318.64349  -1093682.66847  20774972.539    20774970.770    20774984.077
       235.000         193.000
   4180787.65949   3262019.70845  23112644.069    23112642.407    23112660.486
       219.000         157.000
 -25810645.73649 -20095917.94347  19494675.830    19494675.238    19494687.495
       241.000         204.000
 -12322179.89449  -9581624.26046  21695970.320    21695970.093    21695989.559
       225.000         166.000
  -9395829.77349  -7293626.28145  22891488.801    22891487.563    22891503.314
       217.000         154.000
  -2620491.78549  -2032024.45247  19959605.212    19959603.398    19959614.705
       241.000         206.000
 -24289474.86949 -18899221.20147  20181366.916    20181365.906    20181377.549
       243.000         206.000
 00  4 19 16 58 59.9950000  0  7G 2G26G 4G24G 5G 7G 9
  -1393412.45349  -1079729.89947  20778380.046    20778378.276    20778391.586
       235.000         194.000
   4228130.61949   3298910.03845  23121653.332    23121651.668    23121669.805
       217.000         153.000
 -25897381.48349 -20163504.17647  19478170.509    19478169.910    19478182.121
       241.000         204.000
 -12456456.65549  -9686255.17346  21670418.061    21670417.795    21670437.121
       224.000         166.000
  -9510516.78849  -7382992.65845  22869664.523    22869663.244    22869678.932
       216.000         154.000
  -2599932.40049  -2016004.21047  19963517.572    19963515.774    19963527.085
       241.000         206.000
 -24365615.62249 -18958551.63747  20166877.766    20166876.766    20166888.393
       243.000         206.000
 00  4 19 16 59 29.9950000  0  7G 2G26G 4G24G 5G 7G 9
  -1375234.21849  -1065565.13147  20781839.303    20781837.540    20781850.863
       235.000         193.000
   4275516.68449   3335833.96245  23130670.705    23130669.067    23130687.259
       215.000         150.000
 -25983596.30649 -20230684.48747  19461764.365    19461763.740    19461775.914
       241.000         204.000
 -12590577.74449  -9790764.79746  21644895.492    21644895.167    21644914.322
       225.000         167.000
  -9625226.72049  -7472376.87445  22847835.683    22847834.537    22847850.184
       218.000         155.000
  -2579192.72149  -1999843.48247  19967464.257    19967462.445    19967473.779
       241.000         206.000
 -24441251.82049 -19017488.91147  20152484.666    20152483.656    20152495.271
       242.000         206.000
 00  4 19 16 59 59.9950000  0  7G 2G26G 4G24G 5G 7G 9
  -1356791.31749  -1051194.14847  20785348.950    20785347.173    20785360.494
       235.000         192.000
   4322953.60649   3372797.54045  23139697.780    23139696.186    23139714.431
       217.000         150.000
 -26069285.66749 -20297455.35347  19445458.197    19445457.561    19445469.685
       242.000         205.000
 -12724538.77649  -9895149.70246  21619403.315    21619402.983    21619421.993
       224.000         167.000
  -9739949.81949  -7561771.37645  22826004.505    22826003.334    22826018.988
       218.000         156.000
  -2558287.05149  -1983553.41147  19971442.499    19971440.695    19971452.031
       241.000         206.000
 -24516409.31949 -19076053.17947  20138182.630    20138181.646    20138193.261
       243.000         207.000
 00  4 19 17  0 29.9950000  0  7G 2G26G 4G24G 5G 7G 9
  -1338065.65349  -1036602.82447  20788912.422    20788910.603    20788923.960
       235.000         193.000
   4370484.60949   3409834.41345  23148742.847    23148741.221    23148759.523
       216.000         156.000
 -26154421.08749 -20363794.57647  19429257.469    19429256.795    19429268.884
       242.000         205.000
 -12858318.33549  -9999393.20546  21593945.676    21593945.318    21593964.245
       225.000         168.000
  -9854664.52049  -7651159.33745  22804174.897    22804173.707    22804189.421
       217.000         155.000
  -2537187.34749  -1967112.13947  19975457.710    19975455.889    19975467.218
       242.000         206.000
 -24591066.56749 -19134227.63447  20123975.856    20123974.822    20123986.440
       243.000         207.000
 00  4 19 17  0 59.9950000  0  7G 2G26G 4G24G 5G 7G 9
  -1319053.14049  -1021787.99147  20792530.459    20792528.639    20792542.019
       234.000         192.000
   4418107.53249   3446942.87645  23157805.427    23157803.794    23157822.173
       215.000         156.000
 -26239020.52049 -20429716.14847  19413158.702    19413158.024    19413170.055
       241.000         205.000
 -12991897.90549 -10103480.89346  21568526.141    21568525.725    21568544.514
       224.000         168.000
  -9969363.67249  -7740535.16045  22782348.239    22782347.047    22782362.860
       218.000         155.000
  -2515871.25749  -1950502.26147  19979514.086    19979512.258    19979523.582
       241.000         205.000
 -24665219.16649 -19192008.86347  20109865.112    20109864.048    20109875.650
       243.000         207.000
 00  4 19 17  1 29.9950000  0  7G 2G26G 4G24G 5G 7G 9
  -1299759.23749  -1006753.88447  20796202.040    20796200.230    20796213.625
       234.000         192.000
   4465812.56849   3484115.33645  23166883.623    23166881.954    23166900.421
       217.000         157.000
 -26323094.50449 -20495228.28547  19397159.888    19397159.227    19397171.223
       241.000         205.000
 -13125269.00149 -10207406.12846  21543146.222    21543145.818    21543164.506
       225.000         169.000
 -10084044.55549  -7829896.76845  22760525.095    22760523.905    22760539.690
       216.000         158.000
  -2494342.60349  -1933726.74947  19983610.883    19983609.065    19983620.420
       241.000         206.000
 -24738872.39649 -19249400.97247  20095849.443    20095848.326    20095859.906
       243.000         207.000
 00  4 19 17  1 59.9950000  0  7G 2G26G 4G24G 5G 7G 9
  -1280192.45449   -991507.14347  20799925.560    20799923.748    20799937.164
       235.000         192.000
   4513575.08749   3521332.59945  23175972.763    23175971.108    23175989.619
       216.000         156.000
 -26406642.12049 -20560330.26647  19381261.257    19381260.596    19381272.551
       242.000         204.000
 -13258444.23049 -10311178.75746  21517803.633    21517803.200    21517821.758
       225.000         171.000
 -10198718.81149  -7919253.20345  22738703.098    22738701.961    22738717.861
       216.000         157.000
  -2472607.46849  -1916790.34547  19987747.024    19987745.183    19987756.554
       242.000         206.000
 -24812016.06049 -19306396.01847  20081930.759    20081929.569    20081941.140
       243.000         207.000
 00  4 19 17  2 29.9950000  0  7G 2G26G 4G24G 5G 7G 9
  -1260366.36449   -976058.34847  20803698.430    20803696.628    20803710.036
       235.000         192.000
   4561363.94849   3558570.38645  23185066.828    23185065.238    23185083.823
       217.000         158.000
 -26489676.17449 -20625032.06547  19365460.334    19365459.689    19365471.605
       241.000         204.000
 -13391452.83549 -10414821.54846  21492492.726    21492492.286    21492510.759
       225.000         171.000
 -10313400.76549  -8008615.62245  22716879.701    22716878.588    22716894.522
       216.000         159.000
  -2450661.64149  -1899689.76947  19991923.253    19991921.392    19991932.771
       242.000         206.000
 -24884641.79649 -19362987.48147  20068110.563    20068109.354    20068120.914
       242.000         207.000
 00  4 19 17  2 59.9950000  0  7G 2G26G 4G24G 5G 7G 9
  -1240249.27449   -960382.79747  20807526.715    20807524.884    20807538.281
       235.000         192.000
   4609199.85249   3595844.82445  23194169.941    23194168.322    23194187.048
       218.000         158.000
 -26572143.89049 -20689292.55847  19349767.200    19349766.551    19349778.451
       241.000         204.000
 -13524249.75949 -10518299.41246  21467222.097    21467221.652    21467240.040
       226.000         173.000
 -10428040.56949  -8097945.20445  22695064.399    22695063.260    22695079.232
       217.000         160.000
  -2428467.27849  -1882395.52047  19996146.776    19996144.906    19996156.289
       242.000         206.000
 -24956713.82349 -19419147.48547  20054395.688    20054394.477    20054406.039
       243.000         207.000
 00  4 19 17  3 29.9950000  0  7G 2G26G 4G24G 5G 7G 9
  -1219896.79949   -944523.84247  20811399.814    20811397.924    20811411.324
       235.000         192.000
   4657028.22049   3633113.37945  23203271.574    23203269.939    23203288.813
       216.000         156.000
 -26654058.61749 -20753122.14847  19334179.286    19334178.632    19334190.539
       241.000         204.000
 -13656883.23849 -10621649.91846  21441982.555    21441982.138    21442000.460
       226.000         173.000
 -10542691.99949  -8187283.84845  22673246.964    22673245.795    22673261.648
       218.000         159.000
  -2406087.08649  -1864956.47347  20000405.679    20000403.788    20000415.177
       242.000         206.000
 -25028280.65449 -19474913.83047  20040777.010    20040775.782    20040787.291
       243.000         207.000
 00  4 19 17  3 59.9950000  0  7G 2G26G 4G24G 5G 7G 9
  -1199296.18349   -928471.52647  20815320.092    20815318.187    20815331.586
       235.000         191.000
   4704853.31249   3670379.38445  23212372.492    23212370.916    23212389.891
       214.000         153.000
 -26735402.58049 -20816506.99247  19318700.003    19318699.345    19318711.259
       241.000         204.000
 -13789343.40949 -10724865.40046  21416776.072    21416775.606    21416793.844
       227.000         174.000
 -10657341.66549  -8276621.12045  22651430.029    22651428.661    22651444.442
       221.000         159.000
  -2383517.38749  -1847369.76747  20004700.614    20004698.725    20004710.139
       241.000         206.000
 -25099328.34149 -19530275.65447  20027257.127    20027255.863    20027267.310
       243.000         206.000
 00  4 19 17  4 29.9950000  0  7G 2G26G 4G24G 5G 7G 9
  -1178427.87449   -912210.61147  20819291.278    20819289.393    20819302.792
       234.000         190.000
   4752685.37049   3707650.84245  23221474.830    23221473.268    23221492.284
       218.000         157.000
 -26816173.05649 -20879444.96047  19303329.836    19303329.188    19303341.097
       241.000         204.000
 -13921606.59749 -10827927.39346  21391607.059    21391606.565    21391624.694
       226.000         175.000
 -10771972.85349  -8365943.98245  22629616.518    22629615.055    22629630.726
       220.000         160.000
  -2360764.71449  -1829640.48047  20009030.373    20009028.462    20009039.901
       241.000         206.000
 -25169854.00049 -19585230.70247  20013836.503    20013835.251    20013846.665
       243.000         206.000
 00  4 19 17  4 59.9950000  0  7G 2G26G 4G24G 5G 7G 9
  -1157257.73449   -895714.51147  20823319.878    20823318.017    20823331.436
       234.000         190.000
   4800554.87249   3744951.47845  23230584.358    23230582.748    23230601.873
       219.000         158.000
 -26896353.95449 -20941923.51447  19288071.854    19288071.216    19288083.100
       240.000         204.000
 -14053627.74349 -10930800.78946  21366484.091    21366483.588    21366501.641
       226.000         175.000
 -10886556.68149  -8455229.96745  22607811.783    22607810.385    22607826.010
       217.000         159.000
  -2337825.82249  -1811766.08547  20013395.598    20013393.668    20013405.096
       241.000         205.000
 -25239846.16749 -19639770.03647  20000517.395    20000516.161    20000527.557
       243.000         206.000
 00  4 19 17  5 29.9950000  0  7G 2G26G 4G24G 5G 7G 9
  -1135812.21149   -879003.83347  20827400.900    20827399.056    20827412.485
       234.000         190.000
   4848427.75049   3782254.71945  23239694.562    23239692.865    23239712.076
       216.000         155.000
 -26975991.00949 -21003978.29747  19272917.389    19272916.736    19272928.596
       241.000         205.000
 -14185457.07049 -11033524.71746  21341397.635    21341397.108    21341415.115
       227.000         176.000
 -11001143.30149  -8544518.11845  22586006.360    22586005.127    22586020.758
       218.000         161.000
  -2314752.91149  -1793787.26147  20017786.247    20017784.346    20017795.785
       241.000         205.000
 -25309343.01549 -19693923.40947  19987292.560    19987291.356    19987302.736
       243.000         207.000
 00  4 19 17  5 59.9950000  0  7G 2G26G 4G24G 5G 7G 9
  -1114087.21849   -862075.39147  20831535.081    20831533.245    20831546.677
       233.000         189.000
   4896305.61649   3819561.85345  23248805.628    23248803.911    23248823.270
       218.000         159.000
 -27055104.71549 -21065625.27747  19257862.489    19257861.843    19257873.716
       240.000         204.000
 -14317094.05349 -11136098.78346  21316347.806    21316347.250    21316365.169
       228.000         176.000
 -11115744.79349  -8633817.86745  22564198.193    22564197.049    22564212.656
       219.000         161.000
  -2291550.84149  -1775707.79847  20022201.462    20022199.586    20022211.065
       241.000         205.000
 -25378342.73749 -19747689.41147  19974162.318    19974161.128    19974172.495
       243.000         207.000
 00  4 19 17  6 29.9950000  0  7G 2G26G 4G24G 5G 7G 9
  -1091987.61849   -844855.04047  20835740.521    20835738.716    20835752.170
       233.000         189.000
   4944293.48349   3856954.69845  23257937.790    23257935.981    23257955.492
       219.000         160.000
 -27133607.50049 -21126796.21347  19242923.869    19242923.209    19242935.079
       240.000         204.000
 -14448430.82349 -11238438.89546  21291355.027    21291354.484    21291372.354
       227.000         177.000
 -11230279.13849  -8723065.28945  22542402.921    22542401.784    22542417.321
       219.000         159.000
  -2268122.41749  -1757451.94847  20026659.778    20026657.910    20026669.420
       241.000         205.000
 -25446735.38149 -19800982.36747  19961147.624    19961146.440    19961157.810
       243.000         207.000
 00  4 19 17  6 59.9950000  0  7G 2G26G 4G24G 5G 7G 9
  -1069593.44849   -827405.16747  20840002.015    20840000.217    20840013.730
       232.000         188.000
   4992326.64749   3894382.86145  23267078.526    23267076.670    23267096.242
       219.000         157.000
 -27211571.72649 -21187547.49647  19228087.713    19228087.053    19228098.923
       240.000         204.000
 -14579539.73949 -11340601.47346  21266405.640    21266405.107    21266422.925
       228.000         177.000
 -11344819.04249  -8812317.04045  22520606.720    22520605.478    22520620.889
       219.000         160.000
  -2244535.49449  -1739072.59547  20031148.290    20031146.413    20031157.958
       241.000         206.000
 -25514584.49749 -19853851.79747  19948236.292    19948235.154    19948246.533
       243.000         207.000
 00  4 19 17  7 29.9950000  0  7G 2G26G 4G24G 5G 7G 9
  -1046904.65549   -809725.72147  20844319.575    20844317.819    20844331.362
       232.000         188.000
   5040415.13949   3931854.10945  23276229.569    23276227.820    23276247.469
       215.000         155.000
 -27288970.98249 -21247858.55247  19213359.054    19213358.399    19213370.263
       241.000         205.000
 -14710413.71449 -11442580.98546  21241501.033    21241500.464    21241518.187
       228.000         177.000
 -11459366.67149  -8901574.80645  22498808.994    22498807.675    22498823.043
       220.000         161.000
  -2220777.03949  -1720559.57847  20035669.457    20035667.545    20035679.111
       241.000         205.000
 -25581865.25149 -19906278.34947  19935433.183    19935432.036    19935443.378
       243.000         206.000
 00  4 19 17  7 59.9950000  0  7G 2G26G 4G24G 5G 7G 9
  -1023948.70949   -791838.09847  20848688.009    20848686.256    20848699.833
       232.000         188.000
   5088537.60549   3969351.84045  23285387.015    23285385.332    23285405.116
       214.000         153.000
 -27365816.81649 -21307738.36947  19198735.694    19198735.047    19198746.935
       240.000         205.000
 -14841056.61449 -11544380.44546  21216640.338    21216639.759    21216657.414
       227.000         177.000
 -11573927.37049  -8990842.77745  22477008.750    22477007.394    22477022.700
       218.000         160.000
  -2196848.82749  -1701914.28547  20040222.896    20040220.990    20040232.555
       240.000         205.000
 -25648575.38649 -19958260.26647  19922738.614    19922737.494    19922748.814
       242.000         206.000
 00  4 19 17  8 29.9950000  0  7G 2G26G 4G24G 5G 7G 9
  -1000696.95749   -773719.97447  20853112.733    20853110.979    20853124.613
       231.000         188.000
   5136724.58849   4006899.86545  23294556.858    23294555.194    23294575.038
       216.000         154.000
 -27442065.46849 -21367152.84747  19184226.004    19184225.360    19184237.254
       241.000         205.000
 -14971433.09349 -11645972.28446  21191830.346    21191829.768    21191847.385
       228.000         178.000
 -11688447.25449  -9080078.92845  22455216.179    22455214.893    22455230.174
       218.000         162.000
  -2172708.46049  -1683103.68147  20044816.650    20044814.781    20044826.383
       240.000         204.000
 -25714682.27649 -20009772.11047  19910158.855    19910157.757    19910169.044
       242.000         207.000
 00  4 19 17  8 59.9950000  0  7G 2G26G 4G24G 5G 7G 9
   -977169.73849   -755387.20346  20857589.903    20857588.139    20857601.817
       231.000         187.000
   5184953.27149   4044480.36645  23303734.672    23303733.049    23303752.889
       219.000         156.000
 -27517712.17449 -21426098.28147  19169830.878    19169830.231    19169842.120
       241.000         205.000
 -15101572.48249 -11747379.39246  21167065.469    21167064.883    21167082.424
       228.000         177.000
 -11802931.36249  -9169287.19545  22433430.370    22433429.182    22433444.441
       219.000         161.000
  -2148371.39449  -1664139.80947  20049447.826    20049446.004    20049457.632
       240.000         204.000
 -25780221.61149 -20060841.71547  19897687.185    19897686.030    19897697.287
       244.000         207.000
 00  4 19 17  9 29.9950000  0  7G 2G26G 4G24G 5G 7G 9
   -953447.25549   -736902.29046  20862104.271    20862102.473    20862116.187
       232.000         187.000
   5233127.32149   4082018.28345  23312902.130    23312900.523    23312920.394
       217.000         158.000
 -27592829.69349 -21484631.36547  19155536.512    19155535.816    19155547.680
       241.000         206.000
 -15231554.54649 -11848663.90446  21142330.565    21142329.953    21142347.421
       228.000         177.000
 -11917466.76349  -9258535.44945  22411634.970    22411633.727    22411648.944
       220.000         161.000
  -2123912.74349  -1645081.19447  20054102.166    20054100.358    20054111.992
       240.000         204.000
 -25845287.11849 -20111542.10447  19885305.640    19885304.456    19885315.687
       243.000         207.000
 00  4 19 17  9 59.9950000  0  7G 2G26G 4G24G 5G 7G 9
   -929461.75749   -718212.42846  20866668.672    20866666.865    20866680.601
       231.000         187.000
   5281304.05149   4119558.28345  23322070.095    23322068.437    23322088.371
       216.000         154.000
 -27667375.56649 -21542719.01147  19141350.914    19141350.183    19141361.998
       241.000         206.000
 -15361309.64949 -11949771.55246  21117638.851    21117638.224    21117655.628
       228.000         177.000
 -12031980.32949  -9347766.68145  22389843.822    22389842.468    22389857.574
       220.000         161.000
  -2099273.43149  -1625881.81047  20058790.926    20058789.101    20058800.763
       240.000         204.000
 -25909829.90949 -20161835.18847  19873023.551    19873022.370    19873033.582
       243.000         207.000
 00  4 19 17 10 29.9950000  0  7G 2G26G 4G24G 5G 7G 9
   -905217.49449   -699320.94447  20871282.310    20871280.482    20871294.247
       231.000         188.000
   5329455.32349   4157078.43645  23331233.314    23331231.530    23331251.536
       216.000         151.000
 -27741375.80449 -21600381.49147  19127269.102    19127268.374    19127280.162
       240.000         205.000
 -15490851.13849 -12050712.75146  21092987.677    21092987.107    21093004.470
       229.000         178.000
 -12146495.48949  -9436999.15945  22368052.220    22368050.885    22368065.918
       220.000         162.000
  -2074487.34849  -1606568.05147  20063507.623    20063505.806    20063517.462
       240.000         203.000
 -25973881.15649 -20211745.25147  19860835.040    19860833.820    19860845.013
       244.000         207.000
 00  4 19 17 10 59.9950000  0  7G 2G26G 4G24G 5G 7G 9
   -880650.91749   -680178.30646  20875957.243    20875955.435    20875969.255
       230.000         187.000
   5377623.13249   4194611.50845  23340399.631    23340397.797    23340417.755
       217.000         147.000
 -27814777.17749 -21657577.32147  19113301.196    19113300.513    19113312.301
       241.000         206.000
 -15620128.61849 -12151448.21146  21068386.842    21068386.221    21068403.557
       228.000         178.000
 -12260967.72349  -9526198.18445  22346268.679    22346267.416    22346282.473
       219.000         161.000
  -2049504.78349  -1587101.19647  20068261.748    20068259.878    20068271.554
       240.000         203.000
 -26037384.30949 -20261228.22447  19848750.790    19848749.583    19848760.745
       243.000         207.000
 00  4 19 17 11 29.9950000  0  8G 2G26G 4G24G 5G 7G 9G16
   -855788.80949   -660805.38246  20880688.388    20880686.617    20880700.490
       231.000         187.000
   5425764.05549   4232123.63545  23349560.936    23349558.957    23349578.869
       216.000         148.000
 -27887623.22449 -21714340.43547  19099438.996    19099438.324    19099450.109
       240.000         206.000
 -15749163.03249 -12251994.28246  21043832.248    21043831.603    21043848.885
       229.000         178.000
 -12375423.84849  -9615384.65445  22324488.180    22324487.033    22324502.068
       219.000         162.000
  -2024359.39749  -1567507.47547  20073046.834    20073044.952    20073056.626
       240.000         204.000
 -26100352.01049 -20310293.96847  19836768.394    19836767.194    19836778.353
       244.000         208.000
  -3542890.88559  -2741858.63855  23576847.056    23576845.966    23576869.922
       204.000         136.000
 00  4 19 17 11 59.9950000  0  8G 2G26G 4G24G 5G 7G 9G16
   -830613.02949   -641188.03246  20885479.258    20885477.478    20885491.409
       230.000         187.000
   5473894.72349   4269627.77645  23358720.151    23358718.177    23358738.065
       214.000         148.000
 -27959882.99149 -21770646.70747  19085688.352    19085687.697    19085699.475
       241.000         206.000
 -15877927.57849 -12352330.05646  21019328.934    21019328.337    21019345.582
       229.000         178.000
 -12489828.28949  -9704530.85945  22302717.499    22302716.472    22302731.535
       220.000         161.000
  -1999034.71249  -1547774.02947  20077865.995    20077864.132    20077875.811
       240.000         203.000
 -26162743.24449 -20358910.51247  19824895.712    19824894.523    19824905.700
       243.000         208.000
  -3626028.62549  -2806641.11745  23561026.306    23561025.176    23561049.112
       206.000         139.000
 00  4 19 17 12 29.9950000  0  8G 2G26G 4G24G 5G 7G 9G16
   -805179.19449   -621369.59146  20890319.268    20890317.479    20890331.432
       231.000         187.000
   5521961.62949   4307082.22945  23367867.175    23367865.273    23367885.164
       214.000         148.000
 -28031577.13449 -21826512.23747  19072045.368    19072044.721    19072056.499
       240.000         206.000
 -16006479.75249 -12452500.33946  20994866.075    20994865.475    20994882.709
       228.000         178.000
 -12604228.53249  -9793673.77145  22280947.762    22280946.704    22280961.787
       221.000         162.000
  -1973567.23049  -1527929.32347  20082712.320    20082710.458    20082722.167
       240.000         203.000
 -26224599.89749 -20407110.50247  19813124.759    19813123.580    19813134.775
       243.000         208.000
  -3708937.93349  -2871245.60845  23545249.033    23545247.903    23545271.845
       204.000         141.000
 00  4 19 17 12 59.9950000  0  8G 2G26G 4G24G 5G 7G 9G16
   -779451.11749   -601321.87846  20895215.290    20895213.459    20895227.445
       229.000         187.000
   5570008.86249   4344521.33045  23377010.552    23377008.634    23377028.555
       214.000         151.000
 -28102639.32049 -21881885.33747  19058522.670    19058521.990    19058533.773
       240.000         206.000
 -16134770.27049 -12552466.73346  20970453.016    20970452.413    20970469.627
       229.000         177.000
 -12718572.50849  -9882772.83845  22259188.890    22259187.719    22259202.747
       221.000         161.000
  -1947902.57449  -1507930.96947  20087596.185    20087594.330    20087606.058
       240.000         203.000
 -26285875.59649 -20454857.80547  19801464.339    19801463.181    19801474.422
       243.000         208.000
  -3791563.40449  -2935628.97645  23529525.757    23529524.598    23529548.597
       204.000         140.000
 00  4 19 17 13 29.9950000  0  8G 2G26G 4G24G 5G 7G 9G16
   -753440.56649   -581054.04646  20900165.041    20900163.200    20900177.246
       230.000         187.000
   5618040.20249   4381948.02645  23386150.849    23386148.971    23386168.979
       211.000         150.000
 -28173064.00749 -21936761.68247  19045121.257    19045120.582    19045132.339
       240.000         206.000
 -16262779.36349 -12652213.82146  20946093.503    20946092.907    20946110.098
       229.000         178.000
 -12832851.55649  -9971821.33745  22237442.361    22237441.107    22237456.058
       220.000         162.000
  -1922039.60249  -1487778.08247  20092517.823    20092515.953    20092527.682
       241.000         203.000
 -26346561.62849 -20502145.62747  19789916.152    19789915.012    19789926.304
       243.000         208.000
  -3873895.42549  -2999783.65045  23513858.366    23513857.285    23513881.123
       203.000         140.000
 00  4 19 17 13 59.9940000  0  8G 2G26G 4G24G 5G 7G 9G16
   -727153.95549   -560571.11846  20905167.295    20905165.466    20905179.547
       230.000         186.000
   5666052.62549   4419359.98745  23395287.450    23395285.601    23395305.781
       210.000         152.000
 -28242857.85649 -21991146.47247  19031839.911    19031839.227    19031850.941
       241.000         205.000
 -16390513.38449 -12751746.58846  20921786.290    20921785.753    20921802.881
       229.000         179.000
 -12947071.36049 -10060823.64445  22215706.834    22215705.719    22215720.612
       221.000         162.000
  -1895981.05649  -1467472.81247  20097476.694    20097474.798    20097486.540
       240.000         203.000
 -26406660.21449 -20548975.70347  19778479.821    19778478.651    19778489.970
       243.000         208.000
  -3955911.49249  -3063692.14345  23498251.073    23498249.973    23498273.783
       204.000         138.000
 00  4 19 17 14 29.9940000  0  8G 2G26G 4G24G 5G 7G 9G16
   -700654.68649   -539922.48146  20910210.024    20910208.196    20910222.322
       230.000         186.000
   5713984.04549   4456708.80045  23404408.626    23404406.792    23404427.095
       214.000         151.000
 -28312110.09849 -22045109.22347  19018661.639    19018660.939    19018672.643
       241.000         205.000
 -16518049.24749 -12851124.93746  20897516.840    20897516.295    20897533.403
       230.000         179.000
 -13061321.93549 -10149849.93345  22193965.534    22193964.450    22193979.298
       219.000         162.000
  -1869795.34349  -1447068.44947  20102459.717    20102457.815    20102469.583
       240.000         202.000
 -26466257.25249 -20595414.96147  19767138.863    19767137.702    19767149.025
       243.000         208.000
  -4037658.88349  -3127391.27645  23482694.869    23482693.736    23482717.573
       203.000         138.000
 00  4 19 17 14 59.9940000  0  8G 2G26G 4G24G 5G 7G 9G16
   -673916.14649   -519087.40446  20915298.358    20915296.480    20915310.662
       229.000         187.000
   5761854.61349   4494010.24745  23413518.389    23413516.494    23413536.867
       213.000         152.000
 -28380823.56549 -22098652.15147  19005585.907    19005585.187    19005596.834
       241.000         205.000
 -16645352.66649 -12950322.16346  20873291.656    20873291.089    20873308.148
       230.000         180.000
 -13175585.61249 -10238886.44445  22172221.850    22172220.705    22172235.512
       220.000         162.000
  -1843478.54149  -1426561.93947  20107467.660    20107465.780    20107477.565
       241.000         203.000
 -26525340.10949 -20641453.55847  19755895.734    19755894.589    19755905.927
       243.000         208.000
  -4119109.14649  -3190858.85845  23467195.319    23467194.137    23467217.937
       205.000         140.000
 00  4 19 17 15 29.9940000  0  8G 2G26G 4G24G 5G 7G 9G16
   -646884.51249   -498023.94546  20920442.449    20920440.546    20920454.754
       230.000         186.000
   5809726.54549   4531312.74845  23422628.238    23422626.438    23422646.785
       211.000         145.000
 -28448973.56249 -22151756.01347  18992617.433    18992616.672    18992628.287
       241.000         206.000
 -16772377.66149 -13049302.43846  20849119.483    20849118.874    20849135.844
       229.000         179.000
 -13289825.70149 -10327904.60345  22150482.764    22150481.512    22150496.230
       221.000         162.000
  -1816994.53049  -1405925.13847  20112507.520    20112505.606    20112517.399
       241.000         203.000
 -26583863.93949 -20687056.54747  19744759.003    19744757.869    19744769.241
       243.000         208.000
  -4200212.97749  -3254056.49845  23451761.735    23451760.475    23451784.283
       204.000         142.000
 00  4 19 17 15 59.9940000  0  8G 2G26G 4G24G 5G 7G 9G16
   -619515.37349   -476697.50246  20925650.759    20925648.820    20925663.076
       230.000         185.000
   5857629.86149   4568639.70645  23431744.015    23431742.363    23431762.650
       209.000         141.000
 -28516531.69049 -22204398.67847  18979761.575    18979760.778    18979772.391
       241.000         206.000
 -16899102.40649 -13148048.75646  20825004.439    20825003.793    20825020.677
       230.000         180.000
 -13404029.70649 -10416894.62645  22128750.460    22128749.107    22128763.802
       220.000         161.000
  -1790333.26349  -1385150.21347  20117581.136    20117579.176    20117590.957
       241.000         202.000
 -26641823.70649 -20732220.00447  19733729.683    19733728.520    19733739.890
       244.000         208.000
  -4280955.05249  -3316972.22145  23436396.900    23436395.650    23436419.426
       203.000         142.000
 00  4 19 17 16 29.9940000  0  8G 2G26G 4G24G 5G 7G 9G16
   -591864.24649   -455151.33346  20930912.732    20930910.774    20930925.068
       229.000         185.000
   5905502.88049   4605943.03645  23440854.119    23440852.445    23440872.905
       210.000         144.000
 -28583544.87549 -22256616.70847  18967009.414    18967008.591    18967020.185
       241.000         206.000
 -17025575.74849 -13246599.17546  20800937.218    20800936.552    20800953.367
       230.000         181.000
 -13518261.84849 -10505906.58545  22107012.651    22107011.335    22107026.010
       221.000         161.000
  -1763570.21549  -1364295.97847  20122674.057    20122672.091    20122683.872
       241.000         202.000
 -26699292.70149 -20777001.04547  19722793.784    19722792.572    19722803.911
       244.000         208.000
  -4361423.66149  -3379674.84345  23421084.182    23421082.916    23421106.642
       203.000         142.000
 00  4 19 17 16 59.9940000  0  8G 2G26G 4G24G 5G 7G 9G16
   -563891.19049   -433354.31246  20936235.968    20936233.990    20936248.297
       229.000         186.000
   5953383.06049   4643251.93245  23449965.659    23449963.997    23449984.562
       212.000         147.000
 -28649964.06549 -22308371.88847  18954370.271    18954369.431    18954381.013
       241.000         206.000
 -17151764.70249 -13344928.01546  20776924.163    20776923.440    20776940.167
       230.000         181.000
 -13632472.83649 -10594902.06545  22085278.762    22085277.580    22085292.205
       220.000         161.000
  -1736680.20649  -1343342.81547  20127791.135    20127789.158    20127800.952
       241.000         202.000
 -26756215.85249 -20821356.75447  19711961.710    19711960.472    19711971.778
       243.000         208.000
  -4441598.56649  -3442148.59045  23405827.245    23405826.042    23405849.738
       203.000         141.000
 00  4 19 17 17 29.9940000  0  8G 2G26G 4G24G 5G 7G 9G16
   -535603.51549   -411312.13646  20941619.071    20941617.078    20941631.414
       229.000         185.000
   6001259.37949   4680557.86945  23459076.569    23459074.739    23459095.439
       212.000         149.000
 -28715760.61649 -22359641.89247  18941849.589    18941848.752    18941860.310
       241.000         206.000
 -17277665.79549 -13443032.53546  20752965.776    20752965.093    20752981.726
       231.000         181.000
 -13746643.27649 -10683865.96545  22063552.743    22063551.570    22063566.147
       221.000         161.000
  -1709652.58249  -1322282.41647  20132934.384    20132932.415    20132944.195
       241.000         202.000
 -26812564.42149 -20865264.73047  19701238.980    19701237.719    19701248.996
       244.000         208.000
  -4521460.78649  -3504378.65345  23390629.796    23390628.613    23390652.336
       201.000         142.000
 00  4 19 17 17 59.9940000  0  8G 2G26G 4G24G 5G 7G 9G16
   -507017.65949   -389037.61446  20947058.932    20947056.896    20947071.265
       228.000         185.000
   6049105.15849   4717839.96645  23468181.600    23468179.767    23468200.555
       211.000         150.000
 -28780921.58649 -22410416.63447  18929449.864    18929449.028    18929460.556
       241.000         206.000
 -17403284.58149 -13540917.08946  20729061.139    20729060.453    20729077.003
       231.000         182.000
 -13860757.17049 -10772785.74745  22041837.493    22041836.296    22041850.827
       222.000         161.000
  -1682481.05649  -1301109.89047  20138105.022    20138103.061    20138114.861
       241.000         202.000
 -26868328.88649 -20908717.56747  19690627.410    19690626.107    19690637.346
       243.000         208.000
  -4601020.43249  -3566372.96045  23375489.966    23375488.812    23375512.415
       200.000         142.000
 00  4 19 17 18 29.9940000  0  8G 2G26G 4G24G 5G 7G 9G16
   -478168.37149   -366557.83146  20952548.926    20952546.880    20952561.258
       228.000         186.000
   6096900.48149   4755082.74545  23477276.938    23477275.171    23477296.056
       212.000         150.000
 -28845465.38349 -22460710.46447  18917167.588    18917166.735    18917178.231
       241.000         206.000
 -17528635.25749 -13638592.73146  20705207.536    20705206.865    20705223.313
       231.000         183.000
 -13974814.57049 -10861661.54645  22020133.101    22020131.814    22020146.318
       222.000         162.000
  -1655161.63949  -1279822.12447  20143303.821    20143301.843    20143313.675
       241.000         202.000
 -26923494.82349 -20951704.01647  19680129.699    19680128.395    19680139.625
       244.000         208.000
  -4680277.52849  -3628131.46545  23360407.641    23360406.510    23360430.162
       205.000         145.000
 00  4 19 17 18 59.9940000  0  8G 2G26G 4G24G 5G 7G 9G16
   -449061.18749   -343877.09046  20958088.015    20958085.951    20958100.346
       229.000         186.000
   6144640.42349   4792282.37245  23486361.879    23486360.030    23486381.006
       214.000         151.000
 -28909391.85949 -22510523.26647  18905002.775    18905001.918    18905013.400
       241.000         206.000
 -17653708.84649 -13736052.45946  20681406.660    20681405.974    20681422.365
       232.000         184.000
 -14088802.55049 -10950483.25145  21998441.899    21998440.576    21998455.060
       223.000         162.000
  -1627667.85449  -1258398.49247  20148535.767    20148533.800    20148545.641
       241.000         202.000
 -26978053.88949 -20994217.57747  19669747.447    19669746.164    19669757.367
       243.000         208.000
  -4759195.03349  -3689625.38845  23345389.917    23345388.901    23345412.484
       201.000         143.000
 00  4 19 17 19 29.9940000  0  8G 2G26G 4G24G 5G 7G 9G16
   -419733.77449   -321024.74646  20963668.993    20963666.931    20963681.348
       229.000         185.000
   6192279.14949   4829403.15445  23495427.571    23495425.652    23495446.632
       213.000         147.000
 -28972728.23249 -22559876.25147  18892950.230    18892949.377    18892960.845
       241.000         207.000
 -17778519.97049 -13833307.68246  20657655.786    20657655.057    20657671.381
       232.000         184.000
 -14202768.03549 -11039287.44646  21976754.955    21976753.575    21976768.096
       222.000         163.000
  -1600025.62649  -1236859.18547  20153796.005    20153794.023    20153805.869
       241.000         202.000
 -27032049.68949 -21036292.23447  19659472.343    19659471.097    19659482.302
       243.000         208.000
  -4837798.46749  -3750874.55245  23330432.069    23330430.989    23330454.570
       207.000         149.000
 00  4 19 17 19 59.9940000  0  8G 2G26G 4G24G 5G 7G 9G16
   -390120.44949   -297949.60446  20969304.361    20969302.286    20969316.709
       228.000         185.000
   6239870.12049   4866486.71845  23504484.072    23504482.171    23504503.222
       209.000         146.000
 -29035440.15449 -22608742.64847  18881016.513    18881015.692    18881027.137
       242.000         207.000
 -17903014.17649 -13930315.96446  20633965.164    20633964.433    20633980.704
       233.000         184.000
 -14316683.77249 -11128052.88445  21955077.335    21955076.049    21955090.565
       222.000         162.000
  -1572197.76249  -1215175.22347  20159091.565    20159089.571    20159101.436
       241.000         202.000
 -27085446.93449 -21077900.48247  19649311.199    19649309.941    19649321.126
       243.000         208.000
  -4916054.64649  -3811853.10945  23315540.333    23315539.199    23315562.729
       206.000         148.000
 00  4 19 17 20 29.9940000  0  8G 2G26G 4G24G 5G 7G 9G16
   -360236.28049   -274663.41946  20974991.271    20974989.201    20975003.651
       229.000         184.000
   6287385.26049   4903511.18845  23513526.210    23513524.249    23513545.379
       208.000         142.000
 -29097564.72149 -22657151.36747  18869194.598    18869193.762    18869205.190
       243.000         206.000
 -18027220.14949 -14027099.64746  20610329.466    20610328.690    20610344.869
       232.000         185.000
 -14430596.99849 -11216816.37546  21933400.275    21933398.993    21933413.499
       222.000         164.000
  -1544223.50049  -1193377.18647  20164414.989    20164412.971    20164424.849
       240.000         201.000
 -27138285.77649 -21119073.61147  19639256.328    19639255.062    19639266.222
       243.000         208.000
  -4993997.06049  -3872587.18445  23300708.219    23300707.038    23300730.578
       208.000         147.000
 00  4 19 17 20 59.9940000  0  8G 2G26G 4G24G 5G 7G 9G16
   -330089.68349   -251172.74046  20980728.174    20980726.075    20980740.536
       229.000         185.000
   6334792.60449   4940451.67845  23522547.558    23522545.671    23522566.923
       210.000         146.000
 -29159122.07249 -22705118.10147  18857480.601    18857479.772    18857491.176
       242.000         206.000
 -18151159.25549 -14123675.38746  20586744.548    20586743.726    20586759.843
       232.000         185.000
 -14544532.43149 -11305597.17146  21911719.135    21911717.779    21911732.163
       224.000         164.000
  -1516139.01449  -1171493.26047  20169759.327    20169757.329    20169769.217
       239.000         201.000
 -27190599.04249 -21159837.20547  19629301.478    19629300.207    19629311.320
       243.000         208.000
  -5071657.86349  -3933101.82745  23285929.606    23285928.467    23285951.994
       205.000         148.000
 00  4 19 17 21 29.9940000  0  8G 2G26G 4G24G 5G 7G 9G16
   -299634.59349   -227441.69846  20986523.794    20986521.664    20986536.114
       229.000         185.000
   6382134.99349   4977341.54045  23531556.873    23531554.975    23531576.293
       214.000         151.000
 -29220078.49349 -22752616.57647  18845880.969    18845880.139    18845891.512
       243.000         206.000
 -18274795.48049 -14220015.11946  20563217.204    20563216.383    20563232.427
       232.000         185.000
 -14658453.48749 -11394366.77746  21890040.742    21890039.297    21890053.626
       223.000         165.000
  -1487919.99749  -1149504.51247  20175129.303    20175127.291    20175139.220
       240.000         201.000
 -27242344.49649 -21200158.34247  19619454.637    19619453.386    19619464.474
       244.000         208.000
  -5149012.38549  -3993377.78845  23271209.389    23271208.193    23271231.732
       203.000         149.000
 00  4 19 17 21 59.9940000  0  8G 2G26G 4G24G 5G 7G 9G16
   -268867.99349   -203467.91346  20992378.647    20992376.497    20992390.979
       229.000         185.000
   6429426.16149   5014191.49745  23540556.400    23540554.494    23540575.862
       214.000         152.000
 -29280446.62749 -22799656.64347  18834393.310    18834392.452    18834403.806
       243.000         207.000
 -18398136.23349 -14316124.62346  20539746.092    20539745.267    20539761.246
       232.000         187.000
 -14772337.08849 -11483107.19346  21868369.376    21868367.877    21868382.233
       224.000         164.000
  -1459550.91849  -1127398.83847  20180527.850    20180525.819    20180537.786
       240.000         202.000
 -27293522.41749 -21240037.24247  19609715.842    19609714.562    19609725.678
       244.000         209.000
  -5226054.37249  -4053410.24545  23256548.570    23256547.385    23256570.872
       207.000         151.000
 00  4 19 17 22 29.9940000  0  8G 2G26G 4G24G 5G 7G 9G16
   -237834.76849   -179286.36946  20998284.230    20998282.067    20998296.562
       229.000         185.000
   6476641.52449   5050982.39445  23549541.638    23549539.596    23549561.049
       214.000         156.000
 -29340240.42649 -22846249.18447  18823014.906    18823014.050    18823025.409
       243.000         207.000
 -18521203.00449 -14412020.63046  20516327.075    20516326.275    20516342.228
       232.000         187.000
 -14886190.72349 -11571824.26846  21846703.647    21846702.208    21846716.547
       224.000         165.000
  -1431052.85849  -1105192.66447  20185950.867    20185948.881    20185960.887
       239.000         201.000
 -27344159.05949 -21279494.37347  19600080.024    19600078.755    19600089.878
       244.000         208.000
  -5302790.80349  -4113204.61145  23241945.942    23241944.775    23241968.207
       208.000         151.000
 00  4 19 17 22 59.9940000  0  8G 2G26G 4G24G 5G 7G 9G16
   -206537.95849   -154899.43246  21004239.939    21004237.800    21004252.318
       229.000         184.000
   6523783.48349   5087716.04945  23558512.682    23558510.633    23558532.267
       208.000         148.000
 -29399451.13949 -22892387.36647  18811747.436    18811746.599    18811757.955
       242.000         207.000
 -18643977.73949 -14507689.09246  20492963.684    20492962.882    20492978.788
       234.000         187.000
 -14999997.03149 -11660504.44846  21825046.891    21825045.530    21825059.809
       224.000         166.000
  -1402425.48249  -1082885.71547  20191398.539    20191396.557    20191408.582
       239.000         201.000
 -27394248.60249 -21318525.18847  19590548.279    19590547.007    19590558.127
       243.000         208.000
  -5379186.34649  -4172733.33845  23227408.147    23227406.975    23227430.350
       209.000         151.000
 00  4 19 17 23 29.9940000  0  8G 2G26G 4G24G 5G 7G 9G16
   -174993.93249   -130319.86546  21010242.676    21010240.583    21010255.168
       228.000         184.000
   6570857.77549   5124397.02345  23567470.807    23567468.777    23567490.526
       208.000         143.000
 -29458081.33649 -22938073.19947  18800590.462    18800589.623    18800600.954
       243.000         206.000
 -18766464.56949 -14603133.21446  20469655.147    20469654.285    20469670.122
       233.000         187.000
 -15113768.05149 -11749157.14246  21803396.937    21803395.534    21803409.783
       224.000         165.000
  -1373678.85349  -1060485.84647  20196868.907    20196866.921    20196878.982
       239.000         200.000
 -27443804.14349 -21357139.89647  19581118.119    19581116.893    19581128.005
       243.000         208.000
  -5455238.74049  -4231994.69045  23212935.640    23212934.538    23212957.893
       207.000         151.000
 00  4 19 17 23 59.9940000  0  8G 2G26G 4G24G 5G 7G 9G16
   -143229.84149   -105568.81546  21016287.370    21016285.245    21016299.840
       229.000         184.000
   6617832.18249   5161000.20545  23576409.889    23576407.895    23576429.619
       208.000         142.000
 -29516145.71449 -22983318.13247  18789541.181    18789540.339    18789551.628
       242.000         206.000
 -18888696.41149 -14698378.64246  20446395.097    20446394.204    20446410.001
       234.000         187.000
 -15227529.14449 -11837802.08946  21781748.934    21781747.519    21781761.700
       225.000         166.000
  -1344857.49749  -1038027.74547  20202353.539    20202351.526    20202363.607
       240.000         200.000
 -27492849.40349 -21395356.98347  19571785.155    19571783.911    19571795.002
       244.000         209.000
  -5530967.08549  -4291003.53145  23198524.905    23198523.741    23198546.982
       210.000         153.000
 00  4 19 17 24 29.9940000  0  8G 2G26G 4G24G 5G 7G 9G16
   -111206.88949    -80616.06646  21022381.288    21022379.167    21022393.791
       229.000         183.000
   6664728.71049   5197542.68845  23585334.177    23585332.240    23585354.016
       210.000         139.000
 -29573598.82149 -23028086.75147  18778608.237    18778607.377    18778618.629
       242.000         206.000
 -19010628.79949 -14793390.74047  20423191.980    20423191.099    20423206.849
       234.000         188.000
 -15341257.40549 -11926421.45346  21760107.146    21760105.702    21760119.841
       224.000         168.000
  -1315952.70349  -1015504.62647  20207854.087    20207852.028    20207864.127
       239.000         201.000
 -27541339.95649 -21433141.83447  19562557.834    19562556.512    19562567.562
       244.000         209.000
  -5606329.16449  -4349726.98445  23184183.812    23184182.637    23184205.797
       210.000         154.000
 00  4 19 17 24 59.9940000  0  8G 2G26G 4G24G 5G 7G 9G16
    -78924.52249    -55461.20246  21028524.614    21028522.458    21028537.096
       229.000         184.000
   6711532.02649   5234012.58845  23594240.791    23594238.890    23594260.692
       209.000         146.000
 -29630464.91349 -23072397.95547  18767786.964    18767786.082    18767797.325
       242.000         206.000
 -19132280.16049 -14888183.85147  20400042.392    20400041.482    20400057.224
       233.000         188.000
 -15454979.78249 -12015036.21146  21738466.459    21738464.997    21738479.116
       224.000         167.000
  -1286974.92149   -992924.64247  20213368.501    20213366.415    20213378.532
       239.000         201.000
 -27589290.48949 -21470505.89647  19553433.213    19553431.859    19553442.871
       244.000         209.000
  -5681335.66149  -4408173.37045  23169910.398    23169909.215    23169932.299
       210.000         155.000
 00  4 19 17 25 29.9940000  0  8G 2G26G 4G24G 5G 7G 9G16
    -46336.47649    -30068.13446  21034726.087    21034723.945    21034738.592
       229.000         183.000
   6758289.74049   5270446.89845  23603138.619    23603136.800    23603158.703
       209.000         149.000
 -29686694.52249 -23116213.20047  18757086.762    18757085.917    18757097.147
       242.000         206.000
 -19253609.62849 -14982726.15446  20376954.011    20376953.112    20376968.809
       234.000         187.000
 -15568651.95849 -12103611.86846  21716835.267    21716833.857    21716847.973
       225.000         168.000
  -1257868.55549   -970244.46447  20218907.330    20218905.249    20218917.404
       239.000         201.000
 -27636645.37849 -21507405.81847  19544421.872    19544420.533    19544431.498
       244.000         209.000
  -5755949.79849  -4466314.03845  23155711.614    23155710.441    23155733.480
       210.000         155.000
 00  4 19 17 25 59.9940000  0  8G 2G26G 4G24G 5G 7G 9G16
    -13468.85849     -4457.18246  21040980.793    21040978.608    21040993.315
       228.000         183.000
   6804949.94349   5306805.24545  23612018.071    23612016.228    23612038.233
       207.000         148.000
 -29742324.02249 -23159560.82547  18746500.771    18746499.945    18746511.161
       242.000         206.000
 -19374639.04649 -15077034.64447  20353922.710    20353921.851    20353937.523
       234.000         188.000
 -15682290.42149 -12192161.23446  21695210.501    21695209.134    21695223.248
       226.000         167.000
  -1228659.00949   -947483.88047  20224465.742    20224463.713    20224475.916
       239.000         201.000
 -27683429.47349 -21543860.96547  19535519.188    19535517.841    19535528.773
       245.000         209.000
  -5830193.42549  -4524166.01245  23141583.279    23141582.159    23141605.102
       211.000         156.000
 00  4 19 17 26 29.9940000  0  8G 2G26G 4G24G 5G 7G 9G16
     19661.03749     21358.10746  21047285.262    21047283.157    21047297.909
       229.000         183.000
   6851501.26349   5343078.73145  23620876.722    23620874.838    23620896.993
       207.000         148.000
 -29797370.06749 -23202453.81647  18736025.831    18736025.016    18736036.219
       242.000         206.000
 -19495363.88849 -15171105.80547  20330949.441    20330948.561    20330964.216
       234.000         188.000
 -15795910.73949 -12280696.47746  21673589.265    21673587.867    21673601.940
       226.000         168.000
  -1199330.27249   -924630.42147  20230046.887    20230044.860    20230057.103
       239.000         201.000
 -27729653.11849 -21579879.40147  19526723.143    19526721.790    19526732.683
       244.000         209.000
  -5904069.91249  -4581731.91145  23127524.914    23127523.764    23127546.660
       214.000         156.000
 00  4 19 17 26 59.9940000  0  8G 2G26G 4G24G 5G 7G 9G16
     53082.79249     47400.82346  21053645.341    21053643.224    21053658.083
       228.000         184.000
   6897973.71949   5379290.78045  23629720.351    23629718.504    23629740.745
       206.000         147.000
 -29851801.99749 -23244868.27947  18725667.765    18725666.942    18725678.131
       241.000         205.000
 -19615755.77149 -15264917.53247  20308039.496    20308038.627    20308054.248
       235.000         189.000
 -15909480.81449 -12369192.59046  21651977.615    21651976.152    21651990.161
       226.000         168.000
  -1169848.08549   -901657.39247  20235657.264    20235655.224    20235667.491
       239.000         201.000
 -27775288.60049 -21615439.52847  19518038.999    19518037.657    19518048.537
       244.000         209.000
  -5977554.86449  -4638992.73245  23113541.058    23113539.892    23113562.731
       213.000         157.000
 00  4 19 17 27 29.9940000  0  8G 2G26G 4G24G 5G 7G 9G16
     86781.48749     73659.33346  21060058.177    21060056.045    21060070.948
       229.000         184.000
   6944351.45549   5415429.00145  23638545.740    23638544.002    23638566.417
       205.000         143.000
 -29905616.79149 -23286801.85547  18715427.120    18715426.303    18715437.471
       241.000         206.000
 -19735806.33749 -15358463.28747  20285194.509    20285193.642    20285209.225
       235.000         189.000
 -16022997.10449 -12457646.81046  21630376.180    21630374.688    21630388.589
       225.000         168.000
  -1140225.62149   -878575.05647  20241294.310    20241292.264    20241304.557
       239.000         201.000
 -27820334.30049 -21650540.08547  19509467.080    19509465.750    19509476.627
       244.000         209.000
  -6050669.99749  -4695965.40645  23099627.543    23099626.388    23099649.170
       214.000         157.000
 00  4 19 17 27 59.9940000  0  8G 2G26G 4G24G 5G 7G 9G16
    120737.82749    100118.61646  21066520.035    21066517.881    21066532.811
       228.000         183.000
   6990611.44049   5451475.50445  23647348.845    23647347.189    23647369.599
       206.000         143.000
 -29958831.06649 -23328267.49647  18705300.768    18705299.932    18705311.093
       241.000         206.000
 -19855527.18849 -15451752.12847  20262412.240    20262411.396    20262426.958
       236.000         189.000
 -16136486.35249 -12546079.95546  21608779.827    21608778.362    21608792.181
       225.000         169.000
  -1110489.93549   -855404.49547  20246952.918    20246950.855    20246963.161
       239.000         200.000
 -27864814.88349 -21685200.29747  19501002.701    19501001.403    19501012.246
       244.000         209.000
  -6123447.47349  -4752674.97145  23085778.302    23085777.075    23085799.901
       213.000         157.000
 00  4 19 17 28 29.9940000  0  8G 2G26G 4G24G 5G 7G 9G16
    154970.59749    126793.28846  21073034.342    21073032.302    21073047.300
       228.000         183.000
   7036779.77849   5487450.60945  23656134.568    23656132.923    23656155.410
       206.000         145.000
 -30011423.03449 -23369248.22247  18695292.785    18695291.987    18695303.148
       242.000         206.000
 -19974899.92849 -15544769.71547  20239696.285    20239695.423    20239710.931
       237.000         190.000
 -16249944.98949 -12634489.22546  21587189.292    21587187.866    21587201.616
       226.000         169.000
  -1080619.27649   -832128.75647  20252637.197    20252635.133    20252647.451
       239.000         200.000
 -27908705.49049 -21719400.78247  19492650.633    19492649.323    19492660.161
       245.000         209.000
  -6195882.41749  -4809117.64845  23071994.211    23071993.038    23072015.817
       215.000         159.000
 00  4 19 17 28 59.9940000  0  8G 2G26G 4G24G 5G 7G 9G16
    189503.21349    153701.60746  21079605.924    21079603.788    21079618.837
       228.000         182.000
   7082872.14249   5523366.48245  23664905.952    23664904.252    23664926.802
       207.000         143.000
 -30063374.46949 -23409729.83547  18685406.760    18685405.936    18685417.092
       241.000         206.000
 -20093906.83649 -15637502.23947  20217049.992    20217049.074    20217064.520
       237.000         190.000
 -16363348.22249 -12722855.29546  21565609.341    21565607.900    21565621.575
       226.000         170.000
  -1050600.21549   -808737.37847  20258349.744    20258347.666    20258359.990
       239.000         199.000
 -27951996.45649 -21753134.01447  19484412.707    19484411.365    19484422.199
       245.000         209.000
  -6267970.96549  -4865290.46745  23058276.122    23058274.911    23058297.595
       214.000         159.000
 00  4 19 17 29 29.9940000  0  8G 2G26G 4G24G 5G 7G 9G16
    224303.14549    180818.22246  21086228.307    21086226.157    21086241.263
       226.000         181.000
   7128862.44349   5559202.85545  23673657.816    23673656.057    23673678.748
       204.000         138.000
 -30114710.04149 -23449731.55447  18675637.922    18675637.099    18675648.234
       242.000         206.000
 -20212574.56949 -15729970.47547  20194468.189    20194467.253    20194482.663
       236.000         191.000
 -16476709.57349 -12811188.74346  21544037.348    21544035.918    21544049.523
       225.000         170.000
  -1020441.15049   -785236.91247  20264088.906    20264086.836    20264099.175
       239.000         199.000
 -27994715.75049 -21786421.79147  19476283.508    19476282.173    19476292.996
       244.000         208.000
  -6339731.67249  -4921207.82445  23044620.406    23044619.197    23044641.741
       213.000         157.000
 00  4 19 17 29 59.9940000  0  8G 2G26G 4G24G 5G 7G 9G16
    259381.44749    208151.74046  21092903.684    21092901.495    21092916.678
       228.000         182.000
   7174757.07749   5594964.67345  23682391.434    23682389.660    23682412.494
       203.000         136.000
 -30165437.46449 -23489259.39147  18665984.837    18665983.991    18665995.077
       242.000         206.000
 -20330908.61049 -15822178.68547  20171949.870    20171948.940    20171964.320
       237.000         191.000
 -16590016.85749 -12899480.06146  21522475.691    21522474.236    21522487.810
       226.000         170.000
   -990136.44449   -761622.96047  20269855.781    20269853.705    20269866.051
       238.000         199.000
 -28036861.77249 -21819262.86447  19468263.324    19468262.032    19468272.852
       245.000         208.000
  -6411139.49549  -4976850.23445  23031031.879    23031030.638    23031053.096
       213.000         158.000
 00  4 19 17 30 29.9940000  0  8G 2G26G 4G24G 5G 7G 9G16
    294745.11349    235707.63646  21099633.346    21099631.149    21099646.368
       228.000         181.000
   7220546.72749   5630644.75645  23691105.051    23691103.283    23691126.001
       204.000         139.000
 -30215564.23849 -23528319.18947  18656446.037    18656445.161    18656456.207
       242.000         206.000
 -20448912.64049 -15914129.75047  20149494.381    20149493.432    20149508.748
       237.000         191.000
 -16703253.20949 -12987716.10146  21500927.512    21500926.022    21500939.626
       225.000         170.000
   -959680.96949   -737891.52347  20275651.341    20275649.287    20275661.643
       238.000         199.000
 -28078440.58349 -21851661.95347  19460351.196    19460349.882    19460360.649
       245.000         209.000
  -6482169.78549  -5032198.50445  23017515.249    23017513.969    23017536.274
       215.000         158.000
 00  4 19 17 30 59.9940000  0  8G 2G26G 4G24G 5G 7G 9G16
    330377.90749    263473.23046  21106414.176    21106411.994    21106427.288
       227.000         181.000
   7266194.00749   5666213.86145  23699791.481    23699789.844    23699812.701
       201.000         142.000
 -30265109.03049 -23566925.49947  18647017.985    18647017.088    18647028.119
       241.000         206.000
 -20566611.77749 -16005843.24547  20127096.880    20127095.930    20127111.198
       237.000         192.000
 -16816425.11149 -13075901.94846  21479391.509    21479390.067    21479403.666
       225.000         170.000
   -929109.87049   -714069.98947  20281468.894    20281466.842    20281479.230
       238.000         199.000
 -28119474.24849 -21883636.25347  19452542.806    19452541.456    19452552.200
       245.000         209.000
  -6552827.89649  -5087256.77445  23004069.409    23004068.085    23004090.389
       214.000         158.000
 00  4 19 17 31 29.9940000  0  8G 2G26G 4G24G 5G 7G 9G16
    366296.27149    291461.34346  21113249.402    21113247.200    21113262.518
       226.000         181.000
   7311699.63149   5701672.52045  23708450.920    23708449.467    23708472.342
       203.000         141.000
 -30314057.94349 -23605067.49347  18637703.246    18637702.376    18637713.412
       241.000         205.000
 -20683993.15749 -16097309.12947  20104759.883    20104758.908    20104774.159
       237.000         192.000
 -16929519.94949 -13164027.72446  21457870.178    21457868.744    21457882.374
       226.000         170.000
   -898434.42749   -690167.14947  20287306.318    20287304.269    20287316.679
       239.000         200.000
 -28159938.30149 -21915166.70347  19444842.763    19444841.424    19444852.175
       245.000         209.000
  -6623080.96049  -5141999.44445  22990700.633    22990699.288    22990721.507
       216.000         158.000
 00  4 19 17 31 59.9940000  0  7G 2G 4G24G 5G 7G 9G16
    402511.05249    319680.42846  21120141.013    21120138.803    21120154.191
       228.000         180.000
 -30362405.83349 -23642741.15847  18628502.934    18628502.072    18628513.073
       241.000         205.000
 -20801040.77549 -16188514.94147  20082486.328    20082485.366    20082500.607
       236.000         192.000
 -17042552.30449 -13252104.80646  21436360.809    21436359.364    21436372.957
       225.000         171.000
   -867671.20249   -666195.90847  20293160.494    20293158.414    20293170.834
       239.000         200.000
 -28199821.16249 -21946244.27647  19437253.331    19437251.966    19437262.732
       245.000         209.000
  -6692919.13649  -5196418.84445  22977410.825    22977409.461    22977431.620
       215.000         158.000
 00  4 19 17 32 29.9940000  0  7G 2G 4G24G 5G 7G 9G16
    439013.62049    348123.76046  21127087.428    21127085.184    21127100.591
       225.000         179.000
 -30410138.68449 -23679935.57547  18619419.686    18619418.801    18619429.799
       241.000         205.000
 -20917748.52649 -16279455.92647  20060277.490    20060276.525    20060291.731
       237.000         192.000
 -17155540.76049 -13340147.70146  21414859.807    21414858.348    21414871.965
       225.000         171.000
   -836832.08349   -642165.53847  20299029.088    20299027.001    20299039.458
       239.000         200.000
 -28239124.36749 -21976870.16947  19429774.145    19429772.813    19429783.570
       245.000         209.000
  -6762356.01749  -5250525.58745  22964197.435    22964196.035    22964218.115
       214.000         158.000
 00  4 19 17 32 59.9940000  0  7G 2G 4G24G 5G 7G 9G16
    475797.40849    376786.20246  21134087.271    21134085.052    21134100.533
       225.000         179.000
 -30457248.32049 -23716644.37347  18610454.998    18610454.128    18610465.105
       241.000         205.000
 -21034102.63949 -16370121.35147  20038135.944    20038134.973    20038150.136
       236.000         192.000
 -17268491.30749 -13428161.05946  21393365.968    21393364.511    21393378.131
       226.000         171.000
   -805931.48849   -618087.26247  20304909.400    20304907.299    20304919.771
       238.000         200.000
 -28277836.85349 -22007035.76447  19422407.390    19422406.074    19422416.851
       245.000         210.000
  -6831400.17349  -5304326.30245  22951058.804    22951057.357    22951079.346
       212.000         154.000
 00  4 19 17 33 29.9940000  0  7G 2G 4G24G 5G 7G 9G16
    512853.47349    405660.81746  21141138.978    21141136.751    21141152.290
       225.000         179.000
 -30503732.90649 -23752866.11747  18601609.233    18601608.397    18601619.350
       240.000         205.000
 -21150091.84549 -16460502.42747  20016063.801    20016062.856    20016078.005
       237.000         193.000
 -17381402.88649 -13516144.04846  21371879.503    21371878.084    21371891.738
       224.000         171.000
   -774964.13849   -593956.96447  20310802.364    20310800.282    20310812.780
       239.000         199.000
 -28315963.64349 -22036744.97447  19415152.141    19415150.804    19415161.610
       245.000         209.000
  -6900045.26549  -5357816.04045  22937996.157    22937994.609    22938016.627
       214.000         156.000
 00  4 19 17 33 59.9940000  0  7G 2G 4G24G 5G 7G 9G16
    550173.41449    434741.05846  21148240.899    21148238.664    21148254.243
       224.000         179.000
 -30549596.57949 -23788604.03547  18592881.646    18592880.803    18592891.768
       241.000         205.000
 -21265718.57249 -16550601.05247  19994060.670    19994059.724    19994074.867
       236.000         192.000
 -17494266.79449 -13604089.87846  21350402.100    21350400.725    21350414.378
       225.000         172.000
   -743909.64149   -569758.76147  20316711.892    20316709.819    20316722.361
       238.000         199.000
 -28353518.59449 -22066008.59547  19408005.705    19408004.359    19408015.167
       245.000         209.000
  -6968295.77549  -5410998.35545  22925008.549    22925006.952    22925028.836
       214.000         157.000
 00  4 19 17 34 29.9940000  0  7G 2G 4G24G 5G 7G 9G16
    587755.67149    464025.70046  21155392.704    21155390.490    21155406.140
       226.000         178.000
 -30594842.36749 -23823860.49047  18584271.656    18584270.814    18584281.755
       240.000         205.000
 -21380990.70249 -16640423.38247  19972125.002    19972124.045    19972139.163
       236.000         193.000
 -17607062.97849 -13691982.93646  21328937.731    21328936.305    21328949.893
       225.000         171.000
   -712760.07249   -545486.47747  20322639.553    20322637.477    20322650.023
       239.000         198.000
 -28390504.58549 -22094828.87547  19400967.540    19400966.183    19400976.991
       246.000         209.000
  -7036160.66049  -5463880.14145  22912094.308    22912092.670    22912114.593
       213.000         153.000
 00  4 19 17 34 59.9940000  0  7G 2G 4G24G 5G 7G 9G16
    625607.97649    493520.77146  21162595.939    21162593.736    21162609.413
       225.000         178.000
 -30639471.46349 -23858636.40947  18575779.042    18575778.164    18575789.087
       240.000         206.000
 -21495904.67849 -16729966.62047  19950257.503    19950256.553    19950271.641
       237.000         194.000
 -17719764.92749 -13779802.54946  21307491.231    21307489.791    21307503.346
       225.000         172.000
   -681492.71049   -521122.39147  20328589.569    20328587.532    20328600.095
       238.000         198.000
 -28426909.09649 -22123196.05047  19394040.063    19394038.681    19394049.470
       245.000         209.000
  -7103622.87649  -5516448.11445  22899256.716    22899255.057    22899276.947
       214.000         153.000
 00  4 19 17 35 29.9940000  0  7G 2G 4G24G 5G 7G 9G16
    663722.38849    523220.07246  21169849.049    21169846.828    21169862.542
       225.000         177.000
 -30683493.61449 -23892939.38947  18567401.906    18567401.031    18567411.933
       240.000         206.000
 -21610475.15249 -16819242.20747  19928455.364    19928454.427    19928469.445
       237.000         193.000
 -17832383.91449 -13867557.50346  21286060.523    21286059.077    21286072.599
       227.000         172.000
   -650089.23849   -496652.26347  20334565.553    20334563.490    20334576.058
       239.000         198.000
 -28462750.64949 -22151124.56147  19387219.684    19387218.297    19387229.076
       245.000         209.000
  -7170683.18549  -5568702.91345  22886495.602    22886493.889    22886515.780
       213.000         152.000
 00  4 19 17 35 59.9940000  0  7G 2G 4G24G 5G 7G 9G16
    702104.88849    553128.29846  21177153.170    21177150.952    21177166.725
       224.000         176.000
 -30726909.64849 -23926770.06547  18559140.166    18559139.243    18559150.112
       240.000         205.000
 -21724699.64749 -16908248.19847  19906719.099    19906718.146    19906733.093
       237.000         194.000
 -17944930.18249 -13955255.81446  21264643.652    21264642.192    21264655.644
       227.000         173.000
   -618552.70349   -472078.44347  20340566.878    20340564.786    20340577.346
       238.000         198.000
 -28498032.67649 -22178617.07747  19380505.820    19380504.403    19380515.147
       246.000         209.000
  -7237356.98249  -5620656.52345  22873808.076    22873806.244    22873828.171
       212.000         151.000
 00  4 19 17 36 29.9940000  0  7G 2G 4G24G 5G 7G 9G16
    740741.10649    583234.19346  21184505.585    21184503.356    21184519.160
       224.000         176.000
 -30769722.54949 -23960130.77247  18550993.162    18550992.236    18551003.068
       240.000         205.000
 -21838582.09949 -16996987.66747  19885047.976    19885046.958    19885061.835
       238.000         194.000
 -18057427.48449 -14042915.99646  21243236.093    21243234.628    21243248.018
       226.000         172.000
   -586904.76449   -447417.81747  20346589.408    20346587.291    20346599.843
       239.000         197.000
 -28532752.15649 -22205671.24747  19373899.004    19373897.555    19373908.270
       245.000         209.000
  -7303657.16449  -5672318.97145  22861191.661    22861189.756    22861211.628
       211.000         150.000
 00  4 19 17 36 59.9940000  0  7G 2G 4G24G 5G 7G 9G16
    779652.52349    613554.54146  21191910.463    21191908.131    21191923.971
       224.000         175.000
 -30811909.85549 -23993004.01047  18542965.200    18542964.252    18542975.066
       239.000         205.000
 -21952084.66949 -17085431.13447  19863449.156    19863448.070    19863462.859
       238.000         194.000
 -18169857.99249 -14130524.14646  21221841.281    21221839.818    21221853.169
       227.000         173.000
   -555126.14549   -422655.35747  20352636.799    20352634.657    20352647.201
       238.000         197.000
 -28566890.44249 -22232272.53847  19367402.707    19367401.271    19367411.997
       245.000         209.000
  -7369536.47649  -5723653.40645  22848655.186    22848653.323    22848675.234
       210.000         148.000
 00  4 19 17 37 29.9940000  0  7G 2G 4G24G 5G 7G 9G16
    818844.35949    644093.38146  21199368.592    21199366.267    21199382.135
       223.000         175.000
 -30853469.54249 -24025388.19647  18535056.668    18535055.707    18535066.518
       240.000         205.000
 -22065193.89349 -17173568.08847  19841925.162    19841924.030    19841938.766
       238.000         194.000
 -18282231.33349 -14218087.75546  21200457.333    21200455.850    21200469.193
       227.000         172.000
   -523241.47549   -397810.25847  20358704.336    20358702.188    20358714.741
       238.000         196.000
 -28600445.11849 -22258419.06647  19361017.452    19361016.050    19361026.777
       245.000         209.000
  -7434989.38149  -5774655.57045  22836199.912    22836198.045    22836219.917
       212.000         148.000
 00  4 19 17 37 59.9940000  0  7G 2G 4G24G 5G 7G 9G16
    858303.63149    674840.60346  21206877.644    21206875.305    21206891.192
       224.000         174.000
 -30894413.50449 -24057292.59847  18527265.309    18527264.349    18527275.127
       240.000         205.000
 -22177925.94249 -17261411.14647  19820472.957    19820471.788    19820486.439
       238.000         195.000
 -18394557.38649 -14305614.50246  21179082.384    21179080.882    21179094.212
       227.000         172.000
   -491295.86049   -372917.66347  20364783.505    20364781.335    20364793.881
       238.000         196.000
 -28633407.40349 -22284103.99347  19354744.968    19354743.556    19354754.273
       245.000         209.000
  -7500025.14549  -5825332.67745  22823823.943    22823822.139    22823844.114
       211.000         150.000
 00  4 19 17 38 29.9940000  0  7G 2G 4G24G 5G 7G 9G16
    898032.85249    705798.18646  21214438.104    21214435.727    21214451.591
       224.000         172.000
 -30934736.03949 -24088712.77247  18519592.236    18519591.250    18519602.001
       240.000         206.000
 -22290282.66849 -17348961.74247  19799092.131    19799090.958    19799105.543
       238.000         195.000
 -18506821.51049 -14393092.99946  21157719.243    21157717.734    21157730.993
       228.000         173.000
   -459277.18349   -347968.14047  20370876.546    20370874.379    20370886.924
       238.000         197.000
 -28665766.32549 -22309318.76947  19348587.361    19348585.910    19348596.595
       246.000         209.000
  -7564616.93349  -5875663.80345  22811532.538    22811530.724    22811552.689
       211.000         150.000
 00  4 19 17 38 59.9940000  0  7G 2G 4G24G 5G 7G 9G16
    938033.05349    736966.89446  21222050.119    21222047.728    21222063.603
       224.000         171.000
 -30974454.73549 -24119662.42547  18512034.087    18512033.074    18512043.787
       240.000         206.000
 -22402275.32849 -17436228.65047  19777780.588    19777779.408    19777793.926
       239.000         195.000
 -18619036.89549 -14480533.49746  21136365.372    21136363.842    21136377.073
       227.000         173.000
   -427201.77249   -322974.41247  20376980.432    20376978.241    20376990.792
       238.000         196.000
 -28697550.72749 -22334085.86547  19342539.059    19342537.578    19342548.240
       245.000         209.000
  -7628779.86349  -5925660.74045  22799322.645    22799320.907    22799342.945
       212.000         150.000
 00  4 19 17 39 29.9940000  0  7G 2G 4G24G 5G 7G 9G16
    978311.17249    768352.17146  21229715.081    21229712.619    21229728.472
       222.000         172.000
 -31013556.35549 -24150131.23947  18504593.400    18504592.333    18504602.994
       241.000         206.000
 -22513906.18649 -17523213.63447  19756537.885    19756536.709    19756551.145
       238.000         195.000
 -18731204.94849 -14567937.12046  21115020.531    21115018.984    21115032.146
       228.000         174.000
   -395054.68149   -297924.83447  20383097.903    20383095.726    20383108.282
       237.000         196.000
 -28728759.46749 -22358404.39847  19336600.221    19336598.756    19336609.405
       246.000         209.000
  -7692525.01549  -5975332.11645  22787192.306    22787190.501    22787212.617
       212.000         150.000
 00  4 19 17 39 59.9940000  0  7G 2G 4G24G 5G 7G 9G16
   1018906.14149    799984.30646  21237440.288    21237437.811    21237453.698
       222.000         172.000
 -31051992.24149 -24180081.29847  18497279.429    18497278.300    18497288.880
       241.000         206.000
 -22625130.61849 -17609881.92347  19735372.532    19735371.343    19735385.704
       239.000         196.000
 -18843271.31249 -14655261.51546  21093695.062    21093693.461    21093706.578
       228.000         173.000
   -362760.10349   -272760.33347  20389243.490    20389241.273    20389253.841
       237.000         196.000
 -28759359.07049 -22382248.27547  19330777.394    19330775.903    19330786.512
       246.000         209.000
  -7755808.38549  -6024643.65445  22775149.792    22775148.096    22775170.015
       214.000         150.000
 00  4 19 17 40 29.9940000  0  7G 2G 4G24G 5G 7G 9G16
   1059747.83949    831808.73446  21245212.453    21245209.986    21245225.843
       224.000         172.000
 -31089842.08649 -24209574.70747  18490076.910    18490075.770    18490086.295
       241.000         205.000
 -22735996.44749 -17696270.77347  19714275.430    19714274.227    19714288.521
       239.000         196.000
 -18955301.67749 -14742557.85946  21072376.456    21072374.777    21072387.897
       228.000         174.000
   -330367.64349   -247519.56347  20395407.668    20395405.455    20395418.041
       236.000         196.000
 -28789434.71149 -22405683.87547  19325054.307    19325052.764    19325063.351
       246.000         209.000
  -7818711.74749  -6073659.08245  22763179.606    22763177.921    22763199.803
       213.000         151.000
 00  4 19 17 40 59.9930000  0  7G 2G 4G24G 5G 7G 9G16
   1100866.98849    863849.32846  21253037.316    21253034.891    21253050.812
       223.000         173.000
 -31127082.52249 -24238593.24547  18482990.325    18482989.188    18482999.680
       241.000         206.000
 -22846453.89949 -17782341.40747  19693255.992    19693254.798    19693269.061
       239.000         196.000
 -19067258.15949 -14829796.58346  21051071.774    21051070.132    21051083.295
       228.000         174.000
   -297855.49349   -222185.52847  20401594.590    20401592.389    20401604.999
       236.000         196.000
 -28818939.57249 -22428674.70947  19319439.746    19319438.223    19319448.802
       246.000         209.000
  -7881214.05249  -6122362.01245  22751285.702    22751284.071    22751305.811
       213.000         152.000
 00  4 19 17 41 29.9930000  0  7G 2G 4G24G 5G 7G 9G16
   1142319.48049    896149.66446  21260925.650    21260923.210    21260939.170
       223.000         172.000
 -31163648.27449 -24267086.05647  18476032.115    18476030.973    18476041.461
       240.000         206.000
 -22956448.46749 -17868051.35147  19672324.605    19672323.452    19672337.684
       239.000         196.000
 -19179072.36849 -14916924.46146  21029794.160    21029792.541    21029805.723
       228.000         174.000
   -265152.38049   -196702.68547  20407817.877    20407815.678    20407828.298
       236.000         196.000
 -28847795.63649 -22451159.98547  19313948.608    19313947.110    19313957.713
       246.000         209.000
  -7943237.97849  -6170692.15345  22739482.836    22739481.222    22739502.964
       214.000         154.000
 00  4 19 17 41 59.9930000  0  7G 2G 4G24G 5G 7G 9G16
   1184055.19949    928670.68946  21268867.908    21268865.440    21268881.490
       224.000         172.000
 -31199591.45749 -24295093.75247  18469192.291    18469191.191    18469201.705
       240.000         206.000
 -23066018.75049 -17953430.68147  19651473.903    19651472.814    19651487.048
       239.000         197.000
 -19290774.12049 -15003964.71746  21008537.974    21008536.358    21008549.515
       228.000         175.000
   -232322.35149   -171120.95747  20414065.309    20414063.108    20414075.750
       235.000         195.000
 -28876035.00849 -22473164.72547  19308574.736    19308573.321    19308583.937
       245.000         209.000
  -8004830.34249  -6218686.03345  22727762.000    22727760.453    22727782.234
       213.000         154.000
 00  4 19 17 42 29.9930000  0  7G 2G 4G24G 5G 7G 9G16
   1226066.97649    961406.84846  21276862.701    21276860.258    21276876.349
       223.000         172.000
 -31234931.06349 -24322631.11447  18462467.334    18462466.292    18462476.792
       240.000         205.000
 -23175185.78049 -18038495.78647  19630700.001    19630698.947    19630713.174
       239.000         197.000
 -19402388.20849 -15090936.66746  20987298.386    20987296.834    20987309.948
       227.000         174.000
   -199404.04849   -145470.43647  20420329.482    20420327.317    20420339.995
       235.000         195.000
 -28903664.77349 -22494694.44247  19303316.924    19303315.550    19303326.195
       245.000         209.000
  -8066009.28449  -6266357.76645  22716119.872    22716118.354    22716140.140
       213.000         152.000
 00  4 19 17 42 59.9930000  0  7G 2G 4G24G 5G 7G 9G16
   1268343.97949    994349.67246  21284907.881    21284905.495    21284921.662
       224.000         172.000
 -31269656.28349 -24349689.73847  18455859.325    18455858.303    18455868.786
       240.000         206.000
 -23283980.57249 -18123270.83747  19609996.940    19609995.902    19610010.134
       239.000         197.000
 -19513925.29349 -15177848.61646  20966073.456    20966071.928    20966085.062
       227.000         174.000
   -166418.21849   -119767.30347  20426606.569    20426604.392    20426617.099
       235.000         194.000
 -28930695.78649 -22515757.60247  19298173.086    19298171.731    19298182.398
       245.000         209.000
  -8126762.88149  -6313698.06845  22704558.693    22704557.247    22704578.955
       212.000         153.000
 00  4 19 17 43 29.9930000  0  7G 2G 4G24G 5G 7G 9G16
   1310882.26749   1027496.10046  21293002.919    21293000.473    21293016.723
       224.000         171.000
 -31303741.73449 -24376249.83047  18449373.125    18449372.066    18449382.570
       240.000         206.000
 -23392403.05349 -18207755.76647  19589364.733    19589363.711    19589377.947
       239.000         197.000
 -19625375.61649 -15264692.95946  20944865.071    20944863.555    20944876.714
       226.000         175.000
   -133358.67049    -94006.71747  20432897.675    20432895.497    20432908.235
       235.000         195.000
 -28957146.50749 -22536368.58347  19293139.721    19293138.360    19293149.034
       245.000         209.000
  -8187075.17249  -6360694.46845  22693081.414    22693080.052    22693101.754
       211.000         154.000
 00  4 19 17 43 59.9930000  0  7G 2G 4G24G 5G 7G 9G16
   1353671.19949   1060837.86046  21301145.599    21301143.121    21301159.402
       222.000         171.000
 -31337196.63049 -24402318.58647  18443006.803    18443005.811    18443016.360
       240.000         206.000
 -23500455.22649 -18291952.14947  19568803.011    19568801.971    19568816.205
       239.000         197.000
 -19736756.04449 -15351482.82946  20923669.902    20923668.458    20923681.651
       226.000         175.000
   -100241.89249    -68201.54647  20439199.639    20439197.484    20439210.253
       235.000         195.000
 -28983036.62349 -22556542.73147  19288213.038    19288211.654    19288222.351
       246.000         210.000
  -8246961.10349  -6407358.66945  22681685.412    22681684.003    22681705.633
       212.000         153.000
 00  4 19 17 44 29.9930000  0  7G 2G 4G24G 5G 7G 9G16
   1396728.76749   1094388.93846  21309339.392    21309336.913    21309353.268
       221.000         170.000
 -31370010.74849 -24427888.02747  18436762.473    18436761.490    18436772.088
       240.000         206.000
 -23608121.73849 -18375848.01547  19548314.678    19548313.631    19548327.857
       239.000         197.000
 -19848055.07649 -15438209.29246  20902490.234    20902488.841    20902502.072
       227.000         175.000
    -67054.98749    -42341.72847  20445514.978    20445512.822    20445525.615
       235.000         195.000
 -29008361.98249 -22576276.80947  19283393.876    19283392.443    19283403.170
       246.000         210.000
  -8306380.44749  -6453659.29745  22670378.165    22670376.741    22670398.385
       213.000         155.000
 00  4 19 17 44 59.9930000  0  7G 2G 4G24G 5G 7G 9G16
   1440053.59949   1128148.26346  21317583.998    21317581.546    21317597.970
       222.000         170.000
 -31402174.42049 -24452950.62847  18430641.929    18430640.944    18430651.557
       240.000         206.000
 -23715398.30149 -18459440.02647  19527900.543    19527899.487    19527913.692
       239.000         197.000
 -19959263.77249 -15524865.34946  20881327.807    20881326.443    20881339.682
       226.000         175.000
    -33792.46249    -16422.99047  20451844.685    20451842.544    20451855.358
       235.000         194.000
 -29033127.26249 -22595574.47047  19278681.203    19278679.802    19278690.545
       245.000         210.000
  -8365319.26449  -6499585.47045  22659162.359    22659160.937    22659182.539
       212.000         155.000
 00  4 19 17 45 29.9930000  0  7G 2G 4G24G 5G 7G 9G16
   1483623.18449   1162098.30946  21325875.173    21325872.776    21325889.250
       222.000         169.000
 -31433732.88449 -24477541.62847  18424636.556    18424635.574    18424646.179
       240.000         206.000
 -23822293.45449 -18542734.83347  19507558.964    19507557.910    19507572.114
       239.000         198.000
 -20070407.20849 -15611470.57046  20860177.891    20860176.507    20860189.701
       228.000         176.000
      -473.23349      9539.94147  20458185.241    20458183.069    20458195.898
       235.000         194.000
 -29057355.36549 -22614453.54547  19274070.793    19274069.374    19274080.129
       246.000         210.000
  -8423810.77549  -6545163.15245  22648031.645    22648030.268    22648051.851
       213.000         156.000
 00  4 19 17 45 59.9930000  0  7G 2G 4G24G 5G 7G 9G16
   1527458.36949   1196255.32246  21334217.039    21334214.563    21334231.085
       223.000         170.000
 -31464701.26749 -24501672.82147  18418743.487    18418742.501    18418753.082
       240.000         206.000
 -23928790.08049 -18625719.09547  19487293.236    19487292.184    19487306.360
       239.000         198.000
 -20181486.08249 -15698025.50546  20839040.223    20839038.841    20839052.003
       228.000         176.000
     32912.08949     35554.37047  20464538.288    20464536.147    20464549.008
       234.000         193.000
 -29081022.51349 -22632895.51147  19269567.083    19269565.682    19269576.450
       245.000         210.000
  -8481850.76749  -6590388.97145  22636986.954    22636985.576    22637007.092
       213.000         156.000
 00  4 19 17 46 29.9930000  0  7G 2G 4G24G 5G 7G 9G16
   1571608.73149   1230657.90046  21342618.760    21342616.304    21342632.878
       222.000         169.000
 -31495037.81049 -24525311.67447  18412970.637    18412969.651    18412980.228
       240.000         206.000
 -24034842.98449 -18708357.61047  19467111.919    19467110.876    19467125.048
       239.000         198.000
 -20292441.15149 -15784483.97546  20817926.144    20817924.745    20817937.882
       228.000         176.000
     66419.51749     61663.93747  20470914.561    20470912.452    20470925.352
       234.000         193.000
 -29104082.32949 -22650864.24147  19265178.993    19265177.568    19265188.350
       245.000         210.000
  -8539404.70849  -6635236.06845  22626034.743    22626033.334    22626054.814
       213.000         157.000
 00  4 19 17 46 59.9930000  0  7G 2G 4G24G 5G 7G 9G16
   1616064.93749   1265298.82146  21351078.766    21351076.292    21351092.918
       220.000         170.000
 -31524736.44949 -24548453.45747  18407319.127    18407318.174    18407328.753
       240.000         206.000
 -24140438.29449 -18790639.55647  19447017.709    19447016.663    19447030.802
       239.000         198.000
 -20403268.65549 -15870843.03846  20796836.348    20796834.904    20796848.058
       229.000         177.000
    100053.56249     87872.16847  20477314.934    20477312.851    20477325.769
       235.000         193.000
 -29126530.11849 -22668356.06247  19260907.386    19260905.937    19260916.737
       246.000         210.000
  -8596503.98149  -6679728.89645  22615169.073    22615167.598    22615189.033
       214.000         156.000
 00  4 19 17 47 29.9930000  0  7G 2G 4G24G 5G 7G 9G16
   1660794.38149   1300152.63346  21359590.662    21359588.230    21359604.952
       222.000         168.000
 -31553836.45949 -24571128.77447  18401781.544    18401780.605    18401791.216
       240.000         206.000
 -24245593.79149 -18872578.79347  19427007.197    19427006.151    19427020.234
       240.000         198.000
 -20513986.30249 -15957116.48346  20775767.434    20775766.006    20775779.114
       228.000         177.000
    133785.38449    114156.59447  20483733.967    20483731.869    20483744.819
       235.000         193.000
 -29148386.94749 -22685387.39447  19256748.206    19256746.760    19256757.589
       245.000         210.000
  -8653185.96149  -6723896.54045  22604382.683    22604381.254    22604402.728
       212.000         155.000
 00  4 19 17 47 59.9930000  0  7G 2G 4G24G 5G 7G 9G16
   1705798.93949   1335220.83146  21368154.944    21368152.552    21368169.316
       222.000         168.000
 -31582320.00049 -24593323.73647  18396361.328    18396360.368    18396371.011
       240.000         207.000
 -24350311.80649 -18954177.13747  19407080.013    19407078.905    19407092.939
       240.000         199.000
 -20624583.50849 -16043296.07246  20754721.489    20754720.033    20754733.102
       229.000         179.000
    167609.45549    140512.88847  20490170.545    20490168.465    20490181.451
       233.000         193.000
 -29169644.87149 -22701952.05147  19252703.036    19252701.558    19252712.405
       245.000         210.000
  -8709444.63149  -6767734.35845  22593676.802    22593675.410    22593696.873
       210.000         154.000
 00  4 19 17 48 29.9930000  0  7G 2G 4G24G 5G 7G 9G16
   1751056.02549   1370485.79546  21376767.265    21376764.893    21376781.774
       221.000         168.000
 -31610197.04849 -24615046.10047  18391056.551    18391055.570    18391066.227
       241.000         207.000
 -24454612.70649 -19035450.45447  19387232.205    19387231.044    19387245.018
       241.000         199.000
 -20735071.33549 -16129390.41446  20733696.473    20733694.902    20733707.932
       230.000         178.000
    201503.79149    166923.93347  20496620.545    20496618.436    20496631.450
       234.000         192.000
 -29190327.17549 -22718068.16847  19248767.340    19248765.874    19248776.722
       245.000         210.000
  -8765290.59149  -6811250.55345  22583049.537    22583048.150    22583069.674
       211.000         155.000
 00  4 19 17 48 59.9930000  0  7G 2G 4G24G 5G 7G 9G16
   1796552.02649   1405936.91846  21385425.188    21385422.742    21385439.645
       222.000         168.000
 -31637469.36349 -24636297.24547  18385866.903    18385865.863    18385876.464
       241.000         207.000
 -24558498.93249 -19116400.65447  19367463.311    19367462.104    19367476.009
       241.000         200.000
 -20845467.88349 -16215413.64946  20712688.698    20712687.112    20712700.155
       230.000         179.000
    235459.77949    193383.02347  20503082.283    20503080.146    20503093.198
       234.000         192.000
 -29210438.91749 -22733739.69747  19244940.228    19244938.759    19244949.587
       245.000         210.000
  -8820701.00149  -6854427.35345  22572505.260    22572503.828    22572525.349
       213.000         157.000
 00  4 19 17 49 29.9930000  0  7G 2G 4G24G 5G 7G 9G16
   1842334.72849   1441611.46046  21394137.693    21394135.172    21394152.086
       221.000         169.000
 -31664099.14949 -24657047.71947  18380799.493    18380798.422    18380808.967
       242.000         207.000
 -24661941.98849 -19197005.52647  19347778.718    19347777.498    19347791.352
       242.000         200.000
 -20955726.02949 -16301329.01846  20691707.226    20691705.670    20691718.688
       229.000         179.000
    269528.29849    219929.80347  20509565.475    20509563.295    20509576.353
       234.000         192.000
 -29229941.36249 -22748936.44647  19241229.145    19241227.632    19241238.426
       246.000         209.000
  -8875607.26749  -6897211.34645  22562056.947    22562055.434    22562076.929
       212.000         156.000
 00  4 19 17 49 59.9930000  0  7G 2G 4G24G 5G 7G 9G16
   1888396.51749   1477503.46546  21402903.328    21402900.709    21402917.698
       221.000         168.000
 -31690089.74449 -24677300.12447  18375853.719    18375852.623    18375863.103
       242.000         207.000
 -24764949.11149 -19277270.71247  19328177.068    19328175.844    19328189.629
       242.000         201.000
 -21065860.14149 -16387147.75046  20670749.426    20670747.835    20670760.811
       230.000         180.000
    303707.44849    246562.79347  20516069.713    20516067.505    20516080.548
       235.000         192.000
 -29248845.14149 -22763666.70847  19237631.987    19237630.436    19237641.176
       246.000         209.000
  -8930004.19549  -6939598.45345  22551705.569    22551704.016    22551725.443
       215.000         156.000
 00  4 19 17 50 29.9930000  0  7G 2G 4G24G 5G 7G 9G16
   1934716.13049   1513596.37346  21411717.953    21411715.315    21411732.325
       220.000         167.000
 -31715469.00149 -24697076.16447  18371024.269    18371023.137    18371033.576
       241.000         207.000
 -24867530.50849 -19357204.17547  19308656.418    19308655.200    19308668.919
       241.000         200.000
 -21175885.12149 -16472881.44046  20649812.434    20649810.798    20649823.727
       231.000         179.000
    337981.15149    273269.46047  20522591.974    20522589.699    20522602.752
       235.000         191.000
 -29267175.66249 -22777950.27447  19234143.839    19234142.299    19234153.014
       245.000         209.000
  -8983904.08249  -6981598.24245  22541448.728    22541447.156    22541468.395
       215.000         155.000
 00  4 19 17 50 59.9930000  0  7G 2G 4G24G 5G 7G 9G16
   1981289.63849   1549887.09946  21420580.873    21420578.226    21420595.313
       222.000         166.000
 -31740242.47749 -24716380.16647  18366310.062    18366308.931    18366319.341
       241.000         207.000
 -24969689.23449 -19436808.27847  19289216.235    19289214.989    19289228.674
       242.000         201.000
 -21285796.34549 -16558526.50046  20628897.086    20628895.391    20628908.275
       230.000         180.000
    372345.22149    300046.54847  20529131.390    20529129.081    20529142.145
       233.000         191.000
 -29284925.39149 -22791781.27347  19230766.209    19230764.673    19230775.371
       245.000         209.000
  -9037306.21649  -7023210.16445  22531286.505    22531285.025    22531306.095
       213.000         152.000
 00  4 19 17 51 29.9930000  0  7G 2G 4G24G 5G 7G 9G16
   2028137.78449   1586391.84746  21429496.081    21429493.387    21429510.525
       219.000         166.000
 -31764406.90249 -24735209.58847  18361711.734    18361710.618    18361721.007
       241.000         207.000
 -25071401.76549 -19516064.69947  19269860.945    19269859.693    19269873.335
       241.000         201.000
 -21395575.59549 -16644068.74046  20608006.735    20608005.067    20608017.904
       230.000         180.000
    406799.39449    326893.82647  20535687.901    20535685.610    20535698.707
       232.000         191.000
 -29302076.47249 -22805145.80047  19227502.503    19227500.954    19227511.638
       246.000         209.000
  -9090210.96549  -7064434.51045  22521218.947    22521217.455    22521238.418
       212.000         151.000
 00  4 19 17 51 59.9930000  0  7G 2G 4G24G 5G 7G 9G16
   2075253.32949   1623104.93546  21438462.056    21438459.407    21438476.611
       220.000         165.000
 -31787968.61549 -24753569.36347  18357228.125    18357226.990    18357237.368
       241.000         207.000
 -25172658.35749 -19594965.84647  19250592.404    19250591.159    19250604.786
       242.000         202.000
 -21505249.66749 -16729529.00946  20587136.395    20587134.748    20587147.539
       231.000         181.000
    441322.70449    353794.98047  20542257.519    20542255.255    20542268.427
       232.000         191.000
 -29318637.69349 -22818050.69147  19224351.037    19224349.490    19224360.168
       246.000         209.000
  -9142627.36849  -7105278.32545  22511244.266    22511242.777    22511263.640
       212.000         151.000
 00  4 19 17 52 29.9930000  0  7G 2G 4G24G 5G 7G 9G16
   2122637.87649   1660027.64746  21447479.291    21447476.639    21447493.895
       221.000         167.000
 -31810933.60749 -24771464.16247  18352858.020    18352856.900    18352867.258
       241.000         207.000
 -25273465.58649 -19673516.84247  19231409.356    19231408.120    19231421.713
       241.000         202.000
 -21614826.51949 -16814913.51246  20566284.546    20566282.929    20566295.722
       231.000         180.000
    475905.19549    380742.24347  20548838.365    20548836.147    20548849.389
       232.000         190.000
 -29334609.77049 -22830496.51447  19221311.642    19221310.133    19221320.839
       245.000         209.000
  -9194566.94149  -7145750.58445  22501360.414    22501358.894    22501379.726
       213.000         153.000
 00  4 19 17 52 59.9930000  0  7G 2G 4G24G 5G 7G 9G16
   2170319.36549   1697181.73746  21456553.032    21456550.382    21456567.742
       220.000         165.000
 -31833280.21449 -24788877.10947  18348605.562    18348604.495    18348614.833
       241.000         207.000
 -25373803.69149 -19751702.28747  19212315.545    19212314.339    19212327.887
       243.000         202.000
 -21724288.61049 -16900208.59746  20545454.630    20545452.976    20545465.718
       232.000         181.000
    510577.85549    407759.78647  20555436.371    20555434.192    20555447.483
       233.000         190.000
 -29349977.37449 -22842471.31347  19218387.345    19218385.810    19218396.565
       246.000         209.000
  -9246014.33949  -7185839.31245  22491570.244    22491568.711    22491589.569
       215.000         154.000
 00  4 19 17 53 29.9930000  0  7G 2G 4G24G 5G 7G 9G16
   2218270.20049   1734545.69546  21465677.951    21465675.381    21465692.769
       220.000         166.000
 -31855023.10149 -24805819.62047  18344467.981    18344466.930    18344477.307
       240.000         207.000
 -25473700.12149 -19829543.56847  19193305.806    19193304.606    19193318.119
       242.000         202.000
 -21833662.23149 -16985434.73846  20524641.555    20524639.868    20524652.568
       232.000         182.000
    545325.57749    434835.81547  20562048.701    20562046.548    20562059.866
       233.000         190.000
 -29364779.27849 -22854005.30447  19215570.649    19215569.138    19215579.919
       245.000         209.000
  -9296994.90049  -7225564.28345  22481868.962    22481867.393    22481888.195
       216.000         156.000
